[[{"header":{"parameterUnit":"m.s-1","parameterCategory":1,"la1":31.0,"la2":29.5877,"lo1":-88.7671,"lo2":-86.6584,"dx":0.0162,"dy":0.0185,"nx":115,"ny":88,"refTime":"2023-01-30T18:00:00:Z","depth":0,"parameterNumber":2,"parameterNumberName":"U-component_of_WINDS"},"data":[0.0,0.0,0.0,0.0,0.0,0.0,0.0,0.0,0.0,0.0,0.0,0.0,0.0,0.0,0.0,0.0,0.0,0.0,0.0,0.0,0.0,0.0,0.0,0.0,0.0,0.0,0.0,0.0,0.0,0.0,0.0,0.0,0.0,0.0,0.0,0.0,0.0,0.0,0.0,0.0,0.0,0.0,0.0,0.0,0.0,0.0,0.0,0.0,0.0,0.0,0.0,0.0,0.0,0.0,0.0,0.0,0.0,0.0,0.0,0.0,0.0,0.0,0.0,0.0,0.0,0.0,0.0,0.0,0.0,0.0,0.0,0.0,0.0,0.0,0.0,0.0,0.0,0.0,0.0,0.0,0.0,0.0,0.0,0.0,0.0,0.0,0.0,0.0,0.0,0.0,0.0,0.0,0.0,0.0,0.0,0.0,0.0,0.0,0.0,0.0,0.0,0.0,0.0,0.0,0.0,0.0,0.0,0.0,0.0,0.0,0.0,0.0,0.0,0.0,0.0,0.0,0.0,0.0,0.0,0.0,0.0,0.0,0.0,0.0,0.0,0.0,0.0,0.0,0.0,0.0,0.0,0.0,0.0,0.0,0.0,0.0,0.0,0.0,0.0,0.0,0.0,0.0,0.0,0.0,0.0,0.0,0.0,0.0,0.0,0.0,0.0,0.0,0.0,0.0,0.0,0.0,0.0,0.0,0.0,0.0,0.0,0.0,0.0,0.0,0.0,0.0,0.0,0.0,0.0,0.0,0.0,0.0,0.0,0.0,0.0,0.0,0.0,0.0,0.0,0.0,0.0,0.0,0.0,0.0,0.0,0.0,0.0,0.0,0.0,0.0,0.0,0.0,0.0,0.0,0.0,0.0,0.0,0.0,0.0,0.0,0.0,0.0,0.0,0.0,0.0,0.0,0.0,0.0,0.0,0.0,0.0,0.0,0.0,0.0,0.0,0.0,0.0,0.0,0.0,0.0,0.0,0.0,0.0,0.0,0.0,0.0,0.0,0.0,0.0,0.0,0.0,0.0,0.0,0.0,0.0,0.0,0.0,0.0,0.0,0.0,0.0,0.0,0.0,0.0,0.0,0.0,0.0,0.0,0.0,0.0,0.0,0.0,0.0,0.0,0.0,0.0,0.0,0.0,0.0,0.0,0.0,0.0,0.0,0.0,0.0,0.0,0.0,0.0,0.0,0.0,0.0,0.0,0.0,0.0,0.0,0.0,0.0,0.0,0.0,0.0,0.0,0.0,0.0,0.0,0.0,0.0,0.0,0.0,0.0,0.0,0.0,0.0,0.0,0.0,0.0,0.0,0.0,0.0,0.0,0.0,0.0,0.0,0.0,0.0,0.0,0.0,0.0,0.0,0.0,0.0,0.0,0.0,0.0,0.0,0.0,0.0,0.0,0.0,0.0,0.0,0.0,0.0,0.0,0.0,0.0,0.0,0.0,0.0,0.0,0.0,0.0,0.0,0.0,0.0,0.0,0.0,0.0,0.0,0.0,0.0,0.0,0.0,0.0,0.0,0.0,0.0,0.0,0.0,0.0,0.0,0.0,0.0,0.0,0.0,0.0,0.0,0.0,0.0,0.0,0.0,0.0,0.0,0.0,0.0,0.0,0.0,0.0,0.0,0.0,0.0,0.0,0.0,0.0,0.0,0.0,0.0,0.0,0.0,0.0,0.0,0.0,0.0,0.0,0.0,0.0,0.0,0.0,0.0,0.0,0.0,0.0,0.0,0.0,0.0,0.0,0.0,0.0,0.0,0.0,0.0,0.0,0.0,0.0,0.0,0.0,0.0,0.0,0.0,0.0,0.0,0.0,0.0,0.0,0.0,0.0,0.0,0.0,0.0,0.0,0.0,0.0,0.0,0.0,0.0,0.0,0.0,0.0,0.0,0.0,0.0,0.0,0.0,0.0,0.0,0.0,0.0,0.0,0.0,0.0,0.0,0.0,0.0,0.0,0.0,0.0,0.0,0.0,0.0,0.0,0.0,0.0,0.0,0.0,0.0,0.0,0.0,0.0,0.0,0.0,0.0,0.0,0.0,0.0,0.0,0.0,0.0,0.0,0.0,0.0,0.0,0.0,0.0,0.0,0.0,0.0,0.0,0.0,0.0,0.0,0.0,0.0,0.0,0.0,0.0,0.0,0.0,0.0,0.0,0.0,0.0,0.0,0.0,0.0,0.0,0.0,0.0,0.0,0.0,0.0,0.0,0.0,0.0,0.0,0.0,0.0,0.0,0.0,0.0,0.0,0.0,0.0,0.0,0.0,0.0,0.0,0.0,0.0,0.0,0.0,0.0,0.0,0.0,0.0,0.0,0.0,0.0,0.0,0.0,0.0,0.0,0.0,0.0,0.0,0.0,0.0,0.0,0.0,0.0,0.0,0.0,0.0,0.0,0.0,0.0,0.0,0.0,0.0,0.0,0.0,0.0,0.0,0.0,0.0,0.0,0.0,0.0,0.0,0.0,0.0,0.0,0.0,0.0,0.0,0.0,0.0,0.0,0.0,0.0,0.0,0.0,0.0,0.0,0.0,0.0,0.0,0.0,0.0,0.0,0.0,0.0,0.0,0.0,0.0,0.0,0.0,0.0,0.0,0.0,0.0,0.0,0.0,0.0,0.0,0.0,0.0,0.0,0.0,0.0,0.0,0.0,0.0,0.0,0.0,0.0,0.0,0.0,0.0,0.0,0.0,0.0,0.0,0.0,0.0,0.0,0.0,0.0,0.0,0.0,0.0,0.0,0.0,0.0,0.0,0.0,0.0,0.0,0.0,0.0,0.0,0.0,0.0,0.0,0.0,0.0,0.0,0.0,0.0,0.0,0.0,0.0,0.0,0.0,0.0,0.0,0.0,0.0,0.0,0.0,0.0,0.0,0.0,0.0,0.0,0.0,0.0,0.0,0.0,0.0,0.0,0.0,0.0,0.0,0.0,0.0,0.0,0.0,0.0,0.0,0.0,0.0,0.0,0.0,0.0,0.0,0.0,0.0,0.0,0.0,0.0,0.0,0.0,0.0,0.0,0.0,0.0,0.0,0.0,0.0,0.0,0.0,0.0,0.0,0.0,0.0,0.0,0.0,0.0,0.0,0.0,0.0,0.0,0.0,0.0,0.0,0.0,0.0,0.0,0.0,0.0,0.0,0.0,0.0,0.0,0.0,0.0,0.0,0.0,0.0,0.0,0.0,0.0,0.0,0.0,0.0,0.0,0.0,0.0,0.0,0.0,0.0,0.0,0.0,0.0,0.0,0.0,0.0,0.0,0.0,0.0,0.0,0.0,0.0,0.0,0.0,0.0,0.0,0.0,0.0,0.0,0.0,0.0,0.0,0.0,0.0,0.0,0.0,0.0,0.0,0.0,0.0,0.0,0.0,0.0,0.0,0.0,0.0,0.0,0.0,0.0,0.0,0.0,0.0,0.0,0.0,0.0,0.0,0.0,0.0,0.0,0.0,0.0,0.0,0.0,0.0,0.0,0.0,0.0,0.0,0.0,0.0,0.0,0.0,0.0,0.0,0.0,0.0,0.0,0.0,0.0,0.0,0.0,0.0,0.0,0.0,0.0,0.0,0.0,0.0,0.0,0.0,0.0,0.0,0.0,0.0,0.0,0.0,0.0,0.0,0.0,0.0,0.0,0.0,0.0,0.0,0.0,0.0,0.0,0.0,0.0,0.0,0.0,0.0,0.0,0.0,0.0,0.0,0.0,0.0,0.0,0.0,0.0,0.0,0.0,0.0,0.0,0.0,0.0,0.0,0.0,0.0,0.0,0.0,0.0,0.0,0.0,0.0,0.0,0.0,0.0,0.0,0.0,0.0,0.0,0.0,0.0,0.0,0.0,0.0,0.0,0.0,0.0,0.0,0.0,0.0,0.0,0.0,0.0,0.0,0.0,0.0,0.0,0.0,0.0,0.0,0.0,0.0,0.0,0.0,0.0,0.0,0.0,0.0,0.0,0.0,0.0,0.0,0.0,0.0,0.0,0.0,0.0,0.0,0.0,0.0,0.0,0.0,0.0,0.0,0.0,0.0,0.0,0.0,0.0,0.0,0.0,0.0,0.0,0.0,0.0,0.0,0.0,0.0,0.0,0.0,0.0,0.0,0.0,0.0,0.0,0.0,0.0,0.0,0.0,0.0,0.0,0.0,0.0,0.0,0.0,0.0,0.0,0.0,0.0,0.0,0.0,0.0,0.0,0.0,0.0,0.0,0.0,0.0,0.0,0.0,0.0,0.0,0.0,0.0,0.0,0.0,0.0,0.0,0.0,0.0,0.0,0.0,3.784,0.0,0.0,0.0,0.0,0.0,0.0,0.0,0.0,0.0,0.0,0.0,0.0,0.0,0.0,0.0,0.0,0.0,0.0,0.0,0.0,0.0,0.0,0.0,0.0,0.0,0.0,0.0,0.0,0.0,0.0,0.0,0.0,0.0,0.0,0.0,0.0,0.0,0.0,0.0,0.0,0.0,0.0,0.0,0.0,0.0,0.0,0.0,0.0,0.0,0.0,0.0,0.0,0.0,0.0,0.0,0.0,0.0,0.0,0.0,0.0,0.0,0.0,0.0,0.0,0.0,0.0,0.0,0.0,0.0,0.0,0.0,0.0,0.0,0.0,0.0,0.0,0.0,0.0,0.0,0.0,0.0,0.0,0.0,0.0,0.0,0.0,0.0,0.0,0.0,0.0,0.0,0.0,0.0,0.0,0.0,0.0,0.0,0.0,0.0,0.0,0.0,0.0,0.0,0.0,0.0,0.0,0.0,0.0,0.0,0.0,4.2031,4.112,3.9467,3.7924,3.6485,0.0,0.0,0.0,0.0,0.0,0.0,0.0,0.0,0.0,0.0,0.0,0.0,0.0,0.0,0.0,0.0,0.0,0.0,0.0,0.0,0.0,0.0,0.0,0.0,0.0,0.0,0.0,0.0,0.0,0.0,0.0,0.0,0.0,0.0,0.0,0.0,0.0,0.0,0.0,0.0,0.0,0.0,0.0,0.0,0.0,0.0,0.0,0.0,0.0,0.0,0.0,0.0,0.0,0.0,0.0,0.0,0.0,0.0,0.0,0.0,0.0,0.0,0.0,0.0,0.0,0.0,0.0,0.0,0.0,0.0,0.0,0.0,0.0,0.0,0.0,0.0,0.0,0.0,0.0,0.0,0.0,0.0,0.0,0.0,0.0,0.0,0.0,0.0,0.0,0.0,0.0,0.0,0.0,0.0,0.0,0.0,0.0,0.0,0.0,0.0,0.0,0.0,0.0,0.0,0.0,0.0,0.0,0.0,0.0,0.0,0.0,0.0,3.8422,3.6899,3.4999,0.0,0.0,0.0,0.0,0.0,0.0,0.0,0.0,0.0,0.0,0.0,0.0,0.0,0.0,0.0,0.0,0.0,0.0,0.0,0.0,0.0,0.0,0.0,0.0,0.0,0.0,0.0,0.0,0.0,0.0,0.0,0.0,0.0,0.0,0.0,0.0,0.0,0.0,0.0,0.0,0.0,0.0,0.0,0.0,0.0,0.0,0.0,0.0,0.0,0.0,0.0,0.0,0.0,0.0,0.0,0.0,0.0,0.0,0.0,0.0,0.0,0.0,0.0,0.0,0.0,0.0,0.0,0.0,0.0,0.0,0.0,0.0,0.0,0.0,0.0,0.0,0.0,0.0,0.0,0.0,0.0,0.0,0.0,0.0,0.0,0.0,0.0,0.0,0.0,0.0,0.0,0.0,0.0,0.0,0.0,0.0,0.0,0.0,0.0,0.0,0.0,0.0,0.0,0.0,0.0,0.0,0.0,0.0,0.0,0.0,4.0463,3.8577,3.7803,0.0,3.3997,0.0,0.0,0.0,0.0,0.0,0.0,0.0,0.0,0.0,0.0,0.0,0.0,0.0,0.0,0.0,0.0,0.0,0.0,0.0,0.0,0.0,0.0,0.0,0.0,0.0,0.0,0.0,0.0,0.0,0.0,0.0,0.0,0.0,0.0,0.0,0.0,0.0,0.0,0.0,0.0,0.0,0.0,0.0,0.0,0.0,0.0,0.0,0.0,0.0,0.0,0.0,0.0,0.0,0.0,0.0,0.0,0.0,0.0,0.0,0.0,0.0,0.0,0.0,0.0,0.0,0.0,0.0,0.0,0.0,0.0,0.0,0.0,0.0,0.0,0.0,0.0,0.0,0.0,0.0,0.0,0.0,0.0,0.0,0.0,0.0,0.0,0.0,0.0,0.0,0.0,0.0,0.0,0.0,0.0,0.0,0.0,0.0,0.0,0.0,0.0,0.0,0.0,0.0,0.0,0.0,0.0,0.0,0.0,0.0,0.0,4.0453,3.8644,3.6957,3.5182,0.0,0.0,0.0,0.0,0.0,0.0,0.0,0.0,0.0,0.0,0.0,0.0,0.0,0.0,0.0,0.0,0.0,0.0,0.0,0.0,0.0,0.0,0.0,0.0,0.0,0.0,0.0,0.0,0.0,0.0,0.0,0.0,0.0,0.0,0.0,0.0,0.0,0.0,0.0,0.0,0.0,0.0,0.0,0.0,0.0,0.0,0.0,0.0,0.0,0.0,0.0,0.0,0.0,0.0,0.0,0.0,0.0,0.0,0.0,0.0,0.0,0.0,0.0,0.0,0.0,0.0,0.0,0.0,0.0,0.0,0.0,0.0,0.0,0.0,0.0,0.0,0.0,0.0,0.0,0.0,0.0,0.0,0.0,0.0,0.0,0.0,0.0,0.0,0.0,0.0,0.0,0.0,0.0,0.0,0.0,0.0,0.0,0.0,0.0,0.0,0.0,0.0,0.0,0.0,0.0,0.0,0.0,0.0,0.0,0.0,4.0867,3.9898,3.7888,3.5952,3.4313,3.3071,0.0,0.0,0.0,0.0,0.0,0.0,0.0,0.0,0.0,0.0,0.0,0.0,0.0,0.0,0.0,0.0,0.0,0.0,0.0,0.0,0.0,0.0,0.0,0.0,0.0,0.0,0.0,0.0,0.0,0.0,0.0,0.0,0.0,0.0,0.0,0.0,0.0,0.0,0.0,0.0,0.0,0.0,0.0,0.0,0.0,0.0,0.0,0.0,0.0,0.0,0.0,0.0,0.0,0.0,0.0,0.0,0.0,0.0,0.0,0.0,0.0,0.0,0.0,0.0,0.0,0.0,0.0,0.0,0.0,0.0,0.0,0.0,0.0,0.0,0.0,0.0,0.0,0.0,0.0,0.0,0.0,0.0,0.0,0.0,0.0,0.0,0.0,0.0,0.0,0.0,0.0,0.0,0.0,0.0,0.0,0.0,0.0,0.0,0.0,0.0,0.0,0.0,0.0,0.0,0.0,0.0,0.0,0.0,3.9001,3.9326,3.8238,3.5529,3.4785,3.4141,0.0,0.0,0.0,0.0,0.0,0.0,0.0,0.0,0.0,0.0,0.0,0.0,0.0,0.0,0.0,0.0,0.0,0.0,0.0,0.0,0.0,0.0,0.0,0.0,0.0,0.0,0.0,0.0,0.0,0.0,0.0,0.0,0.0,0.0,0.0,0.0,0.0,0.0,0.0,0.0,0.0,0.0,0.0,0.0,0.0,0.0,0.0,0.0,0.0,0.0,0.0,0.0,0.0,0.0,0.0,0.0,0.0,0.0,0.0,0.0,0.0,0.0,0.0,0.0,0.0,0.0,0.0,0.0,0.0,0.0,0.0,0.0,0.0,0.0,0.0,0.0,0.0,0.0,0.0,0.0,0.0,0.0,0.0,0.0,0.0,0.0,0.0,0.0,0.0,0.0,0.0,0.0,0.0,0.0,0.0,0.0,0.0,0.0,0.0,0.0,0.0,0.0,0.0,0.0,0.0,0.0,0.0,0.0,0.0,3.9925,3.9251,3.8028,3.6193,3.5749,3.503,0.0,0.0,0.0,0.0,0.0,0.0,0.0,0.0,0.0,0.0,0.0,0.0,0.0,0.0,0.0,0.0,0.0,0.0,0.0,0.0,0.0,0.0,0.0,0.0,0.0,0.0,0.0,0.0,0.0,0.0,0.0,0.0,0.0,0.0,0.0,0.0,0.0,0.0,0.0,0.0,0.0,0.0,0.0,0.0,0.0,0.0,0.0,0.0,0.0,0.0,0.0,0.0,0.0,0.0,0.0,0.0,0.0,0.0,0.0,0.0,0.0,0.0,0.0,0.0,0.0,0.0,0.0,0.0,0.0,0.0,0.0,0.0,0.0,0.0,0.0,0.0,0.0,0.0,0.0,0.0,0.0,0.0,0.0,0.0,0.0,0.0,0.0,0.0,0.0,0.0,0.0,0.0,0.0,0.0,0.0,0.0,0.0,0.0,0.0,0.0,0.0,0.0,0.0,0.0,0.0,0.0,0.0,0.0,0.0,3.9972,0.0,3.7031,3.6188,3.5928,3.5304,0.0,0.0,0.0,0.0,0.0,0.0,0.0,0.0,0.0,0.0,0.0,0.0,0.0,0.0,0.0,0.0,0.0,0.0,0.0,0.0,0.0,0.0,0.0,0.0,0.0,0.0,0.0,0.0,0.0,0.0,0.0,0.0,0.0,0.0,0.0,0.0,0.0,0.0,0.0,0.0,0.0,0.0,0.0,0.0,0.0,0.0,0.0,0.0,0.0,0.0,0.0,0.0,0.0,0.0,0.0,0.0,0.0,0.0,0.0,0.0,0.0,0.0,0.0,0.0,0.0,0.0,0.0,0.0,0.0,0.0,0.0,0.0,0.0,0.0,0.0,0.0,0.0,0.0,0.0,0.0,0.0,0.0,0.0,0.0,0.0,0.0,0.0,0.0,0.0,0.0,0.0,0.0,0.0,0.0,0.0,0.0,0.0,0.0,0.0,0.0,0.0,0.0,0.0,0.0,0.0,0.0,0.0,0.0,4.1141,3.8801,3.6471,3.5332,3.5235,3.5042,3.4726,0.0,0.0,0.0,0.0,0.0,0.0,0.0,0.0,0.0,0.0,0.0,0.0,0.0,0.0,0.0,0.0,0.0,0.0,0.0,0.0,0.0,0.0,0.0,0.0,0.0,0.0,0.0,0.0,0.0,0.0,0.0,0.0,0.0,0.0,0.0,0.0,0.0,0.0,0.0,0.0,0.0,0.0,0.0,0.0,0.0,0.0,0.0,0.0,0.0,0.0,0.0,0.0,0.0,0.0,0.0,0.0,0.0,0.0,0.0,0.0,0.0,0.0,0.0,0.0,0.0,0.0,0.0,0.0,0.0,0.0,0.0,0.0,0.0,0.0,0.0,0.0,0.0,0.0,0.0,0.0,0.0,0.0,0.0,0.0,0.0,0.0,0.0,0.0,0.0,0.0,0.0,0.0,0.0,0.0,0.0,0.0,0.0,0.0,0.0,0.0,0.0,0.0,0.0,0.0,0.0,0.0,0.0,0.0,0.0,3.756,3.6048,3.5308,3.5427,3.482,3.4698,0.0,0.0,0.0,0.0,0.0,0.0,0.0,0.0,0.0,0.0,0.0,0.0,0.0,0.0,0.0,0.0,0.0,0.0,0.0,0.0,0.0,0.0,0.0,0.0,0.0,0.0,0.0,0.0,0.0,0.0,0.0,0.0,0.0,0.0,0.0,0.0,0.0,0.0,0.0,0.0,0.0,0.0,0.0,0.0,0.0,0.0,0.0,0.0,0.0,0.0,0.0,0.0,0.0,0.0,0.0,0.0,0.0,0.0,0.0,0.0,0.0,0.0,0.0,0.0,0.0,0.0,0.0,0.0,0.0,0.0,0.0,0.0,0.0,0.0,0.0,0.0,0.0,0.0,0.0,0.0,0.0,0.0,0.0,0.0,0.0,0.0,0.0,0.0,0.0,0.0,0.0,0.0,0.0,0.0,0.0,0.0,0.0,0.0,0.0,0.0,0.0,0.0,0.0,0.0,0.0,0.0,0.0,0.0,0.0,3.7457,3.6259,3.5767,3.5881,3.527,3.488,3.4733,0.0,0.0,0.0,0.0,0.0,0.0,0.0,0.0,0.0,0.0,0.0,0.0,0.0,0.0,0.0,0.0,0.0,0.0,0.0,0.0,0.0,0.0,0.0,0.0,0.0,0.0,0.0,0.0,0.0,0.0,0.0,0.0,0.0,0.0,0.0,0.0,0.0,0.0,0.0,0.0,0.0,0.0,0.0,0.0,0.0,0.0,0.0,0.0,0.0,0.0,0.0,0.0,0.0,0.0,0.0,0.0,0.0,0.0,0.0,0.0,0.0,0.0,0.0,0.0,0.0,0.0,0.0,0.0,0.0,0.0,0.0,0.0,0.0,0.0,0.0,0.0,0.0,0.0,0.0,0.0,0.0,0.0,0.0,0.0,0.0,0.0,0.0,0.0,0.0,0.0,0.0,0.0,0.0,0.0,0.0,0.0,0.0,0.0,0.0,0.0,0.0,0.0,0.0,0.0,0.0,0.0,0.0,0.0,3.8187,3.7115,3.6579,3.6555,3.6129,3.5449,0.0,0.0,0.0,0.0,0.0,0.0,0.0,0.0,0.0,0.0,0.0,0.0,0.0,0.0,0.0,0.0,0.0,0.0,0.0,0.0,0.0,0.0,0.0,0.0,0.0,0.0,0.0,0.0,0.0,0.0,0.0,0.0,0.0,0.0,0.0,0.0,0.0,0.0,0.0,0.0,0.0,0.0,0.0,0.0,0.0,0.0,0.0,0.0,0.0,0.0,0.0,0.0,0.0,0.0,0.0,0.0,0.0,0.0,0.0,0.0,0.0,0.0,0.0,0.0,0.0,0.0,0.0,0.0,0.0,0.0,0.0,0.0,0.0,0.0,0.0,0.0,0.0,0.0,0.0,0.0,0.0,0.0,0.0,0.0,0.0,0.0,0.0,0.0,0.0,0.0,0.0,0.0,0.0,0.0,0.0,0.0,0.0,0.0,0.0,0.0,0.0,0.0,0.0,0.0,0.0,0.0,0.0,0.0,0.0,3.8063,3.8548,3.8575,3.8166,3.6597,3.5742,0.0,0.0,0.0,0.0,0.0,0.0,0.0,0.0,0.0,0.0,0.0,0.0,0.0,0.0,0.0,0.0,0.0,0.0,0.0,0.0,0.0,0.0,0.0,0.0,0.0,0.0,0.0,0.0,0.0,0.0,0.0,0.0,0.0,0.0,0.0,0.0,0.0,0.0,0.0,0.0,0.0,0.0,0.0,0.0,0.0,0.0,0.0,0.0,0.0,0.0,0.0,0.0,0.0,0.0,0.0,0.0,0.0,0.0,0.0,0.0,0.0,0.0,0.0,0.0,0.0,0.0,0.0,0.0,0.0,0.0,0.0,0.0,0.0,0.0,0.0,0.0,0.0,0.0,0.0,0.0,0.0,0.0,0.0,0.0,0.0,0.0,0.0,0.0,0.0,0.0,0.0,0.0,0.0,0.0,0.0,0.0,0.0,0.0,0.0,0.0,0.0,0.0,0.0,0.0,0.0,0.0,0.0,0.0,3.827,3.7998,3.9465,4.0138,3.9826,3.7596,3.6365,0.0,0.0,0.0,0.0,0.0,0.0,0.0,0.0,0.0,0.0,0.0,0.0,0.0,0.0,0.0,0.0,0.0,0.0,0.0,0.0,0.0,0.0,0.0,0.0,0.0,0.0,0.0,0.0,0.0,0.0,0.0,0.0,0.0,0.0,0.0,0.0,0.0,0.0,0.0,0.0,0.0,0.0,0.0,0.0,0.0,0.0,0.0,0.0,0.0,0.0,0.0,0.0,0.0,0.0,0.0,0.0,0.0,0.0,0.0,0.0,0.0,0.0,0.0,0.0,0.0,0.0,0.0,0.0,0.0,0.0,0.0,0.0,0.0,0.0,0.0,0.0,0.0,0.0,0.0,0.0,0.0,0.0,0.0,0.0,0.0,0.0,0.0,0.0,0.0,0.0,0.0,0.0,0.0,0.0,0.0,0.0,0.0,0.0,0.0,0.0,0.0,0.0,0.0,0.0,0.0,0.0,0.0,0.0,3.8551,3.819,4.0138,4.1057,4.087,3.8752,3.6991,0.0,0.0,0.0,0.0,0.0,0.0,0.0,0.0,0.0,0.0,0.0,0.0,0.0,0.0,0.0,0.0,0.0,0.0,0.0,0.0,0.0,0.0,0.0,0.0,0.0,0.0,0.0,0.0,0.0,0.0,0.0,0.0,0.0,0.0,0.0,0.0,0.0,0.0,0.0,0.0,0.0,0.0,0.0,0.0,0.0,0.0,0.0,0.0,0.0,0.0,0.0,0.0,0.0,0.0,0.0,0.0,0.0,0.0,0.0,0.0,0.0,0.0,0.0,0.0,0.0,0.0,0.0,0.0,0.0,0.0,0.0,0.0,0.0,0.0,0.0,0.0,0.0,0.0,0.0,0.0,0.0,0.0,0.0,0.0,0.0,0.0,0.0,0.0,0.0,0.0,0.0,0.0,0.0,0.0,0.0,0.0,0.0,0.0,0.0,0.0,0.0,0.0,0.0,0.0,0.0,0.0,0.0,0.0,3.8527,3.9248,4.0523,4.0571,3.9334,3.8178,3.7346,0.0,0.0,0.0,0.0,0.0,0.0,0.0,0.0,0.0,0.0,0.0,0.0,0.0,0.0,0.0,0.0,0.0,0.0,0.0,0.0,0.0,0.0,0.0,0.0,0.0,0.0,0.0,0.0,0.0,0.0,0.0,0.0,0.0,0.0,0.0,0.0,0.0,0.0,0.0,0.0,0.0,0.0,0.0,0.0,0.0,0.0,0.0,0.0,-1.2549,0.0,0.0,0.0,0.0,0.0,0.0,0.0,0.0,0.0,0.0,0.0,0.0,0.0,0.0,0.0,0.0,0.0,0.0,0.0,0.0,0.0,0.0,0.0,0.0,0.0,0.0,0.0,0.0,0.0,0.0,0.0,0.0,0.0,0.0,0.0,0.0,0.0,0.0,0.0,0.0,0.0,0.0,0.0,0.0,0.0,0.0,0.0,0.0,0.0,0.0,0.0,0.0,0.0,0.0,0.0,0.0,0.0,0.0,0.0,3.8503,3.9585,4.0643,4.0432,3.8794,3.7837,3.6691,0.0,0.0,0.0,0.0,0.0,0.0,0.0,0.0,0.0,0.0,0.0,0.0,0.0,0.0,0.0,0.0,0.0,0.0,0.0,0.0,0.0,0.0,0.0,0.0,0.0,0.0,0.0,0.0,0.0,0.0,0.0,0.0,0.0,0.0,0.0,0.0,0.0,0.0,0.0,0.0,0.0,0.0,0.0,0.0,0.0,0.0,0.0,0.0,0.0,0.0,0.0,0.0,0.0,0.0,0.0,0.0,0.0,0.0,0.0,0.0,0.0,0.0,0.0,0.0,0.0,0.0,0.0,0.0,0.0,0.0,0.0,0.0,0.0,0.0,0.0,0.0,0.0,0.0,0.0,0.0,0.0,0.0,0.0,0.0,0.0,0.0,0.0,0.0,0.0,0.0,0.0,0.0,0.0,0.0,0.0,0.0,0.0,0.0,0.0,0.0,0.0,0.0,0.0,0.0,0.0,0.0,0.0,3.7517,3.8467,3.9443,4.035,3.9943,3.7985,3.7117,3.5337,3.253,0.0,0.0,0.0,0.0,0.0,0.0,0.0,0.0,0.0,0.0,0.0,0.0,0.0,0.0,0.0,0.0,0.0,0.0,0.0,0.0,0.0,0.0,0.0,0.0,0.0,0.0,0.0,0.0,0.0,0.0,0.0,0.0,0.0,0.0,0.0,0.0,0.0,0.0,-0.4542,-0.5674,0.0,0.0,0.0,0.0,0.0,0.0,0.0,0.0,-1.4788,0.0,0.0,0.0,0.0,0.0,0.0,0.0,0.0,0.0,0.0,0.0,0.0,0.0,0.0,0.0,0.0,0.0,0.0,0.0,0.0,0.0,0.0,0.0,0.0,0.0,0.0,0.0,0.0,0.0,0.0,0.0,0.0,0.0,0.0,0.0,0.0,0.0,0.0,0.0,0.0,0.0,0.0,0.0,0.0,0.0,0.0,0.0,0.0,0.0,0.0,0.0,0.0,0.0,0.0,0.0,0.0,3.7709,3.7902,3.8233,3.8778,3.9007,3.7626,3.482,3.4431,3.2855,2.9941,0.0,0.0,0.0,0.0,0.0,0.0,0.0,0.0,0.0,0.0,0.0,0.0,0.0,0.0,0.0,0.0,0.0,0.0,0.0,0.0,0.0,0.0,0.0,0.0,0.0,0.0,0.0,0.0,0.0,0.0,0.0,0.0,0.0,0.0,0.0,0.0,0.0,0.0,0.0,-0.7723,-0.8711,0.0,0.0,0.0,0.0,0.0,0.0,0.0,0.0,-1.6156,0.0,0.0,0.0,0.0,0.0,0.0,0.0,0.0,0.0,0.0,0.0,0.0,0.0,0.0,0.0,0.0,0.0,0.0,0.0,0.0,0.0,0.0,0.0,0.0,0.0,0.0,0.0,0.0,0.0,0.0,0.0,0.0,0.0,0.0,0.0,0.0,0.0,0.0,0.0,0.0,0.0,0.0,0.0,0.0,0.0,0.0,0.0,0.0,0.0,0.0,0.0,0.0,0.0,0.0,0.0,3.6918,3.6824,3.7133,3.7701,3.7506,3.6295,3.3948,3.3331,3.1875,0.0,0.0,0.0,0.0,0.0,0.0,0.0,0.0,0.0,0.0,0.0,0.0,0.0,0.0,0.0,0.0,0.0,0.0,0.0,0.0,0.0,0.0,0.0,0.0,0.0,0.0,0.0,0.0,0.0,0.0,0.0,0.0,0.0,0.0,0.0,0.0,0.0,0.0,0.0,0.0,-0.9298,-1.0102,-1.2282,0.0,0.0,0.0,0.0,0.0,0.0,-1.6593,-1.7796,0.0,0.0,0.0,0.0,0.0,0.0,0.0,0.0,0.0,0.0,0.0,0.0,0.0,0.0,0.0,0.0,0.0,0.0,0.0,0.0,0.0,0.0,0.0,0.0,0.0,0.0,0.0,0.0,0.0,0.0,0.0,0.0,0.0,0.0,0.0,0.0,0.0,0.0,0.0,0.0,0.0,0.0,0.0,0.0,0.0,0.0,0.0,0.0,0.0,0.0,0.0,0.0,0.0,0.0,0.0,3.6185,3.5843,3.5972,3.6396,3.6051,3.4964,3.334,3.2441,3.1003,0.0,0.0,0.0,0.0,0.0,0.0,0.0,0.0,0.0,0.0,0.0,0.0,0.0,0.0,0.0,0.0,0.0,0.0,0.0,0.0,0.0,0.0,0.0,0.0,0.0,0.0,0.0,0.0,0.0,0.0,0.0,0.0,0.0,0.0,0.0,0.0,0.0,0.0,0.0,0.0,0.0,-1.1298,-1.2652,-1.3294,0.0,0.0,0.0,0.0,-1.6233,-1.7987,0.0,0.0,0.0,0.0,0.0,0.0,0.0,0.0,0.0,0.0,0.0,0.0,0.0,0.0,0.0,0.0,0.0,0.0,0.0,0.0,0.0,0.0,0.0,0.0,0.0,0.0,0.0,0.0,0.0,0.0,0.0,0.0,0.0,0.0,0.0,0.0,0.0,0.0,0.0,0.0,0.0,0.0,0.0,0.0,0.0,0.0,0.0,0.0,0.0,0.0,0.0,0.0,0.0,0.0,0.0,0.0,3.6449,3.5957,3.552,3.5067,3.4467,3.3359,3.1744,3.0612,2.9675,0.0,0.0,0.0,0.0,0.0,0.0,0.0,0.0,0.0,0.0,0.0,0.0,0.0,0.0,0.0,0.0,0.0,0.0,0.0,0.0,0.0,0.0,0.0,0.0,0.0,0.0,0.0,0.0,0.0,0.0,0.0,0.0,0.0,0.0,0.0,0.0,0.0,0.0,0.0,0.0,0.0,-1.2726,-1.2808,-1.4043,-1.4837,0.0,0.0,-1.774,-1.8522,-1.9358,0.0,0.0,0.0,0.0,0.0,0.0,0.0,0.0,0.0,0.0,0.0,0.0,0.0,0.0,0.0,0.0,0.0,0.0,0.0,0.0,0.0,0.0,0.0,0.0,0.0,0.0,0.0,0.0,0.0,0.0,0.0,0.0,0.0,0.0,0.0,0.0,0.0,0.0,0.0,0.0,0.0,0.0,0.0,0.0,0.0,0.0,0.0,0.0,0.0,0.0,0.0,0.0,0.0,0.0,0.0,3.5147,3.5157,3.488,3.4247,3.3505,3.3019,3.2256,3.1377,2.9349,2.8541,0.0,0.0,0.0,0.0,0.0,0.0,0.0,0.0,0.0,0.0,0.0,0.0,0.0,0.0,0.0,0.0,0.0,0.0,0.0,0.0,0.0,0.0,0.0,0.0,0.0,0.0,0.0,0.0,0.0,0.0,0.0,0.0,0.0,0.0,0.0,0.0,0.0,0.0,0.0,0.0,0.0,0.0,-1.39,-1.4922,0.0,0.0,0.0,-1.9041,-1.9277,0.0,0.0,0.0,0.0,0.0,0.0,0.0,0.0,0.0,0.0,0.0,0.0,0.0,0.0,0.0,0.0,0.0,0.0,0.0,0.0,0.0,0.0,0.0,0.0,0.0,0.0,0.0,0.0,0.0,0.0,0.0,0.0,0.0,0.0,0.0,0.0,0.0,0.0,0.0,0.0,0.0,0.0,0.0,0.0,0.0,0.0,0.0,0.0,0.0,0.0,0.0,0.0,0.0,0.0,0.0,0.0,0.0,3.3818,3.374,3.3418,3.253,3.1782,3.1267,3.0954,2.8497,0.0,0.0,0.0,0.0,0.0,0.0,0.0,0.0,0.0,0.0,0.0,0.0,0.0,0.0,0.0,0.0,0.0,0.0,0.0,0.0,0.0,0.0,0.0,0.0,0.0,0.0,0.0,-0.0619,0.0,0.0,0.0,0.0,0.0,0.0,0.0,0.0,0.0,0.0,0.0,0.0,0.0,0.0,-1.445,-1.53,-1.6358,-1.7272,0.0,0.0,-2.0293,-2.036,-2.1356,-2.2147,0.0,0.0,0.0,0.0,0.0,0.0,0.0,0.0,0.0,0.0,0.0,0.0,0.0,0.0,0.0,0.0,0.0,0.0,0.0,0.0,0.0,0.0,0.0,0.0,0.0,0.0,0.0,0.0,0.0,0.0,0.0,0.0,0.0,0.0,0.0,0.0,0.0,0.0,0.0,0.0,0.0,0.0,0.0,0.0,0.0,0.0,0.0,0.0,0.0,0.0,0.0,0.0,0.0,0.0,3.4469,3.309,3.3274,3.3292,3.2785,3.0972,2.9935,2.9917,2.8,2.6619,0.0,0.0,0.0,0.0,0.0,0.0,0.0,0.0,0.0,0.0,0.0,0.0,0.0,0.0,0.0,0.0,0.0,0.0,0.0,0.0,0.0,0.0,0.0,0.0,0.0,0.0,0.0,0.0,0.0,0.0,0.0,0.0,0.0,0.0,0.0,0.0,0.0,0.0,0.0,0.0,0.0,-1.5691,-1.6964,-1.8463,-1.9399,0.0,-2.082,-2.1718,-2.2332,-2.2425,-2.2506,-2.3036,0.0,0.0,0.0,0.0,0.0,0.0,0.0,0.0,0.0,0.0,0.0,0.0,0.0,0.0,0.0,0.0,0.0,0.0,0.0,0.0,0.0,0.0,0.0,0.0,0.0,0.0,0.0,0.0,0.0,0.0,0.0,0.0,0.0,0.0,0.0,0.0,0.0,0.0,0.0,0.0,0.0,0.0,0.0,0.0,0.0,0.0,0.0,0.0,0.0,0.0,0.0,0.0,0.0,3.3459,3.2706,3.3396,3.3019,3.1598,3.0825,2.9917,2.8871,2.6874,2.5786,0.0,0.0,0.0,0.0,0.0,0.0,0.0,0.0,0.0,0.0,0.0,0.0,0.0,0.0,0.0,0.0,0.0,0.0,0.0,0.0,0.0,0.0,0.0,0.0,0.0,0.0,0.0,0.0,-0.3927,-0.447,-0.5286,0.0,0.0,0.0,0.0,0.0,0.0,0.0,0.0,0.0,0.0,-1.7507,-1.8571,-1.9461,0.0,0.0,-2.1691,-2.2116,-2.2103,-2.2485,-2.2705,-2.2485,-2.2763,0.0,0.0,0.0,0.0,0.0,0.0,0.0,0.0,0.0,0.0,0.0,0.0,0.0,0.0,0.0,0.0,0.0,0.0,0.0,0.0,0.0,0.0,0.0,0.0,0.0,0.0,0.0,0.0,0.0,0.0,0.0,0.0,0.0,0.0,0.0,0.0,0.0,0.0,0.0,0.0,0.0,0.0,0.0,0.0,0.0,0.0,0.0,0.0,0.0,0.0,0.0,0.0,3.2571,3.1516,3.2642,3.2365,3.0419,2.977,2.8986,2.7668,2.6036,2.4948,0.0,0.0,0.0,0.0,0.0,0.0,0.0,0.0,0.0,0.0,0.0,0.0,0.0,0.0,0.0,0.0,0.0,0.0,0.0,0.0,0.0,0.0,0.0,0.0,0.0,0.0,0.0,0.0,-0.4657,-0.5468,-0.6783,0.0,0.0,0.0,0.0,0.0,0.0,0.0,0.0,0.0,0.0,-1.8508,-2.004,-2.0497,-2.1132,-2.1907,-2.2217,-2.2306,-2.2225,-2.2597,-2.2961,-2.314,0.0,0.0,0.0,0.0,0.0,0.0,0.0,0.0,0.0,0.0,0.0,0.0,0.0,0.0,0.0,0.0,0.0,0.0,0.0,0.0,0.0,0.0,0.0,0.0,0.0,0.0,0.0,4.3329,0.0,0.0,4.3329,0.0,0.0,0.0,0.0,0.0,0.0,0.0,0.0,0.0,0.0,0.0,0.0,0.0,0.0,0.0,0.0,0.0,0.0,0.0,0.0,0.0,0.0,3.2092,2.9468,3.1015,3.1065,2.9413,2.7567,2.68,2.6666,2.5577,2.3912,2.1542,0.0,0.0,0.0,0.0,0.0,0.0,0.0,0.0,0.0,0.0,0.0,0.0,0.0,0.0,0.0,0.0,0.0,0.0,0.0,0.0,0.0,0.0,0.0,0.0,0.0,0.0,-0.4013,-0.5419,-0.684,0.0,0.0,0.0,0.0,0.0,0.0,0.0,0.0,0.0,-1.6511,-1.7451,-1.8801,-2.1269,-2.166,-2.181,-2.21,-2.2028,-2.2231,-2.3065,-2.2768,-2.3185,0.0,0.0,0.0,0.0,0.0,0.0,0.0,0.0,0.0,0.0,0.0,0.0,0.0,0.0,0.0,0.0,0.0,0.0,0.0,0.0,0.0,0.0,0.0,0.0,0.0,0.0,0.0,4.401,4.401,0.0,0.0,0.0,0.0,0.0,0.0,0.0,0.0,0.0,0.0,0.0,3.8304,3.7453,0.0,0.0,0.0,0.0,0.0,0.0,0.0,0.0,0.0,0.0,0.0,0.0,3.0119,2.903,3.0139,2.9872,2.8174,2.7741,2.7183,2.6235,2.4833,2.2862,2.0364,0.0,0.0,0.0,0.0,0.0,0.0,0.0,0.0,0.0,0.0,0.0,0.0,0.0,0.0,0.0,0.0,0.0,0.0,0.0,0.0,0.0,0.0,0.0,0.0,0.0,-0.4281,0.0,0.0,0.0,0.0,0.0,0.0,0.0,0.0,0.0,0.0,-1.4381,-1.6175,-1.7224,-1.9038,-2.0625,-2.1609,-2.1647,-2.1773,0.0,0.0,0.0,0.0,0.0,0.0,0.0,0.0,0.0,0.0,0.0,0.0,0.0,0.0,-3.1231,-3.1584,-3.2213,-3.2725,-3.3291,0.0,0.0,0.0,0.0,0.0,0.0,0.0,0.0,0.0,0.0,0.0,0.0,0.0,0.0,4.4414,0.0,4.4094,0.0,0.0,0.0,0.0,0.0,0.0,0.0,0.0,3.9372,3.8964,3.8479,3.7153,3.616,0.0,3.5135,3.3879,0.0,0.0,0.0,0.0,0.0,0.0,0.0,0.0,2.9094,2.8079,2.9241,2.9075,2.7336,2.6831,2.6114,2.5144,2.3145,2.1245,1.9498,1.8186,1.6848,0.0,0.0,0.0,0.0,0.0,0.0,0.0,0.0,0.0,0.0,0.0,0.0,0.0,0.0,0.0,0.0,0.0,0.0,0.0,0.0,0.0,0.0,0.0,-0.588,0.0,0.0,0.0,0.0,0.0,0.0,0.0,0.0,0.0,-1.2946,-1.5194,-1.7005,-1.7569,-1.9565,-2.1096,-2.148,0.0,0.0,0.0,0.0,0.0,0.0,0.0,-2.2566,-2.3407,-2.4948,-2.6873,-2.9653,-3.1817,-3.2961,-3.2115,0.0,0.0,-3.2711,-3.3105,-3.3744,-3.4139,-3.4007,-3.3989,-3.4515,-3.4396,-3.4377,0.0,0.0,0.0,0.0,0.0,0.0,0.0,0.0,4.6109,4.4926,0.0,4.416,0.0,0.0,0.0,0.0,4.0346,4.1364,0.0,0.0,4.142,4.1198,3.9695,3.8222,3.6857,3.5496,3.4539,3.357,3.2727,3.4253,0.0,0.0,0.0,0.0,0.0,0.0,2.8993,2.668,2.8158,2.8355,2.6608,2.4748,2.3612,2.3469,2.0584,1.8998,1.8831,1.6855,1.5639,1.5621,1.4205,0.0,0.0,0.0,0.0,0.0,0.0,0.0,0.0,0.0,0.0,0.0,0.0,0.0,0.0,0.0,0.0,0.0,0.0,0.0,0.0,-0.6991,0.0,0.0,0.0,0.0,0.0,0.0,0.0,0.0,0.0,-1.3464,-1.3284,-1.4925,-1.6545,-1.7658,0.0,0.0,0.0,0.0,-2.1649,-2.1632,-2.1556,-2.171,-2.1991,-2.2073,-2.3134,-2.6659,0.0,0.0,-3.3568,-3.3679,-3.3495,-3.3731,-3.4416,-3.4697,-3.3578,-3.3668,-3.3916,-3.4408,-3.4381,-3.4325,-3.4362,-3.4667,-3.4605,5.3152,0.0,0.0,0.0,0.0,4.8296,4.7874,4.7954,4.7331,4.6556,4.5785,4.6145,0.0,0.0,0.0,0.0,0.0,0.0,4.0881,4.1078,3.9639,3.8766,3.8477,3.7175,3.6173,3.5369,3.5098,3.498,3.5067,3.5558,3.4393,3.1499,0.0,0.0,0.0,0.0,2.7383,2.7146,2.7461,2.7347,2.6511,2.5119,2.3159,2.0934,2.0054,1.902,1.784,1.6205,1.4968,1.427,1.2764,0.0,0.0,0.0,0.0,0.0,0.0,0.0,0.0,0.0,0.0,0.0,0.0,0.0,0.0,0.0,0.0,0.0,0.0,0.0,-0.5109,-0.7209,-0.863,0.0,0.0,0.0,0.0,0.0,0.0,0.0,0.0,0.0,-1.5059,-1.6176,-1.7612,0.0,0.0,-2.0953,-2.1146,-2.1332,-2.1468,-2.1693,-2.1693,0.0,-2.1961,-2.2263,-2.3117,-2.5056,-2.8458,-3.1497,-3.3621,-3.47,-3.5357,-3.5484,-3.5632,-3.5834,-3.5815,-3.5559,-3.5539,-3.5668,-3.5889,-3.611,-3.6128,-3.6274,-3.6531,5.463,5.3523,5.1747,5.084,5.0377,4.9138,4.878,4.8834,4.8263,4.7425,4.6455,4.681,4.6079,4.4683,4.3899,0.0,0.0,0.0,4.1743,4.2054,3.9755,3.8305,3.7867,3.6434,3.5707,3.5438,3.5418,3.5666,3.6101,3.5102,3.3713,3.1976,0.0,2.8993,2.8112,2.7377,2.6935,2.6869,2.718,2.6835,2.5809,2.3767,2.1464,1.8916,1.8926,1.8319,1.7426,1.5871,1.4694,1.4176,1.24,1.0841,0.0,0.0,0.0,0.0,0.0,0.0,0.0,0.0,0.0,0.0,0.0,-0.0278,-0.1231,0.0,0.0,0.0,-0.6625,-0.7013,-0.6457,-0.8651,0.0,0.0,0.0,0.0,0.0,0.0,0.0,-1.3287,-1.4745,-1.6009,-1.6423,-1.759,-1.872,-1.9749,-2.0749,-2.1408,-2.1319,0.0,-2.1645,-2.1634,-2.1735,-2.1925,-2.1969,-2.2443,-2.3497,-2.5999,-2.9873,-3.3023,-3.4251,-3.5301,-3.6034,-3.6201,-3.6201,-3.6292,-3.6549,-3.6384,-3.6329,-3.6622,-3.6622,-3.6622,-3.6806,-3.7026,-3.7191,5.51,5.4589,5.2018,5.0452,4.9749,4.9699,4.947,4.906,4.8754,4.7618,4.5848,4.6557,4.549,4.331,4.2995,0.0,4.4416,4.3656,4.3194,4.2938,4.0901,3.9167,3.7616,3.6199,3.5459,3.5418,3.5418,3.5541,3.5807,3.3493,3.2401,3.26,3.2237,3.0281,2.6777,2.7296,2.7209,2.613,2.687,2.6314,2.4301,2.1314,1.9067,1.7426,1.7426,1.7273,1.7121,1.5718,1.479,1.4467,1.2216,1.0565,0.9633,0.0,0.0,0.0,0.0,0.0,0.0,0.0,0.0,0.0,0.0,0.0,0.0,0.0,0.0,-0.7234,-1.0011,0.0,-0.9446,-1.0665,0.0,0.0,0.0,-1.1992,-1.3721,-1.3928,-1.3928,-1.4047,0.0,0.0,-1.7741,-1.9016,-1.991,-2.0283,-2.1306,-2.1944,-2.1723,-2.1832,-2.1901,-2.1862,-2.2039,-2.2228,-2.2262,-2.2936,-2.4794,-2.852,-3.1893,-3.4285,-3.5312,-3.5623,-3.5809,-3.6274,-3.6274,-3.6347,-3.6366,-3.6421,-3.6567,-3.7374,-3.6861,-3.6402,-3.6751,-3.6897,-3.6971,5.2659,5.1737,5.0652,5.0266,5.05,5.0133,4.9363,4.8408,4.8592,4.8101,4.6994,4.6901,4.6494,4.5637,4.4582,4.4257,4.4485,4.2369,4.1138,4.0502,3.9064,3.7627,3.656,3.606,3.5769,3.5438,3.5418,3.5146,3.4536,3.3956,3.2298,3.0012,2.9795,2.8888,2.7325,2.6268,2.6026,2.6444,2.5243,2.3404,2.1003,2.0263,1.9067,1.7426,1.7426,1.6806,1.5565,1.4022,1.2481,1.1244,0.9336,0.8162,0.7867,0.7482,0.0,0.0,0.0,0.0,0.0,0.0,0.0,0.0,0.0,-0.333,-0.475,0.0,-0.5611,0.0,-1.0649,-1.1295,-0.9725,-1.2088,0.0,0.0,-1.2821,-1.3381,-1.3896,-1.414,-1.4488,-1.5203,-1.6721,-1.8083,-1.9238,-2.0542,-2.1462,-2.1822,-2.1795,-2.1799,-2.1685,-2.2019,-2.231,-2.2248,-2.2571,-2.2863,-2.3027,-2.5304,-2.7864,-3.0345,-3.2877,-3.4751,-3.5139,-3.5876,-3.6545,-3.6714,-3.6952,-3.7228,-3.7484,-3.7356,-3.7448,-3.8089,-3.7466,-3.6714,-3.6824,-3.7081,-3.7662,5.1402,5.0354,4.9487,4.919,4.9301,4.9172,4.876,4.8082,4.8074,4.7798,4.7145,4.681,4.6334,4.5628,4.489,4.4411,4.4023,4.2138,4.0745,3.9702,3.8561,3.7245,3.5811,3.5811,3.5292,3.4528,3.4528,3.3875,3.2815,3.2319,3.1024,2.9117,2.8345,2.7587,2.6899,2.5703,2.4952,2.4767,2.2499,2.0927,1.979,1.9067,1.8079,1.7002,1.6391,1.5552,1.4332,1.2237,1.0739,0.9838,0.8191,0.7243,0.7145,0.6387,0.5827,0.0,0.0,0.0,0.0,0.0,0.0,0.0,0.0,0.0,0.0,0.0,-0.7394,-0.8943,-1.1471,-1.2395,-1.0711,-1.2809,-1.3881,-1.3107,-1.3696,-1.4196,-1.4359,-1.4993,-1.5633,-1.6159,-1.795,-1.9435,-2.0036,-2.1372,-2.2264,-2.238,-2.2227,-2.2137,-2.2174,-2.2485,-2.2692,-2.2717,-2.3016,-2.3273,-2.3369,-2.6918,-2.9716,-3.0361,-3.284,-3.5122,-3.5291,-3.6066,-3.6794,-3.7118,-3.7283,-3.7484,-3.7704,-3.7594,-3.7613,-3.7851,-3.7576,-3.7209,-3.7319,-3.7393,-3.781,5.036,4.9525,4.8434,4.7703,4.7269,4.7677,4.7785,4.7593,4.7344,4.6986,4.6573,4.6395,4.5577,4.4418,4.4186,4.3615,4.2951,4.1852,4.0569,3.9377,3.843,3.7067,3.5418,3.517,3.4528,3.3379,3.3253,3.2346,3.1065,2.9917,2.9117,2.8821,2.7419,2.6368,2.5786,2.5145,2.3933,2.2028,1.9872,1.8864,1.9254,1.7888,1.6787,1.6003,1.5095,1.4059,1.3039,1.0731,0.9441,0.9152,0.7856,0.6998,0.7019,0.5421,0.4648,0.0,0.1653,0.0,0.0,0.0,0.0,0.0,0.0,0.0,0.0,-0.9002,-0.9873,-0.9908,-1.2618,-1.3877,-1.2308,-1.3305,-1.4164,-1.4464,-1.4497,-1.4627,-1.5225,-1.6195,-1.6959,-1.7264,-1.9077,-2.0447,-2.077,-2.1707,-2.2404,-2.2645,-2.2705,-2.2834,-2.2754,-2.2911,-2.3056,-2.3092,-2.3321,-2.3721,-2.4831,-2.8189,-3.0562,-3.0159,-3.2715,-3.5169,-3.5681,-3.6462,-3.704,-3.7349,-3.7576,-3.7631,-3.7594,-3.7613,-3.7594,-3.7704,-3.7649,-3.7668,-3.7778,-3.7613,-3.7601,4.802,4.778,4.7104,4.6621,4.6301,4.6409,4.6356,4.6383,4.6326,4.5836,4.514,4.4877,4.4457,4.3662,4.1779,4.0781,4.0611,3.8716,3.7549,3.7025,3.6588,3.6034,3.5294,3.4278,3.3631,3.3379,3.2218,3.0936,2.9657,2.9395,2.8474,2.6771,2.6393,2.5457,2.3856,0.0,0.0,0.0,1.8975,1.8132,1.7035,1.5995,1.5067,1.4129,1.3842,0.0,1.0449,0.9723,0.8863,0.7566,0.7131,0.0,0.0,0.0,0.0,0.0,0.0,0.0,0.0,0.0,0.0,0.0,-0.7225,-0.8811,-0.8997,-1.1449,-1.2706,-1.1925,-1.3348,-1.4372,-1.4438,-1.4613,-1.4789,-1.4854,-1.4862,-1.5353,-1.6339,-1.6653,-1.7559,-1.9531,-2.0135,-2.0827,-2.2082,-2.2421,-2.2681,-2.2935,-2.3164,-2.3297,-2.3297,-2.3333,-2.3381,-2.3393,-2.3587,-2.5015,-2.7877,-2.8842,-3.0825,-3.3379,-3.4759,-3.5734,-3.6498,-3.7167,-3.7732,-3.7906,-3.8181,-3.8401,-3.8401,-3.8401,-3.8365,-3.8401,-3.8401,-3.8236,-3.7668,-3.7484,-3.827,4.7416,4.6889,4.6485,4.6139,0.0,4.5688,4.5609,4.5635,4.5896,4.5428,4.4284,4.4143,4.3152,4.1345,4.0199,3.9288,3.8786,3.7493,3.6796,3.6495,3.5397,3.4777,3.4403,3.298,3.1963,3.1322,3.0678,2.9657,2.8362,2.8246,2.7849,2.6918,2.6012,2.507,2.4233,2.2266,2.041,1.8745,1.7979,1.733,1.6787,1.5703,1.462,1.3712,1.2386,0.0,0.0,0.0,0.0,0.0,0.0,0.0,0.0,0.4839,0.0,0.3111,-0.0,-0.2051,-0.2519,-0.3563,-0.4329,-0.4535,-0.769,-1.0334,-1.1677,-1.3428,-1.4199,-1.3755,-1.4239,-1.4765,-1.4944,-1.4968,-1.4968,-1.4968,-1.4968,-1.5429,-1.6653,-1.7255,-1.8511,-2.0288,-2.1231,-2.193,-2.2814,-2.2838,-2.2959,-2.32,-2.3357,-2.3502,-2.3623,-2.3647,-2.3647,-2.3647,-2.5293,-2.6702,-2.8089,-3.0483,-3.1852,-3.4075,-3.5434,-3.6403,-3.7048,-3.774,-3.8328,-3.8346,-3.8511,-3.864,-3.864,-3.864,-3.864,-3.864,-3.864,-3.8548,-3.8089,-3.8016,-3.8676,4.726,4.635,4.6112,4.5901,4.5795,4.5395,4.5178,4.5062,0.0,0.0,0.0,4.3333,4.1818,3.9377,3.9117,3.8529,3.7557,3.7004,3.6635,3.6353,3.4689,3.3631,3.3379,3.1707,3.0419,2.9265,2.902,2.8362,2.72,2.6997,2.7019,2.7165,2.5331,2.4396,2.4037,2.1038,1.918,1.8518,1.7115,1.6517,1.6688,1.5253,1.401,1.2845,1.0767,0.9197,0.83,0.7421,0.699,0.699,0.699,0.6857,0.6593,0.3809,0.1909,0.1179,-0.1623,-0.3431,-0.3803,-0.4266,-0.4762,-0.5327,-0.8283,-1.1293,-1.4247,-1.4797,-1.4968,-1.4968,-1.4968,-1.4968,-1.4968,-1.4968,-1.4968,-1.4968,-1.5122,-1.5744,-1.7005,-1.8227,-1.9527,-2.0966,-2.2095,-2.2826,-2.3068,-2.3116,-2.3212,-2.3454,-2.3538,-2.3587,-2.3792,-2.3828,-2.3816,-2.3976,-2.6017,-2.8004,-2.8417,-3.087,-3.3748,-3.4289,-3.5748,-3.6938,-3.7535,-3.8086,-3.8621,-3.8603,-3.864,-3.864,-3.864,-3.864,-3.864,-3.864,-3.864,-3.864,-3.864,-3.878,-3.9688,4.6455,4.6139,4.6007,4.5688,4.5287,4.518,4.4941,4.4522,4.4257,4.3689,4.295,4.178,4.0704,3.9785,3.872,3.8029,3.7579,3.6881,3.6343,3.5892,3.4298,3.3379,3.3253,3.0807,2.9526,2.9265,2.8114,2.7467,2.7099,2.6118,2.5721,2.5549,2.4039,2.2263,2.0635,1.9057,1.7996,1.7635,1.6684,1.5632,1.4332,1.3459,1.1852,0.9496,0.8925,0.8324,0.728,0.714,0.699,0.699,0.699,0.647,0.5104,0.2855,0.1062,-0.031,-0.2796,-0.4204,-0.4374,-0.4686,-0.6088,-0.8905,-0.9682,-1.1374,-1.4589,-1.4935,-1.4968,-1.4968,-1.4968,-1.4968,-1.4968,-1.4968,-1.4976,-1.513,-1.5888,-1.7176,-1.8414,-1.9664,-2.1,-2.2484,-2.2829,-2.3092,-2.3333,-2.3393,-2.349,-2.3719,-2.3744,-2.3792,-2.3852,-2.384,-2.384,-2.4,-2.5714,-2.7861,-2.974,-3.1512,-3.4037,-3.6862,-3.6902,-3.7238,-3.814,-3.8426,-3.864,-3.864,-3.864,-3.864,-3.864,-3.864,-3.864,-3.864,-3.864,-3.864,-3.864,-3.9726,-4.1249,4.6139,4.6007,4.5715,4.5395,4.5206,4.4597,4.3866,4.3026,4.2107,4.1969,4.1971,4.0991,3.9863,3.8931,3.7955,3.6967,3.606,3.5356,3.4528,3.3631,3.1963,3.1194,3.0936,2.9151,2.8212,2.8377,2.7547,2.6972,2.6482,2.5781,2.5097,2.4579,2.2847,2.0889,1.8916,1.8025,1.7111,1.6024,1.5707,1.5152,1.439,1.2292,1.0583,0.9387,0.8483,0.7733,0.728,0.728,0.728,0.728,0.6366,0.5638,0.4775,0.2312,0.0155,-0.094,-0.2982,-0.4241,-0.4711,-0.4865,-0.642,-0.9682,-0.9992,-1.1386,-1.4806,-1.4968,-1.4968,-1.4968,-1.4968,-1.4968,-1.4968,-1.5057,-1.5114,-1.5114,-1.6277,-1.7629,-1.8952,-2.0216,-2.1556,-2.29,-2.3261,-2.3369,-2.3635,-2.3659,-2.3695,-2.3828,-2.384,-2.3888,-2.4033,-2.4057,-2.4368,-2.5481,-2.7051,-2.9152,-3.1461,-3.3362,-3.5364,-3.7467,-3.7557,-3.7806,-3.8463,-3.864,-3.864,-3.864,-3.864,-3.864,-3.864,-3.864,-3.864,-3.864,-3.864,-3.864,-3.8798,-4.0471,-4.2596,4.5981,4.6115,4.558,4.5227,4.4921,4.3487,4.2389,4.1425,4.0186,4.0082,4.091,3.9977,3.8896,3.7797,3.7047,3.5871,3.4652,3.3981,3.295,3.1598,3.0048,2.9265,2.9151,2.793,2.732,2.7134,2.6962,2.633,2.548,2.4792,2.3998,2.2885,2.121,1.9359,1.7407,1.6959,1.6024,1.4483,1.4014,1.3868,1.3868,1.1244,0.9853,0.9387,0.8141,0.7525,0.7525,0.7525,0.7365,0.6896,0.5642,0.4701,0.376,0.1254,-0.0785,-0.2045,-0.3308,-0.4419,-0.4902,-0.506,-0.6473,-0.9761,-1.0074,-1.1485,-1.4617,-1.509,-1.5065,-1.5033,-1.5041,-1.5049,-1.5114,-1.522,-1.5458,-1.5772,-1.6669,-1.8188,-1.9666,-2.0776,-2.1805,-2.3162,-2.3538,-2.3623,-2.3792,-2.384,-2.384,-2.384,-2.3888,-2.4021,-2.419,-2.4438,-2.5613,-2.7257,-2.8819,-3.0559,-3.2922,-3.4987,-3.643,-3.7454,-3.7667,-3.7986,-3.8481,-3.864,-3.864,-3.864,-3.864,-3.864,-3.864,-3.864,-3.864,-3.864,-3.864,-3.878,-4.0002,-4.1848,-4.3966,4.6143,4.6408,4.5972,4.5348,4.4277,4.2066,4.0883,4.0594,3.9009,3.8891,3.955,3.8319,3.7505,3.6918,3.6373,3.5269,3.3942,3.3258,3.2319,3.123,2.9917,2.9265,2.907,2.8057,2.6861,2.581,2.5878,2.5171,2.3768,2.2645,2.1149,1.9327,1.8471,1.7245,1.5403,1.525,1.433,1.279,1.1244,1.0469,1.0469,1.0164,0.9231,0.7833,0.7681,0.7525,0.7525,0.7525,0.674,0.5327,0.5016,0.3448,0.0471,-0.0784,-0.2048,-0.3986,-0.4626,-0.5125,-0.5177,-0.5185,-0.6788,-0.9843,-1.0473,-1.1911,-1.4963,-1.5455,-1.539,-1.5268,-1.522,-1.5277,-1.5439,-1.548,-1.5956,-1.6889,-1.725,-1.8413,-2.0665,-2.1342,-2.2077,-2.362,-2.378,-2.3816,-2.384,-2.3864,-2.3864,-2.3888,-2.4082,-2.4226,-2.4637,-2.5766,-2.7608,-2.9377,-3.0585,-3.1822,-3.3947,-3.5639,-3.6975,-3.8091,-3.7845,-3.8004,-3.8322,-3.864,-3.864,-3.864,-3.864,-3.864,-3.864,-3.864,-3.864,-3.864,-3.8956,-3.955,-4.2136,-4.3966,-4.5512,4.5998,4.5494,4.5294,4.4195,4.2589,4.1237,4.0263,3.9521,3.8869,3.8619,3.8516,3.7441,3.7107,3.7107,3.6111,3.4527,3.2467,3.1462,3.054,2.9475,2.8693,2.7987,2.7227,2.6817,2.5857,2.4593,2.4579,2.3888,2.2593,2.1117,1.9596,1.8319,1.7102,1.6024,1.4944,1.4022,1.2635,1.1089,1.0314,0.9542,0.8608,0.8457,0.8145,0.7525,0.7525,0.7525,0.7373,0.6627,0.5701,0.491,0.3188,0.1281,-0.016,-0.1602,-0.2891,-0.4035,-0.4844,-0.5175,-0.5202,-0.6169,-0.7782,-1.0196,-1.132,-1.2929,-1.5194,-1.5512,-1.5512,-1.5545,-1.5463,-1.5439,-1.552,-1.561,-1.598,-1.663,-1.7824,-1.9384,-2.044,-2.1905,-2.3093,-2.3668,-2.384,-2.384,-2.3876,-2.3985,-2.4069,-2.4106,-2.4299,-2.4833,-2.5969,-2.7099,-2.8743,-3.145,-3.2707,-3.3839,-3.5451,-3.648,-3.7365,-3.795,-3.8163,-3.8322,-3.8481,-3.864,-3.864,-3.864,-3.864,-3.864,-3.864,-3.864,-3.864,-3.8798,-3.9726,-4.0938,-4.3966,-4.5041,-4.5959,4.5304,4.4627,4.4122,4.2999,4.1342,4.0751,3.9712,3.8641,3.8641,3.8239,3.7713,3.698,3.6514,3.615,3.5132,3.3388,3.1336,3.0104,2.9158,2.8277,2.7579,2.6725,2.5959,2.5498,2.463,2.3497,2.3287,2.2568,2.1302,1.9369,1.8016,1.7255,1.5565,1.433,1.3553,1.2326,1.094,0.9542,0.9387,0.8778,0.7715,0.7562,0.7562,0.7562,0.7562,0.7413,0.6806,0.5743,0.4488,0.3527,0.1132,-0.0488,-0.1138,-0.2764,-0.3909,-0.425,-0.4915,-0.5254,-0.5251,-0.688,-0.8666,-1.0292,-1.2081,-1.3864,-1.5176,-1.5658,-1.5715,-1.5813,-1.5731,-1.5666,-1.5675,-1.5772,-1.6162,-1.682,-1.856,-1.9612,-2.0909,-2.2545,-2.3348,-2.368,-2.384,-2.3876,-2.3961,-2.4118,-2.4238,-2.4347,-2.4576,-2.5446,-2.7297,-2.822,-2.985,-3.289,-3.4229,-3.5527,-3.6724,-3.717,-3.7525,-3.8004,-3.8322,-3.8163,-3.8481,-3.864,-3.864,-3.864,-3.864,-3.864,-3.864,-3.864,-3.9096,-3.9569,-4.0783,-4.2616,-4.4891,-4.5661,-4.6574,4.4111,4.3651,4.2849,4.2005,4.1365,4.0189,3.9095,3.8124,3.8059,3.7609,3.6808,3.6635,3.5495,3.3495,3.2993,3.1969,3.0871,2.9771,2.8922,2.794,2.6658,2.5959,2.5848,2.4685,2.3246,2.2007,2.2029,2.1268,1.9239,1.7388,1.6168,1.5565,1.3714,1.1863,1.0624,1.0314,0.9236,0.8002,0.7846,0.7727,0.7644,0.7656,0.7497,0.7505,0.7656,0.689,0.5336,0.5026,0.3568,0.0325,-0.0488,-0.1626,-0.3417,-0.423,-0.4742,-0.5121,-0.5341,-0.5371,-0.5703,-0.7194,-0.9017,-1.0683,-1.2497,-1.4181,-1.5639,-1.5967,-1.5983,-1.6024,-1.5991,-1.5983,-1.5983,-1.5983,-1.6983,-1.8923,-1.8636,-1.9947,-2.3027,-2.2545,-2.2705,-2.352,-2.3864,-2.3961,-2.4178,-2.4226,-2.4395,-2.4601,-2.4854,-2.5862,-2.7722,-2.9561,-3.1362,-3.3233,-3.4913,-3.6402,-3.7205,-3.7365,-3.7667,-3.8163,-3.8163,-3.7845,-3.8322,-3.864,-3.864,-3.864,-3.864,-3.864,-3.864,-3.9096,-3.9707,-4.0938,-4.2769,-4.4741,-4.6085,-4.7016,-4.7626,4.3216,4.2701,4.1226,4.0434,4.0234,3.9132,3.8075,3.7276,3.7255,3.6614,3.5719,3.5065,3.4134,3.317,3.1809,3.073,2.9854,2.9271,2.8256,2.7145,2.6423,2.524,2.3546,2.3062,2.2066,2.0773,2.0692,1.952,1.7236,1.5395,1.4322,1.3406,1.1863,1.0624,0.9853,0.892,0.802,0.7765,0.7615,0.7656,0.7581,0.6616,0.5991,0.6032,0.5994,0.5172,0.341,0.2288,0.1149,-0.0,-0.1654,-0.2824,-0.3492,-0.4321,-0.4826,-0.5349,-0.6372,-0.7052,-0.7387,-0.9883,-1.1718,-1.2382,-1.4045,-1.5216,-1.5875,-1.6048,-1.6048,-1.6048,-1.6048,-1.6048,-1.6048,-1.6048,-1.6698,-1.8318,-1.9134,-2.0099,-2.205,-2.2866,-2.3359,-2.3704,-2.3973,-2.4142,-2.4287,-2.4528,-2.4782,-2.489,-2.6104,-2.7574,-2.9438,-3.1197,-3.3085,-3.4913,-3.6224,-3.7045,-3.7205,-3.7365,-3.7685,-3.8163,-3.8322,-3.8322,-3.8481,-3.864,-3.864,-3.864,-3.864,-3.8798,-3.8798,-3.9726,-4.049,-4.3055,-4.5041,-4.581,-4.7163,-4.7772,-4.8086,4.1885,4.1316,4.0052,3.9471,3.9231,3.8097,3.7339,3.6593,3.6207,3.5409,3.449,3.3705,3.2923,3.2211,3.0852,2.9599,2.8648,2.8222,2.762,2.6459,2.5594,2.4103,2.2347,2.1625,2.0887,1.9844,1.9229,1.7692,1.5395,1.3546,1.232,1.1553,1.0008,0.9231,0.8925,0.802,0.7603,0.7656,0.721,0.6941,0.6686,0.5224,0.3939,0.3641,0.346,0.2954,0.1642,0.0496,-0.0332,-0.0998,-0.268,-0.3701,-0.4038,-0.4544,-0.5382,-0.6218,-0.7387,-0.8215,-0.9049,-1.1712,-1.3383,-1.3549,-1.5051,-1.6048,-1.6048,-1.6048,-1.6048,-1.6048,-1.6048,-1.6048,-1.6048,-1.6377,-1.7191,-1.8491,-1.9775,-2.1071,-2.2372,-2.3359,-2.3728,-2.3997,-2.4214,-2.4371,-2.4516,-2.483,-2.5371,-2.5806,-2.733,-2.8923,-3.1256,-3.2592,-3.4099,-3.608,-3.6563,-3.6885,-3.7205,-3.7205,-3.7525,-3.8004,-3.8322,-3.8481,-3.864,-3.864,-3.864,-3.864,-3.864,-3.8798,-3.9411,-4.0353,-4.2309,-4.502,-4.5959,-4.6574,-4.7479,-4.8086,-4.84,4.0081,3.9686,3.9537,3.9296,3.8525,3.7361,3.6722,3.6248,3.508,3.4032,3.3075,3.2665,3.1826,3.066,2.9997,2.8819,2.7346,2.6736,2.6445,2.6154,2.3806,2.2496,2.1924,2.0737,1.9995,1.938,1.7683,1.5693,1.3546,1.1695,1.0463,0.9853,0.8457,0.7842,0.7529,0.7611,0.7501,0.7217,0.5981,0.5226,0.4949,0.3469,0.1826,0.0503,0.0168,0.0168,-0.0,-0.0168,-0.1007,-0.252,-0.353,-0.4372,-0.5048,-0.5552,-0.6218,-0.755,-0.8048,-0.9049,-1.071,-1.2542,-1.3714,-1.388,-1.5043,-1.6048,-1.6048,-1.6048,-1.6048,-1.6048,-1.6213,-1.6213,-1.6369,-1.7346,-1.8645,-1.9775,-2.0909,-2.2211,-2.3383,-2.3704,-2.3949,-2.4214,-2.4468,-2.4733,-2.4939,-2.5227,-2.5999,-2.733,-2.8406,-2.9759,-3.2428,-3.3429,-3.4425,-3.5595,-3.6581,-3.6885,-3.6885,-3.7045,-3.7525,-3.8004,-3.8163,-3.8322,-3.8481,-3.864,-3.864,-3.864,-3.864,-3.8798,-4.0471,-4.1559,-4.279,-4.4891,-4.598,-4.7038,-4.7648,-4.8109,-4.8324,3.9493,3.9122,3.9427,3.8743,3.7403,3.6871,3.5851,3.428,3.3629,3.2784,3.1739,3.1511,3.0892,2.9965,2.8819,2.781,2.6794,2.473,2.3696,2.3548,2.2657,2.1637,2.0737,2.0145,1.9067,1.7531,1.4774,1.2776,1.1541,0.9853,0.8774,0.8145,0.7838,0.7558,0.7461,0.6532,0.594,0.5712,0.4263,0.3469,0.3336,0.167,0.0502,-0.0,-0.1177,-0.185,-0.1849,-0.185,-0.2355,-0.3197,-0.37,-0.4372,-0.5382,-0.6553,-0.7387,-0.8219,-1.0382,-1.1878,-1.2548,-1.4045,-1.5043,-1.5216,-1.5711,-1.5883,-1.6048,-1.6048,-1.6048,-1.6213,-1.6862,-1.7355,-1.7673,-1.946,-2.0444,-1.9937,-2.1082,-2.2624,-2.3782,-2.4275,-2.4407,-2.4504,-2.4745,-2.4939,-2.5215,-2.5818,-2.7149,-2.8224,-2.9926,-3.2098,-3.3265,-3.4425,-3.5416,-3.6402,-3.6742,-3.6902,-3.7045,-3.7205,-3.7685,-3.8004,-3.8163,-3.8322,-3.8481,-3.864,-3.864,-3.864,-3.864,-3.9569,-4.1249,-4.2616,-4.3705,-4.5063,-4.6448,-4.7208,-4.7648,-4.8009,-4.8438,3.9384,3.9143,3.8894,3.8058,3.6862,3.5932,3.4585,3.3185,3.269,3.1879,3.1118,3.0852,3.014,2.8979,2.781,2.6488,2.5024,2.2955,2.1924,2.1475,2.1325,2.0737,1.9844,1.9229,1.754,1.5234,1.2783,1.1089,0.9848,0.8655,0.7893,0.7578,0.6975,0.6536,0.6585,0.5002,0.4076,0.396,0.2487,0.1668,0.1341,-0.0,-0.1009,-0.1176,-0.2187,-0.2692,-0.2861,-0.3029,-0.3029,-0.3365,-0.387,-0.4875,-0.6218,-0.7387,-0.8549,-1.0216,-1.205,-1.3549,-1.4383,-1.5381,-1.6048,-1.6048,-1.6048,-1.6048,-1.6048,-1.6048,-1.6205,-1.6862,-1.7519,-1.8192,-1.9077,-2.0732,-2.1568,-2.1011,-2.2089,-2.3133,-2.4184,-2.4613,-2.4758,-2.483,-2.5023,-2.5156,-2.5567,-2.5954,-2.7759,-2.8937,-3.0925,-3.3429,-3.3935,-3.5433,-3.608,-3.642,-3.6563,-3.6724,-3.7045,-3.7365,-3.7845,-3.8004,-3.8163,-3.8322,-3.8481,-3.864,-3.864,-3.8956,-3.8956,-4.0178,-4.1713,-4.279,-4.3856,-4.5384,-4.6913,-4.7355,-4.7671,-4.8214,-4.8667,3.9365,3.9259,3.7968,3.7184,3.6598,3.4355,3.3358,3.3291,3.2228,3.1401,3.0852,3.0283,2.9107,2.765,2.6634,2.4877,2.267,2.2073,2.1187,2.0296,1.9844,1.9542,1.939,1.7702,1.5403,1.2944,1.1553,1.0175,0.8802,0.8089,0.7668,0.7194,0.5962,0.5034,0.4717,0.3285,0.2474,0.2155,0.0668,-0.0168,-0.0168,-0.1681,-0.2524,-0.2524,-0.2692,-0.2861,-0.3197,-0.3533,-0.3701,-0.3701,-0.4707,-0.6047,-0.7718,-0.8215,-1.0049,-1.272,-1.3383,-1.4383,-1.5546,-1.5883,-1.6048,-1.6048,-1.6073,-1.6056,-1.6089,-1.6287,-1.6965,-1.7781,-1.8421,-1.9125,-2.0426,-2.1785,-2.2553,-2.2898,-2.3457,-2.4279,-2.4625,-2.489,-2.5035,-2.5108,-2.5289,-2.5433,-2.5397,-2.575,-2.7759,-2.9759,-3.1256,-3.3413,-3.4929,-3.5935,-3.6097,-3.6258,-3.6402,-3.6724,-3.7205,-3.7525,-3.7845,-3.8163,-3.8163,-3.8322,-3.864,-3.8798,-3.864,-3.8956,-3.9726,-4.0958,-4.2022,-4.3248,-4.4461,-4.6129,-4.7038,-4.7332,-4.7852,-4.8441,-4.9102,3.7443,3.7377,3.6556,3.5432,3.4277,3.3587,3.2959,3.2105,3.1418,3.101,3.0283,2.8963,2.7795,2.6794,2.4435,2.2967,2.2073,2.1037,2.0447,1.9693,1.8623,1.8168,1.7398,1.5097,1.3098,1.1553,1.018,0.8973,0.8098,0.766,0.7057,0.5817,0.5194,0.4406,0.3287,0.1485,0.0664,0.0501,-0.1006,-0.185,-0.2018,-0.2355,-0.2692,-0.2692,-0.2692,-0.2861,-0.3197,-0.4873,-0.6041,-0.6376,-0.6881,-0.8048,-0.9888,-1.1059,-1.2241,-1.341,-1.4728,-1.5389,-1.5891,-1.6064,-1.6056,-1.6056,-1.6178,-1.6235,-1.6243,-1.7354,-1.8085,-1.8941,-2.011,-2.145,-2.219,-2.3207,-2.3998,-2.4365,-2.4675,-2.4842,-2.4951,-2.5156,-2.5337,-2.5349,-2.5397,-2.5433,-2.5933,-2.7435,-2.9425,-3.091,-3.2741,-3.4588,-3.5757,-3.6097,-3.6097,-3.642,-3.6563,-3.7045,-3.7365,-3.7685,-3.7986,-3.8322,-3.8322,-3.8163,-3.8798,-3.9272,-3.9114,-3.8956,-4.049,-4.1888,-4.279,-4.3684,-4.5213,-4.6854,-4.7544,-4.802,-4.8304,-4.8873,-4.9501,3.6204,3.6274,3.5298,3.4284,3.3294,3.2977,3.2386,3.1559,3.1135,3.0409,2.925,2.8084,2.6474,2.473,2.2955,2.1775,2.1187,2.0296,1.9542,1.8471,1.6321,1.5403,1.479,1.2944,1.1553,1.0486,0.913,0.84,0.7827,0.7087,0.6013,0.5068,0.3615,0.2479,0.1496,-0.0166,-0.1169,-0.1344,-0.2187,-0.2692,-0.2692,-0.2692,-0.2692,-0.2692,-0.2692,-0.3032,-0.4562,-0.6281,-0.7285,-0.7573,-0.8584,-1.0121,-1.1795,-1.2862,-1.3902,-1.4579,-1.5766,-1.6276,-1.6267,-1.6276,-1.6267,-1.6284,-1.6381,-1.6742,-1.7263,-1.8193,-1.8922,-2.0594,-2.1954,-2.2855,-2.3637,-2.4388,-2.4867,-2.5011,-2.5216,-2.5204,-2.5204,-2.5337,-2.5421,-2.5433,-2.5433,-2.5775,-2.6443,-2.8601,-3.026,-3.1753,-3.3413,-3.475,-3.5918,-3.5935,-3.6097,-3.6258,-3.6581,-3.6724,-3.7205,-3.7525,-3.8004,-3.8322,-3.8481,-3.8322,-3.8798,-3.9411,-3.9569,-3.9726,-4.1268,-4.2657,-4.3594,-4.4609,-4.618,-4.7448,-4.8037,-4.8688,-4.8974,-4.9374,-5.0003,3.5258,3.551,3.4158,3.3484,3.3188,3.2105,3.17,3.1418,3.0835,2.9679,2.8213,2.7215,2.5011,2.2223,2.1924,2.1187,1.9995,1.9542,1.8158,1.6474,1.4176,1.279,1.2326,1.1869,1.0635,0.9568,0.8563,0.8137,0.7389,0.6044,0.4951,0.3809,0.1336,0.0168,-0.0503,-0.1847,-0.2523,-0.2523,-0.2524,-0.2692,-0.2694,-0.2698,-0.2703,-0.2703,-0.3387,-0.4583,-0.6318,-0.7902,-0.8577,-0.8248,-1.0177,-1.2089,-1.3634,-1.4096,-1.4834,-1.6026,-1.6358,-1.6535,-1.656,-1.6527,-1.6552,-1.6544,-1.6568,-1.7281,-1.83,-1.9015,-2.0079,-2.2126,-2.2888,-2.3706,-2.4542,-2.5289,-2.5361,-2.5397,-2.5409,-2.5433,-2.5433,-2.5433,-2.5433,-2.5433,-2.5433,-2.6601,-2.7604,-2.8601,-2.9926,-3.2428,-3.3919,-3.5092,-3.5918,-3.6097,-3.6097,-3.6097,-3.6258,-3.6581,-3.6885,-3.7365,-3.7845,-3.8163,-3.8481,-3.8481,-3.8798,-3.9272,-3.9726,-4.0666,-4.2483,-4.3635,-4.4369,-4.575,-4.7259,-4.8171,-4.9065,-4.9397,-4.988,-5.0269,-5.0704,3.3787,3.402,3.2648,3.2123,3.1965,3.17,3.1418,3.0993,2.9377,2.8213,2.7055,2.4716,2.3103,2.2073,2.1037,2.0145,1.9542,1.8319,1.6483,1.3714,1.3098,1.1405,1.048,1.0025,0.9558,0.8963,0.8567,0.7373,0.5994,0.5084,0.3817,0.1338,0.0503,-0.0672,-0.2018,-0.2355,-0.2692,-0.2692,-0.2692,-0.2695,-0.2701,-0.2718,-0.2728,-0.307,-0.446,-0.5856,-0.7413,-1.0189,-1.2069,-1.2551,-1.3075,-1.4138,-1.5338,-1.5887,-1.6097,-1.6446,-1.6609,-1.6592,-1.6592,-1.6609,-1.6592,-1.6625,-1.6902,-1.7304,-1.8668,-2.0162,-2.1443,-2.3016,-2.4233,-2.4731,-2.5143,-2.5385,-2.5433,-2.5433,-2.5433,-2.5433,-2.5433,-2.5433,-2.5446,-2.5775,-2.6601,-2.7772,-2.8265,-3.0759,-3.2098,-3.3429,-3.4425,-3.5433,-3.5918,-3.6097,-3.6097,-3.6097,-3.642,-3.6724,-3.6885,-3.7365,-3.7845,-3.8163,-3.8481,-3.8956,-3.9114,-4.0135,-4.0938,-4.2122,-4.3705,-4.4782,-4.5555,-4.6959,-4.8471,-4.9133,-4.9798,-5.0178,-5.0605,-5.0995,-5.1156,3.2471,3.2648,3.1824,3.1559,3.1418,3.0551,3.0107,2.952,2.762,2.6168,2.4997,2.2955,2.1775,2.1026,2.0296,1.9542,1.8158,1.616,1.413,1.2567,1.167,1.0635,0.9729,0.914,0.9012,0.8391,0.7198,0.6149,0.5074,0.3474,0.167,-0.0,-0.084,-0.1682,-0.2524,-0.2692,-0.2692,-0.2697,-0.2707,-0.2714,-0.2718,-0.2743,-0.3617,-0.4312,-0.5903,-0.7327,-1.0106,-1.2073,-1.4021,-1.5075,-1.5421,-1.5737,-1.6567,-1.6779,-1.682,-1.6828,-1.6828,-1.6828,-1.6836,-1.6828,-1.6836,-1.682,-1.7438,-1.8676,-1.9904,-2.1394,-2.2815,-2.4041,-2.4909,-2.5433,-2.5433,-2.5433,-2.5433,-2.5433,-2.5433,-2.5433,-2.5433,-2.5446,-2.5775,-2.6431,-2.7435,-2.9104,-3.0592,-3.2592,-3.3756,-3.4604,-3.4929,-3.5935,-3.5935,-3.6097,-3.6097,-3.6258,-3.6724,-3.7045,-3.7045,-3.7525,-3.8163,-3.8322,-3.8481,-3.9114,-3.9726,-4.0957,-4.2361,-4.3556,-4.4605,-4.5987,-4.7049,-4.8306,-4.9178,-4.9738,-5.0254,-5.0681,-5.1041,-5.1201,-5.1293,3.1559,3.1559,3.1559,3.1418,3.0977,2.9377,2.8501,2.7765,2.5716,2.4114,2.2794,2.2211,2.1037,2.0145,1.9542,1.8471,1.6312,1.4275,1.2532,1.16,1.0635,0.9907,0.9311,0.8907,0.8335,0.7705,0.6156,0.5076,0.3467,0.1669,0.0168,-0.0672,-0.1849,-0.2524,-0.2692,-0.2698,-0.2703,-0.2707,-0.2731,-0.2744,-0.275,-0.2774,-0.3834,-0.5597,-0.7545,-0.9333,-1.2161,-1.3806,-1.5118,-1.6928,-1.7112,-1.7031,-1.6974,-1.7015,-1.7112,-1.7096,-1.7063,-1.7055,-1.7047,-1.7071,-1.7071,-1.7288,-1.8331,-1.9883,-2.1445,-2.2643,-2.3697,-2.4738,-2.5433,-2.5433,-2.5433,-2.5433,-2.5433,-2.5433,-2.5433,-2.5604,-2.5775,-2.5775,-2.6601,-2.7604,-2.9104,-3.0759,-3.2098,-3.3772,-3.4767,-3.5595,-3.5935,-3.6097,-3.6097,-3.6097,-3.6097,-3.6258,-3.6724,-3.7365,-3.7685,-3.7845,-3.8322,-3.8872,-3.8853,-3.9719,-4.0683,-4.2365,-4.3678,-4.4061,-4.5201,-4.6746,-4.8142,-4.9018,-4.9791,-5.0284,-5.0642,-5.1002,-5.1293,-5.1408,-5.1431,3.1559,3.1559,3.1559,3.0835,2.9536,2.8804,2.749,2.6036,2.3966,2.2942,2.2061,2.0887,2.0296,1.9542,1.8319,1.6168,1.3976,1.2525,1.1594,1.0595,0.9782,0.9371,0.8931,0.8371,0.7475,0.6066,0.4938,0.3464,0.1656,0.0167,-0.084,-0.2018,-0.2524,-0.2692,-0.2702,-0.2716,-0.2727,-0.2735,-0.2759,-0.2774,-0.2782,-0.3155,-0.424,-0.6561,-0.941,-1.172,-1.3148,-1.5301,-1.6753,-1.7112,-1.7112,-1.7096,-1.7063,-1.7088,-1.7112,-1.7112,-1.7112,-1.7112,-1.7112,-1.7112,-1.7814,-1.8506,-1.9379,-2.0588,-2.2309,-2.3342,-2.4212,-2.4921,-2.5433,-2.5433,-2.5433,-2.5433,-2.5433,-2.5433,-2.5604,-2.6103,-2.7096,-2.7772,-2.7928,-2.8937,-3.0759,-3.2592,-3.3592,-3.4604,-3.5271,-3.5935,-3.5935,-3.6097,-3.6097,-3.6097,-3.6097,-3.6402,-3.6885,-3.7685,-3.8322,-3.8322,-3.8658,-3.9281,-3.9673,-4.0813,-4.2034,-4.3786,-4.5003,-4.5427,-4.6326,-4.7838,-4.8937,-4.9864,-5.0375,-5.0779,-5.1116,-5.1431,-5.1431,-5.1431,-5.1431,3.1135,3.0409,3.0409,2.9377,2.7635,2.6459,2.529,2.3966,2.2211,2.1176,2.0887,2.0296,1.9844,1.939,1.8168,1.5514,1.297,1.1237,1.0514,0.9713,0.9514,0.9128,0.854,0.7657,0.5906,0.4131,0.2822,0.1832,-0.0,-0.1005,-0.185,-0.2355,-0.2692,-0.2699,-0.2714,-0.2729,-0.2747,-0.2762,-0.2789,-0.2807,-0.2984,-0.3719,-0.5706,-0.8918,-1.1245,-1.3198,-1.4794,-1.6042,-1.7112,-1.7112,-1.7112,-1.7112,-1.7112,-1.7112,-1.7112,-1.7112,-1.7112,-1.7112,-1.7288,-1.7639,-1.8506,-1.9204,-2.0414,-2.1791,-2.3181,-2.4041,-2.4738,-2.5092,-2.5433,-2.5433,-2.5433,-2.5433,-2.5433,-2.5604,-2.6103,-2.7096,-2.8265,-2.9774,-3.0426,-3.0592,-3.2098,-3.3592,-3.475,-3.5433,-3.5935,-3.6097,-3.6097,-3.6097,-3.6097,-3.6258,-3.6258,-3.6724,-3.7045,-3.7685,-3.8499,-3.8872,-3.9244,-3.9851,-4.089,-4.2053,-4.3258,-4.5159,-4.6245,-4.6889,-4.7992,-4.8939,-4.9715,-5.0494,-5.0962,-5.1185,-5.1385,-5.1431,-5.1431,-5.1431,-5.1408,3.0409,2.9234,2.8804,2.7635,2.573,2.4114,2.3091,2.2061,2.0737,1.9995,1.9844,1.9844,1.9693,1.8916,1.7028,1.4517,1.1841,1.0332,0.9816,0.9651,0.9447,0.9054,0.8152,0.6581,0.4806,0.299,0.1169,-0.0168,-0.0839,-0.1849,-0.2527,-0.2703,-0.2703,-0.2717,-0.2742,-0.2759,-0.2773,-0.2792,-0.2821,-0.2837,-0.373,-0.535,-0.8048,-1.1782,-1.2845,-1.4441,-1.5873,-1.6753,-1.7112,-1.7112,-1.7112,-1.7112,-1.7112,-1.7112,-1.7112,-1.7112,-1.7112,-1.7288,-1.7805,-1.8331,-1.9379,-2.0414,-2.2136,-2.3181,-2.4041,-2.4738,-2.5263,-2.5433,-2.5433,-2.5433,-2.5433,-2.5433,-2.5604,-2.6273,-2.7266,-2.8601,-2.9926,-3.1256,-3.2757,-3.3265,-3.3756,-3.4425,-3.5433,-3.5757,-3.6097,-3.6097,-3.6097,-3.6097,-3.6097,-3.6258,-3.642,-3.6885,-3.7365,-3.8004,-3.8695,-3.9281,-3.9851,-4.0655,-4.2131,-4.3755,-4.4968,-4.6384,-4.7119,-4.8009,-4.8719,-4.9695,-5.0498,-5.0944,-5.1099,-5.1231,-5.1254,-5.1339,-5.1179,-5.1247,-5.1339,2.9393,2.9091,2.778,2.6036,2.4261,2.3536,2.236,2.0887,2.0145,1.9844,1.9693,1.9693,1.8926,1.7208,1.4478,1.206,1.0744,1.0164,0.9803,0.9507,0.9293,0.8861,0.8086,0.6334,0.4176,0.2173,0.0671,-0.084,-0.1853,-0.2528,-0.2707,-0.2724,-0.2733,-0.2747,-0.2777,-0.2795,-0.2819,-0.2827,-0.2852,-0.3759,-0.5363,-0.7331,-0.9473,-1.1616,-1.3748,-1.5344,-1.5881,-1.6585,-1.6936,-1.7112,-1.7112,-1.7112,-1.7112,-1.7112,-1.7112,-1.7112,-1.7288,-1.763,-1.8681,-1.9379,-2.0414,-2.1964,-2.3342,-2.4052,-2.4738,-2.5092,-2.5433,-2.5433,-2.5433,-2.5433,-2.5433,-2.5433,-2.6273,-2.7266,-2.8265,-3.0093,-3.1768,-3.2757,-3.4262,-3.4929,-3.4929,-3.5271,-3.5935,-3.6097,-3.6097,-3.6097,-3.6097,-3.6097,-3.6258,-3.642,-3.6885,-3.7365,-3.797,-3.8486,-3.9374,-3.9945,-4.1125,-4.1736,-4.3358,-4.5271,-4.6353,-4.7419,-4.8265,-4.916,-4.9674,-5.0119,-5.041,-5.0789,-5.0944,-5.1185,-5.1224,-5.0995,-5.0765,-5.0926,-5.1064,2.6315,2.6168,2.5583,2.3966,2.2061,2.1763,2.1176,2.0296,1.9995,1.939,1.8623,1.8471,1.7093,1.4766,1.2867,1.1553,1.0258,0.9814,0.9621,0.9307,0.8903,0.8119,0.6496,0.4853,0.2853,0.1176,-0.0504,-0.169,-0.2541,-0.272,-0.2728,-0.2739,-0.2757,-0.2778,-0.2806,-0.2821,-0.2837,-0.3207,-0.3938,-0.5375,-0.7338,-0.9121,-1.1083,-1.2869,-1.4462,-1.5352,-1.5881,-1.6225,-1.6753,-1.6936,-1.7112,-1.7112,-1.7112,-1.7112,-1.7288,-1.8331,-1.8331,-1.8681,-1.9204,-2.0588,-2.2136,-2.317,-2.4041,-2.4909,-2.5263,-2.5433,-2.5433,-2.5433,-2.5433,-2.5433,-2.5604,-2.6443,-2.7096,-2.8265,-2.9592,-3.1271,-3.3101,-3.4425,-3.5416,-3.5757,-3.6097,-3.6097,-3.6097,-3.6097,-3.6097,-3.6097,-3.6097,-3.6097,-3.642,-3.6724,-3.7365,-3.8004,-3.8504,-3.9166,-4.0114,-4.0903,-4.2724,-4.3698,-4.4474,-4.6374,-4.7526,-4.8597,-4.9179,-4.9695,-5.0098,-5.0254,-5.0478,-5.0766,-5.1231,-5.1025,-5.0972,-5.0719,-5.0467,-5.026,-5.0444,2.3812,2.3239,2.3548,2.2372,2.0597,2.0597,2.0447,1.9854,1.939,1.8623,1.7398,1.6483,1.4637,1.2811,1.207,1.1221,1.0248,0.9796,0.9445,0.9071,0.8297,0.6998,0.5354,0.3357,0.1346,-0.0,-0.1522,-0.2552,-0.2573,-0.2758,-0.2765,-0.2761,-0.2785,-0.2811,-0.2831,-0.2844,-0.2853,-0.3047,-0.4659,-0.6448,-0.8409,-1.0367,-1.2154,-1.3755,-1.4822,-1.5344,-1.5704,-1.6409,-1.6761,-1.6936,-1.7112,-1.7112,-1.7112,-1.7639,-1.8164,-1.903,-1.9718,-2.0414,-2.1108,-2.2136,-2.3342,-2.4041,-2.4566,-2.5263,-2.5263,-2.5433,-2.5433,-2.5433,-2.5433,-2.5433,-2.5775,-2.694,-2.8096,-2.9592,-3.1256,-3.2757,-3.4099,-3.5092,-3.5757,-3.5935,-3.6097,-3.6097,-3.6097,-3.6097,-3.6097,-3.6097,-3.6097,-3.6097,-3.642,-3.6902,-3.749,-3.8166,-3.8668,-3.9387,-4.0915,-4.2106,-4.3939,-4.5339,-4.6279,-4.7103,-4.8374,-4.8978,-4.9359,-4.9852,-5.0322,-5.0633,-5.0944,-5.1053,-5.1316,-5.1201,-5.0995,-5.049,-5.0168,-4.9916,-4.987,2.2784,2.136,2.2109,2.1648,2.0447,2.091,2.0609,1.9542,1.8319,1.7559,1.6483,1.433,1.2797,1.2218,1.1245,1.0571,1.0378,0.9998,0.9438,0.851,0.7379,0.5864,0.4029,0.2018,0.0169,-0.0511,-0.1878,-0.2751,-0.2778,-0.2799,-0.2812,-0.2823,-0.2823,-0.2844,-0.2859,-0.2864,-0.3043,-0.359,-0.5199,-0.6981,-0.8943,-1.0728,-1.2509,-1.4115,-1.5175,-1.5704,-1.5704,-1.6409,-1.6936,-1.7112,-1.7112,-1.7288,-1.7639,-1.8156,-1.8855,-2.0066,-2.1445,-2.2309,-2.2998,-2.3354,-2.4041,-2.4921,-2.5263,-2.5433,-2.5433,-2.5433,-2.5433,-2.5433,-2.5433,-2.5433,-2.5933,-2.7096,-2.8923,-3.0426,-3.2263,-3.3919,-3.4929,-3.5433,-3.5935,-3.6097,-3.6097,-3.6097,-3.6097,-3.6097,-3.6097,-3.6097,-3.6097,-3.6097,-3.6471,-3.6972,-3.7488,-3.8096,-3.8563,-3.9608,-4.156,-4.3159,-4.4803,-4.6267,-4.7526,-4.8151,-4.8842,-4.9381,-4.9852,-5.0165,-5.0633,-5.0944,-5.1277,-5.1254,-5.1362,-5.127,-5.0995,-5.0444,-4.9847,-4.9457,-4.9697,2.1667,2.098,2.159,2.121,2.0145,2.0307,1.9542,1.8471,1.7711,1.6168,1.433,1.2024,1.0993,1.0931,1.073,1.0217,1.0009,0.9788,0.8689,0.7372,0.6044,0.4365,0.2354,0.0845,-0.0511,-0.1541,-0.2411,-0.2781,-0.2811,-0.2826,-0.2841,-0.2849,-0.2853,-0.2861,-0.2871,-0.3053,-0.359,-0.4841,-0.6448,-0.8409,-1.0367,-1.2154,-1.3584,-1.4292,-1.4822,-1.5352,-1.5704,-1.6409,-1.6761,-1.7112,-1.7112,-1.7463,-1.8156,-1.903,-2.0066,-2.1282,-2.2998,-2.3697,-2.4395,-2.4566,-2.4921,-2.5092,-2.5433,-2.5433,-2.5433,-2.5433,-2.5433,-2.5433,-2.5433,-2.5433,-2.5775,-2.7928,-3.026,-3.1422,-3.2921,-3.4913,-3.5595,-3.5935,-3.6097,-3.6097,-3.6097,-3.6097,-3.6097,-3.6097,-3.6097,-3.6097,-3.6097,-3.6276,-3.6667,-3.713,-3.7664,-3.8436,-3.9105,-4.0809,-4.2754,-4.422,-4.5512,-4.706,-4.8597,-4.882,-4.9223,-5.0009,-5.0478,-5.0633,-5.0789,-5.1099,-5.1277,-5.1431,-5.1339,-5.1179,-5.0811,-5.0329,-4.9732,-4.9112,-4.9476,2.0967,2.0683,2.1015,2.0692,1.9844,1.9531,1.8623,1.7398,1.6177,1.4483,1.1721,1.052,1.0144,1.0264,1.0222,1.0172,0.9947,0.9359,0.7881,0.6379,0.4868,0.2853,0.0843,-0.0679,-0.154,-0.2582,-0.2782,-0.2812,-0.2841,-0.2841,-0.2853,-0.2867,-0.2874,-0.2874,-0.3052,-0.359,-0.4483,-0.5912,-0.823,-0.9833,-1.1616,-1.3224,-1.4299,-1.4469,-1.4999,-1.5528,-1.5881,-1.6409,-1.6761,-1.6936,-1.7288,-1.7814,-1.8855,-1.9902,-2.1108,-2.2654,-2.3869,-2.4395,-2.5092,-2.5433,-2.5433,-2.5433,-2.5433,-2.5433,-2.5433,-2.5433,-2.5433,-2.5433,-2.5433,-2.5604,-2.6103,-2.8769,-3.0925,-3.2083,-3.4083,-3.5918,-3.5935,-3.6097,-3.6097,-3.6097,-3.6097,-3.6097,-3.6097,-3.6097,-3.6114,-3.6114,-3.6097,-3.6344,-3.6696,-3.7177,-3.7912,-3.8886,-4.0052,-4.1934,-4.4037,-4.5169,-4.6301,-4.7624,-4.8842,-4.9022,-4.9538,-5.0322,-5.0789,-5.0789,-5.0944,-5.1277,-5.1431,-5.1431,-5.1247,-5.1018,-5.0673,-5.0352,-4.9594,-4.9043,-4.9153,2.0647,2.0649,2.0229,1.9927,1.9639,1.8613,1.7702,1.6788,1.4022,1.1869,1.0497,1.0128,1.0253,1.0206,1.0145,0.9932,0.9858,0.9059,0.7558,0.5541,0.386,0.1847,-0.0,-0.1533,-0.2242,-0.2611,-0.2812,-0.2842,-0.2868,-0.2866,-0.2871,-0.2872,-0.2874,-0.2874,-0.3053,-0.4662,-0.5554,-0.627,-0.9477,-1.0905,-1.2154,-1.3578,-1.4469,-1.4822,-1.5352,-1.5873,-1.6049,-1.6753,-1.6936,-1.7112,-1.7463,-1.8156,-1.9379,-2.0761,-2.1964,-2.3354,-2.4566,-2.5263,-2.5433,-2.5433,-2.5433,-2.5433,-2.5433,-2.5433,-2.5433,-2.5433,-2.5433,-2.5433,-2.5604,-2.6431,-2.7928,-2.9759,-3.1587,-3.2921,-3.4929,-3.6097,-3.6097,-3.6097,-3.6097,-3.6097,-3.6097,-3.6097,-3.6097,-3.6097,-3.6131,-3.6131,-3.6097,-3.6413,-3.6817,-3.7655,-3.8429,-3.9485,-4.0859,-4.2548,-4.4399,-4.5838,-4.709,-4.841,-4.9065,-4.9381,-4.9695,-5.0165,-5.0633,-5.0789,-5.1099,-5.1431,-5.1431,-5.1431,-5.127,-5.1133,-5.0811,-5.0375,-4.9594,-4.919,-4.9468,2.0306,2.0048,1.8884,1.8255,1.7912,1.7737,1.6931,1.525,1.2488,1.048,1.0197,1.015,1.0269,1.0228,1.0024,0.9803,0.9555,0.8901,0.7391,0.4027,0.2855,0.0676,-0.1191,-0.2235,-0.2782,-0.2814,-0.2842,-0.286,-0.2872,-0.2874,-0.2874,-0.2874,-0.2874,-0.2874,-0.3412,-0.4662,-0.6091,-0.7695,-1.0189,-1.1976,-1.3224,-1.4115,-1.4646,-1.4646,-1.5521,-1.6049,-1.6049,-1.6761,-1.7112,-1.7288,-1.7805,-1.903,-2.0414,-2.1791,-2.3181,-2.4395,-2.5263,-2.5433,-2.5433,-2.5433,-2.5433,-2.5446,-2.5446,-2.5446,-2.5433,-2.5433,-2.5433,-2.5775,-2.6443,-2.7279,-2.8265,-3.1091,-3.2757,-3.3429,-3.4767,-3.5757,-3.6097,-3.6097,-3.6097,-3.6097,-3.6097,-3.6097,-3.6097,-3.62,-3.6251,-3.6585,-3.6637,-3.6997,-3.7532,-3.8371,-3.9075,-4.0179,-4.1598,-4.3109,-4.4782,-4.6264,-4.7592,-4.8569,-4.9223,-4.9538,-4.9852,-5.0322,-5.0633,-5.1099,-5.1277,-5.1431,-5.1431,-5.1431,-5.1431,-5.127,-5.0972,-5.0696,-5.0168,-4.997,-5.019,1.9776,1.8799,1.7709,1.6764,1.6066,1.5711,1.4637,1.3013,1.0922,1.0041,1.0106,1.0215,1.0174,1.013,0.9912,0.9487,0.9068,0.7893,0.6211,0.2855,0.2025,-0.0,-0.1885,-0.2778,-0.2804,-0.2834,-0.2857,-0.2874,-0.2874,-0.2874,-0.2874,-0.2874,-0.2874,-0.3411,-0.4305,-0.5912,-0.7695,-0.9655,-1.1616,-1.3046,-1.3938,-1.4469,-1.4822,-1.4999,-1.5528,-1.6057,-1.6409,-1.6753,-1.7279,-1.7981,-1.8855,-2.024,-2.1618,-2.2826,-2.4041,-2.4921,-2.5433,-2.5433,-2.5433,-2.5433,-2.5482,-2.559,-2.5506,-2.5494,-2.5506,-2.5494,-2.6031,-2.6702,-2.7669,-2.8796,-3.0122,-3.2788,-3.3656,-3.4164,-3.4996,-3.6004,-3.6166,-3.6166,-3.6166,-3.6166,-3.6166,-3.6148,-3.6183,-3.6285,-3.6405,-3.6792,-3.7015,-3.7578,-3.8323,-3.8932,-3.988,-4.1175,-4.2411,-4.4211,-4.5616,-4.693,-4.8071,-4.8886,-4.9381,-4.9695,-5.0165,-5.0633,-5.0944,-5.1277,-5.1277,-5.1431,-5.1431,-5.1431,-5.1431,-5.1362,-5.1201,-5.0926,-5.0673,-5.0825,-5.0981,1.8756,1.7191,1.667,1.5709,1.4383,1.2947,1.1396,1.0009,0.997,1.0085,1.0204,1.0318,1.0265,0.9897,0.9516,0.9059,0.8227,0.6546,0.4369,0.2528,0.1018,-0.1025,-0.2072,-0.2799,-0.2823,-0.284,-0.2857,-0.2874,-0.2874,-0.2874,-0.2874,-0.3053,-0.3233,-0.4305,-0.5912,-0.7695,-0.9477,-1.1083,-1.2692,-1.3761,-1.4299,-1.4476,-1.4822,-1.5175,-1.5704,-1.6233,-1.6585,-1.7288,-1.7981,-1.8681,-1.9553,-2.1108,-2.2481,-2.3354,-2.4384,-2.4921,-2.5446,-2.5494,-2.5506,-2.5518,-2.5651,-2.5784,-2.5651,-2.5675,-2.5884,-2.6032,-2.6879,-2.7892,-2.9043,-3.092,-3.267,-3.372,-3.4605,-3.5275,-3.596,-3.6285,-3.6268,-3.6268,-3.6285,-3.6285,-3.632,-3.6337,-3.6405,-3.6491,-3.6731,-3.7318,-3.7761,-3.832,-3.9075,-3.9793,-4.0675,-4.2027,-4.3574,-4.5251,-4.6608,-4.7592,-4.841,-4.9223,-4.9381,-4.9695,-5.0322,-5.0789,-5.1099,-5.1277,-5.1277,-5.1431,-5.1431,-5.1431,-5.1431,-5.1339,-5.1201,-5.1546,-5.142,-5.1703,-5.1945,1.7653,1.6538,1.4285,1.2976,1.2336,1.0922,1.0235,0.996,1.0014,1.009,1.021,1.0329,1.0135,0.9907,0.9521,0.8219,0.7052,0.5547,0.3379,0.1528,0.0171,-0.1209,-0.2095,-0.2821,-0.2841,-0.2856,-0.287,-0.2874,-0.2874,-0.2874,-0.2874,-0.3053,-0.4126,-0.5733,-0.7517,-0.9655,-1.0728,-1.1793,-1.3407,-1.4122,-1.4476,-1.4469,-1.4999,-1.5175,-1.5873,-1.6401,-1.6928,-1.7998,-1.8873,-1.9388,-2.1292,-2.2837,-2.317,-2.4212,-2.5263,-2.5287,-2.5578,-2.5723,-2.5747,-2.5892,-2.6013,-2.6073,-2.6013,-2.6025,-2.6411,-2.722,-2.7982,-2.9145,-3.0836,-3.2784,-3.4055,-3.4915,-3.5642,-3.6186,-3.6696,-3.6679,-3.6679,-3.6679,-3.6679,-3.6679,-3.6696,-3.6696,-3.6748,-3.6885,-3.729,-3.7882,-3.8478,-3.9059,-3.9874,-4.0563,-4.162,-4.2952,-4.4474,-4.6123,-4.6951,-4.7911,-4.8727,-4.9381,-4.9538,-4.9852,-5.0478,-5.0944,-5.1099,-5.1254,-5.1431,-5.1431,-5.1431,-5.1431,-5.1408,-5.1247,-5.111,-5.1827,-5.2269,-5.2569,-5.3203,1.6808,1.5444,1.3006,1.1443,1.086,1.0122,0.9845,1.0008,1.0074,1.0161,1.028,1.0244,1.0029,0.9472,0.8536,0.7219,0.5709,0.3694,0.1857,0.0682,-0.0687,-0.1739,-0.2639,-0.2841,-0.2857,-0.287,-0.2874,-0.2874,-0.2874,-0.2874,-0.2874,-0.3053,-0.4841,-0.6806,-0.8409,-1.0194,-1.1621,-1.2692,-1.3584,-1.4122,-1.4476,-1.4646,-1.4822,-1.5168,-1.5873,-1.6569,-1.7455,-1.8891,-1.9831,-2.0909,-2.3369,-2.399,-2.4349,-2.5401,-2.5759,-2.5808,-2.588,-2.5977,-2.6013,-2.6097,-2.6242,-2.6351,-2.6387,-2.6967,-2.7612,-2.8413,-2.9352,-3.0321,-3.2704,-3.4735,-3.5541,-3.6358,-3.6775,-3.7176,-3.7176,-3.7176,-3.7176,-3.7176,-3.7176,-3.7176,-3.7159,-3.7142,-3.721,-3.7347,-3.7652,-3.816,-3.8856,-3.976,-4.0709,-4.1732,-4.2729,-4.3817,-4.5474,-4.693,-4.7592,-4.8251,-4.8886,-4.9381,-4.9852,-5.0165,-5.0633,-5.0944,-5.1254,-5.1277,-5.1431,-5.1431,-5.1431,-5.1408,-5.1362,-5.1201,-5.1301,-5.2047,-5.2612,-5.313,-5.4027,1.6075,1.3849,1.2402,1.0895,0.9976,0.9829,0.9911,1.0041,1.0008,1.0275,1.0228,1.0009,0.9788,0.9036,0.7383,0.6044,0.4201,0.2188,0.0509,-0.0171,-0.1733,-0.2632,-0.2658,-0.2859,-0.2867,-0.2872,-0.2874,-0.2874,-0.3053,-0.3231,-0.359,-0.3231,-0.5554,-0.7695,-0.9299,-1.1083,-1.2686,-1.3584,-1.4115,-1.4299,-1.4299,-1.4476,-1.4476,-1.5168,-1.5873,-1.6928,-1.8707,-2.0025,-2.1419,-2.3238,-2.4566,-2.5032,-2.5607,-2.597,-2.6158,-2.6206,-2.6206,-2.6254,-2.6291,-2.6363,-2.6484,-2.6592,-2.6677,-2.7621,-2.8639,-2.9758,-3.0699,-3.2175,-3.4406,-3.5733,-3.6711,-3.7131,-3.7402,-3.7604,-3.7604,-3.7604,-3.7604,-3.7604,-3.7604,-3.7604,-3.7604,-3.7587,-3.7604,-3.7741,-3.7809,-3.8437,-3.9049,-3.9939,-4.1304,-4.2493,-4.3837,-4.4985,-4.6447,-4.7752,-4.8251,-4.8727,-4.8907,-4.9381,-4.9852,-5.0322,-5.0633,-5.1099,-5.1431,-5.1431,-5.1431,-5.1431,-5.1431,-5.1408,-5.1316,-5.124,-5.1466,-5.2285,-5.2987,-5.3644,-5.4796,1.4456,1.2255,1.0688,0.9944,0.9824,0.984,0.9965,1.0166,0.9972,0.9869,0.9915,0.9856,0.9467,0.839,0.6546,0.5036,0.2859,0.0847,-0.0685,-0.1558,-0.2626,-0.2827,-0.2856,-0.2868,-0.2874,-0.2874,-0.2874,-0.3053,-0.3411,-0.4126,-0.5199,-0.5375,-0.7695,-1.0011,-1.055,-1.2331,-1.3761,-1.4299,-1.4299,-1.4476,-1.4646,-1.4653,-1.4653,-1.5697,-1.6745,-1.7964,-1.9892,-2.2178,-2.3206,-2.4372,-2.5497,-2.6001,-2.6194,-2.6218,-2.623,-2.6254,-2.6447,-2.6508,-2.6556,-2.6629,-2.6737,-2.6822,-2.7255,-2.8193,-2.9422,-3.0914,-3.2587,-3.425,-3.5751,-3.6895,-3.7589,-3.7725,-3.7998,-3.7998,-3.7998,-3.7998,-3.7998,-3.7998,-3.7998,-3.7998,-3.8015,-3.8015,-3.8015,-3.8066,-3.8169,-3.8391,-3.8767,-3.9671,-4.1658,-4.3156,-4.4965,-4.6123,-4.7432,-4.8569,-4.8907,-4.8907,-4.9065,-4.9381,-4.983,-5.0322,-5.0789,-5.1099,-5.1431,-5.1431,-5.1431,-5.1477,-5.1477,-5.1431,-5.1293,-5.1393,-5.1826,-5.2784,-5.3517,-5.4175,-5.5579,1.3122,1.1871,1.0237,0.9715,0.9829,0.9894,0.9874,0.9887,0.9693,0.9445,0.9169,0.9264,0.8685,0.7387,0.5371,0.3539,0.1522,-0.0341,-0.1554,-0.2624,-0.2821,-0.2844,-0.2863,-0.2874,-0.2874,-0.2874,-0.3053,-0.3231,-0.4126,-0.502,-0.5912,-0.716,-1.0011,-1.1616,-1.1793,-1.3224,-1.4299,-1.4299,-1.4299,-1.4469,-1.4822,-1.4653,-1.4653,-1.5697,-1.7263,-1.8828,-2.1118,-2.3409,-2.4961,-2.5706,-2.6586,-2.677,-2.679,-2.6734,-2.6592,-2.6641,-2.6725,-2.681,-2.6822,-2.6846,-2.6894,-2.7062,-2.7925,-2.9112,-3.1063,-3.2572,-3.3785,-3.5476,-3.6731,-3.7896,-3.7896,-3.8152,-3.8186,-3.8186,-3.8186,-3.8186,-3.8186,-3.8186,-3.8186,-3.8186,-3.8186,-3.8186,-3.8186,-3.8186,-3.8443,-3.9296,-3.9519,-4.1024,-4.2659,-4.3962,-4.5779,-4.709,-4.8251,-4.8749,-4.8907,-4.8907,-4.8907,-4.9359,-4.9673,-5.0322,-5.0944,-5.1099,-5.1431,-5.1431,-5.15,-5.1592,-5.1592,-5.1615,-5.22,-5.2447,-5.2822,-5.3302,-5.3992,-5.4923,-5.6332,1.24,1.1841,1.0445,0.9845,0.9878,0.9837,0.9803,0.9601,0.9552,0.901,0.8276,0.819,0.7216,0.5706,0.3358,0.1692,-0.0,-0.1372,-0.2434,-0.2814,-0.2833,-0.2853,-0.2866,-0.2874,-0.2874,-0.2874,-0.2874,-0.4126,-0.5378,-0.627,-0.7338,-0.8943,-1.0367,-1.1799,-1.2331,-1.3224,-1.4299,-1.4299,-1.4299,-1.4476,-1.4653,-1.4646,-1.4992,-1.6042,-1.778,-2.0028,-2.2178,-2.435,-2.6413,-2.6835,-2.7435,-2.7296,-2.7103,-2.7059,-2.6858,-2.6894,-2.693,-2.6979,-2.6966,-2.6858,-2.6941,-2.738,-2.8752,-3.053,-3.2324,-3.3823,-3.5051,-3.6362,-3.7791,-3.8152,-3.8306,-3.8306,-3.8323,-3.8323,-3.8323,-3.8323,-3.8323,-3.8323,-3.8323,-3.8323,-3.8323,-3.8323,-3.8323,-3.8323,-3.9007,-3.9858,-4.1192,-4.301,-4.431,-4.5128,-4.6426,-4.7592,-4.8569,-4.8907,-4.8907,-4.8907,-4.8907,-4.9223,-4.9538,-5.0322,-5.1145,-5.1437,-5.1615,-5.1477,-5.1546,-5.1867,-5.1936,-5.1959,-5.2657,-5.3561,-5.4105,-5.462,-5.5878,-5.6842,-5.7376,1.1695,1.044,0.9878,0.9894,0.9837,0.9641,0.9601,0.9552,0.9006,0.795,0.6846,0.6196,0.5706,0.5203,0.1847,-0.0,-0.0514,-0.207,-0.2616,-0.2825,-0.2849,-0.2866,-0.2872,-0.2874,-0.2874,-0.3053,-0.3233,-0.4126,-0.627,-0.7517,-0.8943,-1.09,-1.2692,-1.3584,-1.3761,-1.4299,-1.4299,-1.4299,-1.4299,-1.4476,-1.4653,-1.4999,-1.621,-1.7772,-2.0028,-2.2105,-2.4201,-2.6468,-2.7328,-2.7758,-2.7682,-2.7599,-2.7409,-2.7355,-2.7133,-2.7099,-2.6966,-2.7003,-2.6954,-2.7243,-2.7491,-2.8397,-2.9988,-3.1625,-3.3255,-3.4894,-3.6091,-3.7414,-3.8323,-3.8323,-3.8323,-3.8323,-3.8323,-3.8323,-3.8323,-3.8323,-3.8323,-3.8323,-3.8323,-3.8323,-3.8323,-3.8494,-3.8683,-3.9007,-3.9501,-4.0518,-4.1509,-4.3322,-4.5454,-4.6264,-4.7251,-4.7911,-4.8907,-4.8907,-4.8907,-4.8907,-4.8907,-4.9065,-4.9425,-5.0456,-5.1217,-5.1734,-5.1867,-5.173,-5.2028,-5.2418,-5.2441,-5.2212,-5.3623,-5.4511,-5.5188,-5.6037,-5.7499,-5.844,-5.8778]},{"header":{"parameterUnit":"m.s-1","parameterCategory":1,"la1":31.0,"la2":29.5877,"lo1":-88.7671,"lo2":-86.6584,"dx":0.0162,"dy":0.0185,"nx":115,"ny":88,"refTime":"2023-01-30T18:00:00:Z","depth":0,"parameterNumber":3,"parameterNumberName":"V-component_of_WINDS"},"data":[0.0,0.0,0.0,0.0,0.0,0.0,0.0,0.0,0.0,0.0,0.0,0.0,0.0,0.0,0.0,0.0,0.0,0.0,0.0,0.0,0.0,0.0,0.0,0.0,0.0,0.0,0.0,0.0,0.0,0.0,0.0,0.0,0.0,0.0,0.0,0.0,0.0,0.0,0.0,0.0,0.0,0.0,0.0,0.0,0.0,0.0,0.0,0.0,0.0,0.0,0.0,0.0,0.0,0.0,0.0,0.0,0.0,0.0,0.0,0.0,0.0,0.0,0.0,0.0,0.0,0.0,0.0,0.0,0.0,0.0,0.0,0.0,0.0,0.0,0.0,0.0,0.0,0.0,0.0,0.0,0.0,0.0,0.0,0.0,0.0,0.0,0.0,0.0,0.0,0.0,0.0,0.0,0.0,0.0,0.0,0.0,0.0,0.0,0.0,0.0,0.0,0.0,0.0,0.0,0.0,0.0,0.0,0.0,0.0,0.0,0.0,0.0,0.0,0.0,0.0,0.0,0.0,0.0,0.0,0.0,0.0,0.0,0.0,0.0,0.0,0.0,0.0,0.0,0.0,0.0,0.0,0.0,0.0,0.0,0.0,0.0,0.0,0.0,0.0,0.0,0.0,0.0,0.0,0.0,0.0,0.0,0.0,0.0,0.0,0.0,0.0,0.0,0.0,0.0,0.0,0.0,0.0,0.0,0.0,0.0,0.0,0.0,0.0,0.0,0.0,0.0,0.0,0.0,0.0,0.0,0.0,0.0,0.0,0.0,0.0,0.0,0.0,0.0,0.0,0.0,0.0,0.0,0.0,0.0,0.0,0.0,0.0,0.0,0.0,0.0,0.0,0.0,0.0,0.0,0.0,0.0,0.0,0.0,0.0,0.0,0.0,0.0,0.0,0.0,0.0,0.0,0.0,0.0,0.0,0.0,0.0,0.0,0.0,0.0,0.0,0.0,0.0,0.0,0.0,0.0,0.0,0.0,0.0,0.0,0.0,0.0,0.0,0.0,0.0,0.0,0.0,0.0,0.0,0.0,0.0,0.0,0.0,0.0,0.0,0.0,0.0,0.0,0.0,0.0,0.0,0.0,0.0,0.0,0.0,0.0,0.0,0.0,0.0,0.0,0.0,0.0,0.0,0.0,0.0,0.0,0.0,0.0,0.0,0.0,0.0,0.0,0.0,0.0,0.0,0.0,0.0,0.0,0.0,0.0,0.0,0.0,0.0,0.0,0.0,0.0,0.0,0.0,0.0,0.0,0.0,0.0,0.0,0.0,0.0,0.0,0.0,0.0,0.0,0.0,0.0,0.0,0.0,0.0,0.0,0.0,0.0,0.0,0.0,0.0,0.0,0.0,0.0,0.0,0.0,0.0,0.0,0.0,0.0,0.0,0.0,0.0,0.0,0.0,0.0,0.0,0.0,0.0,0.0,0.0,0.0,0.0,0.0,0.0,0.0,0.0,0.0,0.0,0.0,0.0,0.0,0.0,0.0,0.0,0.0,0.0,0.0,0.0,0.0,0.0,0.0,0.0,0.0,0.0,0.0,0.0,0.0,0.0,0.0,0.0,0.0,0.0,0.0,0.0,0.0,0.0,0.0,0.0,0.0,0.0,0.0,0.0,0.0,0.0,0.0,0.0,0.0,0.0,0.0,0.0,0.0,0.0,0.0,0.0,0.0,0.0,0.0,0.0,0.0,0.0,0.0,0.0,0.0,0.0,0.0,0.0,0.0,0.0,0.0,0.0,0.0,0.0,0.0,0.0,0.0,0.0,0.0,0.0,0.0,0.0,0.0,0.0,0.0,0.0,0.0,0.0,0.0,0.0,0.0,0.0,0.0,0.0,0.0,0.0,0.0,0.0,0.0,0.0,0.0,0.0,0.0,0.0,0.0,0.0,0.0,0.0,0.0,0.0,0.0,0.0,0.0,0.0,0.0,0.0,0.0,0.0,0.0,0.0,0.0,0.0,0.0,0.0,0.0,0.0,0.0,0.0,0.0,0.0,0.0,0.0,0.0,0.0,0.0,0.0,0.0,0.0,0.0,0.0,0.0,0.0,0.0,0.0,0.0,0.0,0.0,0.0,0.0,0.0,0.0,0.0,0.0,0.0,0.0,0.0,0.0,0.0,0.0,0.0,0.0,0.0,0.0,0.0,0.0,0.0,0.0,0.0,0.0,0.0,0.0,0.0,0.0,0.0,0.0,0.0,0.0,0.0,0.0,0.0,0.0,0.0,0.0,0.0,0.0,0.0,0.0,0.0,0.0,0.0,0.0,0.0,0.0,0.0,0.0,0.0,0.0,0.0,0.0,0.0,0.0,0.0,0.0,0.0,0.0,0.0,0.0,0.0,0.0,0.0,0.0,0.0,0.0,0.0,0.0,0.0,0.0,0.0,0.0,0.0,0.0,0.0,0.0,0.0,0.0,0.0,0.0,0.0,0.0,0.0,0.0,0.0,0.0,0.0,0.0,0.0,0.0,0.0,0.0,0.0,0.0,0.0,0.0,0.0,0.0,0.0,0.0,0.0,0.0,0.0,0.0,0.0,0.0,0.0,0.0,0.0,0.0,0.0,0.0,0.0,0.0,0.0,0.0,0.0,0.0,0.0,0.0,0.0,0.0,0.0,0.0,0.0,0.0,0.0,0.0,0.0,0.0,0.0,0.0,0.0,0.0,0.0,0.0,0.0,0.0,0.0,0.0,0.0,0.0,0.0,0.0,0.0,0.0,0.0,0.0,0.0,0.0,0.0,0.0,0.0,0.0,0.0,0.0,0.0,0.0,0.0,0.0,0.0,0.0,0.0,0.0,0.0,0.0,0.0,0.0,0.0,0.0,0.0,0.0,0.0,0.0,0.0,0.0,0.0,0.0,0.0,0.0,0.0,0.0,0.0,0.0,0.0,0.0,0.0,0.0,0.0,0.0,0.0,0.0,0.0,0.0,0.0,0.0,0.0,0.0,0.0,0.0,0.0,0.0,0.0,0.0,0.0,0.0,0.0,0.0,0.0,0.0,0.0,0.0,0.0,0.0,0.0,0.0,0.0,0.0,0.0,0.0,0.0,0.0,0.0,0.0,0.0,0.0,0.0,0.0,0.0,0.0,0.0,0.0,0.0,0.0,0.0,0.0,0.0,0.0,0.0,0.0,0.0,0.0,0.0,0.0,0.0,0.0,0.0,0.0,0.0,0.0,0.0,0.0,0.0,0.0,0.0,0.0,0.0,0.0,0.0,0.0,0.0,0.0,0.0,0.0,0.0,0.0,0.0,0.0,0.0,0.0,0.0,0.0,0.0,0.0,0.0,0.0,0.0,0.0,0.0,0.0,0.0,0.0,0.0,0.0,0.0,0.0,0.0,0.0,0.0,0.0,0.0,0.0,0.0,0.0,0.0,0.0,0.0,0.0,0.0,0.0,0.0,0.0,0.0,0.0,0.0,0.0,0.0,0.0,0.0,0.0,0.0,0.0,0.0,0.0,0.0,0.0,0.0,0.0,0.0,0.0,0.0,0.0,0.0,0.0,0.0,0.0,0.0,0.0,0.0,0.0,0.0,0.0,0.0,0.0,0.0,0.0,0.0,0.0,0.0,0.0,0.0,0.0,0.0,0.0,0.0,0.0,0.0,0.0,0.0,0.0,0.0,0.0,0.0,0.0,0.0,0.0,0.0,0.0,0.0,0.0,0.0,0.0,0.0,0.0,0.0,0.0,0.0,0.0,0.0,0.0,0.0,0.0,0.0,0.0,0.0,0.0,0.0,0.0,0.0,0.0,0.0,0.0,0.0,0.0,0.0,0.0,0.0,0.0,0.0,0.0,0.0,0.0,0.0,0.0,0.0,0.0,0.0,0.0,0.0,0.0,0.0,0.0,0.0,0.0,0.0,0.0,0.0,0.0,0.0,0.0,0.0,0.0,0.0,0.0,0.0,0.0,0.0,0.0,0.0,0.0,0.0,0.0,0.0,0.0,0.0,0.0,0.0,0.0,0.0,0.0,0.0,0.0,0.0,0.0,0.0,0.0,0.0,0.0,0.0,0.0,0.0,0.0,0.0,0.0,0.0,0.0,0.0,0.0,0.0,0.0,0.0,0.0,0.0,0.0,0.0,0.0,0.0,0.0,0.0,0.0,0.0,0.0,0.0,0.0,0.0,0.0,0.0,0.0,0.0,0.0,0.0,0.0,0.0,0.0,0.0,0.0,0.0,0.0,0.0,0.0,0.0,0.0,0.0,0.0,0.0,0.0,0.0,0.0,0.0,0.0,0.0,0.0,0.0,0.0,0.0,0.0,0.0,-3.8338,0.0,0.0,0.0,0.0,0.0,0.0,0.0,0.0,0.0,0.0,0.0,0.0,0.0,0.0,0.0,0.0,0.0,0.0,0.0,0.0,0.0,0.0,0.0,0.0,0.0,0.0,0.0,0.0,0.0,0.0,0.0,0.0,0.0,0.0,0.0,0.0,0.0,0.0,0.0,0.0,0.0,0.0,0.0,0.0,0.0,0.0,0.0,0.0,0.0,0.0,0.0,0.0,0.0,0.0,0.0,0.0,0.0,0.0,0.0,0.0,0.0,0.0,0.0,0.0,0.0,0.0,0.0,0.0,0.0,0.0,0.0,0.0,0.0,0.0,0.0,0.0,0.0,0.0,0.0,0.0,0.0,0.0,0.0,0.0,0.0,0.0,0.0,0.0,0.0,0.0,0.0,0.0,0.0,0.0,0.0,0.0,0.0,0.0,0.0,0.0,0.0,0.0,0.0,0.0,0.0,0.0,0.0,0.0,0.0,0.0,-3.6376,-3.6701,-3.7289,-3.7924,-3.8615,0.0,0.0,0.0,0.0,0.0,0.0,0.0,0.0,0.0,0.0,0.0,0.0,0.0,0.0,0.0,0.0,0.0,0.0,0.0,0.0,0.0,0.0,0.0,0.0,0.0,0.0,0.0,0.0,0.0,0.0,0.0,0.0,0.0,0.0,0.0,0.0,0.0,0.0,0.0,0.0,0.0,0.0,0.0,0.0,0.0,0.0,0.0,0.0,0.0,0.0,0.0,0.0,0.0,0.0,0.0,0.0,0.0,0.0,0.0,0.0,0.0,0.0,0.0,0.0,0.0,0.0,0.0,0.0,0.0,0.0,0.0,0.0,0.0,0.0,0.0,0.0,0.0,0.0,0.0,0.0,0.0,0.0,0.0,0.0,0.0,0.0,0.0,0.0,0.0,0.0,0.0,0.0,0.0,0.0,0.0,0.0,0.0,0.0,0.0,0.0,0.0,0.0,0.0,0.0,0.0,0.0,0.0,0.0,0.0,0.0,0.0,0.0,-3.7922,-3.8545,-3.887,0.0,0.0,0.0,0.0,0.0,0.0,0.0,0.0,0.0,0.0,0.0,0.0,0.0,0.0,0.0,0.0,0.0,0.0,0.0,0.0,0.0,0.0,0.0,0.0,0.0,0.0,0.0,0.0,0.0,0.0,0.0,0.0,0.0,0.0,0.0,0.0,0.0,0.0,0.0,0.0,0.0,0.0,0.0,0.0,0.0,0.0,0.0,0.0,0.0,0.0,0.0,0.0,0.0,0.0,0.0,0.0,0.0,0.0,0.0,0.0,0.0,0.0,0.0,0.0,0.0,0.0,0.0,0.0,0.0,0.0,0.0,0.0,0.0,0.0,0.0,0.0,0.0,0.0,0.0,0.0,0.0,0.0,0.0,0.0,0.0,0.0,0.0,0.0,0.0,0.0,0.0,0.0,0.0,0.0,0.0,0.0,0.0,0.0,0.0,0.0,0.0,0.0,0.0,0.0,0.0,0.0,0.0,0.0,0.0,0.0,-3.8566,-3.9257,-3.8975,0.0,-3.8767,0.0,0.0,0.0,0.0,0.0,0.0,0.0,0.0,0.0,0.0,0.0,0.0,0.0,0.0,0.0,0.0,0.0,0.0,0.0,0.0,0.0,0.0,0.0,0.0,0.0,0.0,0.0,0.0,0.0,0.0,0.0,0.0,0.0,0.0,0.0,0.0,0.0,0.0,0.0,0.0,0.0,0.0,0.0,0.0,0.0,0.0,0.0,0.0,0.0,0.0,0.0,0.0,0.0,0.0,0.0,0.0,0.0,0.0,0.0,0.0,0.0,0.0,0.0,0.0,0.0,0.0,0.0,0.0,0.0,0.0,0.0,0.0,0.0,0.0,0.0,0.0,0.0,0.0,0.0,0.0,0.0,0.0,0.0,0.0,0.0,0.0,0.0,0.0,0.0,0.0,0.0,0.0,0.0,0.0,0.0,0.0,0.0,0.0,0.0,0.0,0.0,0.0,0.0,0.0,0.0,0.0,0.0,0.0,0.0,0.0,-3.7723,-3.8308,-3.9458,-4.0118,0.0,0.0,0.0,0.0,0.0,0.0,0.0,0.0,0.0,0.0,0.0,0.0,0.0,0.0,0.0,0.0,0.0,0.0,0.0,0.0,0.0,0.0,0.0,0.0,0.0,0.0,0.0,0.0,0.0,0.0,0.0,0.0,0.0,0.0,0.0,0.0,0.0,0.0,0.0,0.0,0.0,0.0,0.0,0.0,0.0,0.0,0.0,0.0,0.0,0.0,0.0,0.0,0.0,0.0,0.0,0.0,0.0,0.0,0.0,0.0,0.0,0.0,0.0,0.0,0.0,0.0,0.0,0.0,0.0,0.0,0.0,0.0,0.0,0.0,0.0,0.0,0.0,0.0,0.0,0.0,0.0,0.0,0.0,0.0,0.0,0.0,0.0,0.0,0.0,0.0,0.0,0.0,0.0,0.0,0.0,0.0,0.0,0.0,0.0,0.0,0.0,0.0,0.0,0.0,0.0,0.0,0.0,0.0,0.0,0.0,-3.7448,-3.8027,-3.8893,-4.0637,-4.1625,-4.1576,0.0,0.0,0.0,0.0,0.0,0.0,0.0,0.0,0.0,0.0,0.0,0.0,0.0,0.0,0.0,0.0,0.0,0.0,0.0,0.0,0.0,0.0,0.0,0.0,0.0,0.0,0.0,0.0,0.0,0.0,0.0,0.0,0.0,0.0,0.0,0.0,0.0,0.0,0.0,0.0,0.0,0.0,0.0,0.0,0.0,0.0,0.0,0.0,0.0,0.0,0.0,0.0,0.0,0.0,0.0,0.0,0.0,0.0,0.0,0.0,0.0,0.0,0.0,0.0,0.0,0.0,0.0,0.0,0.0,0.0,0.0,0.0,0.0,0.0,0.0,0.0,0.0,0.0,0.0,0.0,0.0,0.0,0.0,0.0,0.0,0.0,0.0,0.0,0.0,0.0,0.0,0.0,0.0,0.0,0.0,0.0,0.0,0.0,0.0,0.0,0.0,0.0,0.0,0.0,0.0,0.0,0.0,0.0,-3.9001,-3.967,-4.0827,-4.2342,-4.2955,-4.2921,0.0,0.0,0.0,0.0,0.0,0.0,0.0,0.0,0.0,0.0,0.0,0.0,0.0,0.0,0.0,0.0,0.0,0.0,0.0,0.0,0.0,0.0,0.0,0.0,0.0,0.0,0.0,0.0,0.0,0.0,0.0,0.0,0.0,0.0,0.0,0.0,0.0,0.0,0.0,0.0,0.0,0.0,0.0,0.0,0.0,0.0,0.0,0.0,0.0,0.0,0.0,0.0,0.0,0.0,0.0,0.0,0.0,0.0,0.0,0.0,0.0,0.0,0.0,0.0,0.0,0.0,0.0,0.0,0.0,0.0,0.0,0.0,0.0,0.0,0.0,0.0,0.0,0.0,0.0,0.0,0.0,0.0,0.0,0.0,0.0,0.0,0.0,0.0,0.0,0.0,0.0,0.0,0.0,0.0,0.0,0.0,0.0,0.0,0.0,0.0,0.0,0.0,0.0,0.0,0.0,0.0,0.0,0.0,0.0,-3.9234,-4.0292,-4.1501,-4.2753,-4.3175,-4.3259,0.0,0.0,0.0,0.0,0.0,0.0,0.0,0.0,0.0,0.0,0.0,0.0,0.0,0.0,0.0,0.0,0.0,0.0,0.0,0.0,0.0,0.0,0.0,0.0,0.0,0.0,0.0,0.0,0.0,0.0,0.0,0.0,0.0,0.0,0.0,0.0,0.0,0.0,0.0,0.0,0.0,0.0,0.0,0.0,0.0,0.0,0.0,0.0,0.0,0.0,0.0,0.0,0.0,0.0,0.0,0.0,0.0,0.0,0.0,0.0,0.0,0.0,0.0,0.0,0.0,0.0,0.0,0.0,0.0,0.0,0.0,0.0,0.0,0.0,0.0,0.0,0.0,0.0,0.0,0.0,0.0,0.0,0.0,0.0,0.0,0.0,0.0,0.0,0.0,0.0,0.0,0.0,0.0,0.0,0.0,0.0,0.0,0.0,0.0,0.0,0.0,0.0,0.0,0.0,0.0,0.0,0.0,0.0,0.0,-3.9798,0.0,-4.26,-4.3319,-4.3585,-4.3791,0.0,0.0,0.0,0.0,0.0,0.0,0.0,0.0,0.0,0.0,0.0,0.0,0.0,0.0,0.0,0.0,0.0,0.0,0.0,0.0,0.0,0.0,0.0,0.0,0.0,0.0,0.0,0.0,0.0,0.0,0.0,0.0,0.0,0.0,0.0,0.0,0.0,0.0,0.0,0.0,0.0,0.0,0.0,0.0,0.0,0.0,0.0,0.0,0.0,0.0,0.0,0.0,0.0,0.0,0.0,0.0,0.0,0.0,0.0,0.0,0.0,0.0,0.0,0.0,0.0,0.0,0.0,0.0,0.0,0.0,0.0,0.0,0.0,0.0,0.0,0.0,0.0,0.0,0.0,0.0,0.0,0.0,0.0,0.0,0.0,0.0,0.0,0.0,0.0,0.0,0.0,0.0,0.0,0.0,0.0,0.0,0.0,0.0,0.0,0.0,0.0,0.0,0.0,0.0,0.0,0.0,0.0,0.0,-3.8702,-4.0887,-4.3081,-4.422,-4.4297,-4.445,-4.4648,0.0,0.0,0.0,0.0,0.0,0.0,0.0,0.0,0.0,0.0,0.0,0.0,0.0,0.0,0.0,0.0,0.0,0.0,0.0,0.0,0.0,0.0,0.0,0.0,0.0,0.0,0.0,0.0,0.0,0.0,0.0,0.0,0.0,0.0,0.0,0.0,0.0,0.0,0.0,0.0,0.0,0.0,0.0,0.0,0.0,0.0,0.0,0.0,0.0,0.0,0.0,0.0,0.0,0.0,0.0,0.0,0.0,0.0,0.0,0.0,0.0,0.0,0.0,0.0,0.0,0.0,0.0,0.0,0.0,0.0,0.0,0.0,0.0,0.0,0.0,0.0,0.0,0.0,0.0,0.0,0.0,0.0,0.0,0.0,0.0,0.0,0.0,0.0,0.0,0.0,0.0,0.0,0.0,0.0,0.0,0.0,0.0,0.0,0.0,0.0,0.0,0.0,0.0,0.0,0.0,0.0,0.0,0.0,0.0,-4.2082,-4.3536,-4.4588,-4.5141,-4.497,-4.5015,0.0,0.0,0.0,0.0,0.0,0.0,0.0,0.0,0.0,0.0,0.0,0.0,0.0,0.0,0.0,0.0,0.0,0.0,0.0,0.0,0.0,0.0,0.0,0.0,0.0,0.0,0.0,0.0,0.0,0.0,0.0,0.0,0.0,0.0,0.0,0.0,0.0,0.0,0.0,0.0,0.0,0.0,0.0,0.0,0.0,0.0,0.0,0.0,0.0,0.0,0.0,0.0,0.0,0.0,0.0,0.0,0.0,0.0,0.0,0.0,0.0,0.0,0.0,0.0,0.0,0.0,0.0,0.0,0.0,0.0,0.0,0.0,0.0,0.0,0.0,0.0,0.0,0.0,0.0,0.0,0.0,0.0,0.0,0.0,0.0,0.0,0.0,0.0,0.0,0.0,0.0,0.0,0.0,0.0,0.0,0.0,0.0,0.0,0.0,0.0,0.0,0.0,0.0,0.0,0.0,0.0,0.0,0.0,0.0,-4.3471,-4.4576,-4.537,-4.5926,-4.5758,-4.5663,-4.5677,0.0,0.0,0.0,0.0,0.0,0.0,0.0,0.0,0.0,0.0,0.0,0.0,0.0,0.0,0.0,0.0,0.0,0.0,0.0,0.0,0.0,0.0,0.0,0.0,0.0,0.0,0.0,0.0,0.0,0.0,0.0,0.0,0.0,0.0,0.0,0.0,0.0,0.0,0.0,0.0,0.0,0.0,0.0,0.0,0.0,0.0,0.0,0.0,0.0,0.0,0.0,0.0,0.0,0.0,0.0,0.0,0.0,0.0,0.0,0.0,0.0,0.0,0.0,0.0,0.0,0.0,0.0,0.0,0.0,0.0,0.0,0.0,0.0,0.0,0.0,0.0,0.0,0.0,0.0,0.0,0.0,0.0,0.0,0.0,0.0,0.0,0.0,0.0,0.0,0.0,0.0,0.0,0.0,0.0,0.0,0.0,0.0,0.0,0.0,0.0,0.0,0.0,0.0,0.0,0.0,0.0,0.0,0.0,-4.5108,-4.6245,-4.6819,-4.6788,-4.6872,-4.6408,0.0,0.0,0.0,0.0,0.0,0.0,0.0,0.0,0.0,0.0,0.0,0.0,0.0,0.0,0.0,0.0,0.0,0.0,0.0,0.0,0.0,0.0,0.0,0.0,0.0,0.0,0.0,0.0,0.0,0.0,0.0,0.0,0.0,0.0,0.0,0.0,0.0,0.0,0.0,0.0,0.0,0.0,0.0,0.0,0.0,0.0,0.0,0.0,0.0,0.0,0.0,0.0,0.0,0.0,0.0,0.0,0.0,0.0,0.0,0.0,0.0,0.0,0.0,0.0,0.0,0.0,0.0,0.0,0.0,0.0,0.0,0.0,0.0,0.0,0.0,0.0,0.0,0.0,0.0,0.0,0.0,0.0,0.0,0.0,0.0,0.0,0.0,0.0,0.0,0.0,0.0,0.0,0.0,0.0,0.0,0.0,0.0,0.0,0.0,0.0,0.0,0.0,0.0,0.0,0.0,0.0,0.0,0.0,0.0,-4.7638,-4.8898,-4.9374,-4.885,-4.7694,-4.7216,0.0,0.0,0.0,0.0,0.0,0.0,0.0,0.0,0.0,0.0,0.0,0.0,0.0,0.0,0.0,0.0,0.0,0.0,0.0,0.0,0.0,0.0,0.0,0.0,0.0,0.0,0.0,0.0,0.0,0.0,0.0,0.0,0.0,0.0,0.0,0.0,0.0,0.0,0.0,0.0,0.0,0.0,0.0,0.0,0.0,0.0,0.0,0.0,0.0,0.0,0.0,0.0,0.0,0.0,0.0,0.0,0.0,0.0,0.0,0.0,0.0,0.0,0.0,0.0,0.0,0.0,0.0,0.0,0.0,0.0,0.0,0.0,0.0,0.0,0.0,0.0,0.0,0.0,0.0,0.0,0.0,0.0,0.0,0.0,0.0,0.0,0.0,0.0,0.0,0.0,0.0,0.0,0.0,0.0,0.0,0.0,0.0,0.0,0.0,0.0,0.0,0.0,0.0,0.0,0.0,0.0,0.0,0.0,-4.7471,-4.8635,-5.0513,-5.1374,-5.0974,-4.8996,-4.7822,0.0,0.0,0.0,0.0,0.0,0.0,0.0,0.0,0.0,0.0,0.0,0.0,0.0,0.0,0.0,0.0,0.0,0.0,0.0,0.0,0.0,0.0,0.0,0.0,0.0,0.0,0.0,0.0,0.0,0.0,0.0,0.0,0.0,0.0,0.0,0.0,0.0,0.0,0.0,0.0,0.0,0.0,0.0,0.0,0.0,0.0,0.0,0.0,0.0,0.0,0.0,0.0,0.0,0.0,0.0,0.0,0.0,0.0,0.0,0.0,0.0,0.0,0.0,0.0,0.0,0.0,0.0,0.0,0.0,0.0,0.0,0.0,0.0,0.0,0.0,0.0,0.0,0.0,0.0,0.0,0.0,0.0,0.0,0.0,0.0,0.0,0.0,0.0,0.0,0.0,0.0,0.0,0.0,0.0,0.0,0.0,0.0,0.0,0.0,0.0,0.0,0.0,0.0,0.0,0.0,0.0,0.0,0.0,-4.9343,-4.8881,-5.1374,-5.2788,-5.2785,-5.0275,-4.8426,0.0,0.0,0.0,0.0,0.0,0.0,0.0,0.0,0.0,0.0,0.0,0.0,0.0,0.0,0.0,0.0,0.0,0.0,0.0,0.0,0.0,0.0,0.0,0.0,0.0,0.0,0.0,0.0,0.0,0.0,0.0,0.0,0.0,0.0,0.0,0.0,0.0,0.0,0.0,0.0,0.0,0.0,0.0,0.0,0.0,0.0,0.0,0.0,0.0,0.0,0.0,0.0,0.0,0.0,0.0,0.0,0.0,0.0,0.0,0.0,0.0,0.0,0.0,0.0,0.0,0.0,0.0,0.0,0.0,0.0,0.0,0.0,0.0,0.0,0.0,0.0,0.0,0.0,0.0,0.0,0.0,0.0,0.0,0.0,0.0,0.0,0.0,0.0,0.0,0.0,0.0,0.0,0.0,0.0,0.0,0.0,0.0,0.0,0.0,0.0,0.0,0.0,0.0,0.0,0.0,0.0,0.0,0.0,-4.9312,-5.0236,-5.1867,-5.3113,-5.3891,-5.0663,-4.8891,0.0,0.0,0.0,0.0,0.0,0.0,0.0,0.0,0.0,0.0,0.0,0.0,0.0,0.0,0.0,0.0,0.0,0.0,0.0,0.0,0.0,0.0,0.0,0.0,0.0,0.0,0.0,0.0,0.0,0.0,0.0,0.0,0.0,0.0,0.0,0.0,0.0,0.0,0.0,0.0,0.0,0.0,0.0,0.0,0.0,0.0,0.0,0.0,-5.7194,0.0,0.0,0.0,0.0,0.0,0.0,0.0,0.0,0.0,0.0,0.0,0.0,0.0,0.0,0.0,0.0,0.0,0.0,0.0,0.0,0.0,0.0,0.0,0.0,0.0,0.0,0.0,0.0,0.0,0.0,0.0,0.0,0.0,0.0,0.0,0.0,0.0,0.0,0.0,0.0,0.0,0.0,0.0,0.0,0.0,0.0,0.0,0.0,0.0,0.0,0.0,0.0,0.0,0.0,0.0,0.0,0.0,0.0,0.0,-4.9281,-5.0667,-5.2021,-5.317,-5.4137,-5.184,-5.05,0.0,0.0,0.0,0.0,0.0,0.0,0.0,0.0,0.0,0.0,0.0,0.0,0.0,0.0,0.0,0.0,0.0,0.0,0.0,0.0,0.0,0.0,0.0,0.0,0.0,0.0,0.0,0.0,0.0,0.0,0.0,0.0,0.0,0.0,0.0,0.0,0.0,0.0,0.0,0.0,0.0,0.0,0.0,0.0,0.0,0.0,0.0,0.0,0.0,0.0,0.0,0.0,0.0,0.0,0.0,0.0,0.0,0.0,0.0,0.0,0.0,0.0,0.0,0.0,0.0,0.0,0.0,0.0,0.0,0.0,0.0,0.0,0.0,0.0,0.0,0.0,0.0,0.0,0.0,0.0,0.0,0.0,0.0,0.0,0.0,0.0,0.0,0.0,0.0,0.0,0.0,0.0,0.0,0.0,0.0,0.0,0.0,0.0,0.0,0.0,0.0,0.0,0.0,0.0,0.0,0.0,0.0,-4.8019,-4.9458,-5.1172,-5.2348,-5.349,-5.4755,-5.3503,-5.2637,-5.2312,0.0,0.0,0.0,0.0,0.0,0.0,0.0,0.0,0.0,0.0,0.0,0.0,0.0,0.0,0.0,0.0,0.0,0.0,0.0,0.0,0.0,0.0,0.0,0.0,0.0,0.0,0.0,0.0,0.0,0.0,0.0,0.0,0.0,0.0,0.0,0.0,0.0,0.0,-5.7712,-5.7612,0.0,0.0,0.0,0.0,0.0,0.0,0.0,0.0,-5.7181,0.0,0.0,0.0,0.0,0.0,0.0,0.0,0.0,0.0,0.0,0.0,0.0,0.0,0.0,0.0,0.0,0.0,0.0,0.0,0.0,0.0,0.0,0.0,0.0,0.0,0.0,0.0,0.0,0.0,0.0,0.0,0.0,0.0,0.0,0.0,0.0,0.0,0.0,0.0,0.0,0.0,0.0,0.0,0.0,0.0,0.0,0.0,0.0,0.0,0.0,0.0,0.0,0.0,0.0,0.0,0.0,-4.8266,-4.8512,-5.0279,-5.3619,-5.3935,-5.5002,-5.682,-5.5913,-5.495,-5.4014,0.0,0.0,0.0,0.0,0.0,0.0,0.0,0.0,0.0,0.0,0.0,0.0,0.0,0.0,0.0,0.0,0.0,0.0,0.0,0.0,0.0,0.0,0.0,0.0,0.0,0.0,0.0,0.0,0.0,0.0,0.0,0.0,0.0,0.0,0.0,0.0,0.0,0.0,0.0,-5.7688,-5.7429,0.0,0.0,0.0,0.0,0.0,0.0,0.0,0.0,-5.681,0.0,0.0,0.0,0.0,0.0,0.0,0.0,0.0,0.0,0.0,0.0,0.0,0.0,0.0,0.0,0.0,0.0,0.0,0.0,0.0,0.0,0.0,0.0,0.0,0.0,0.0,0.0,0.0,0.0,0.0,0.0,0.0,0.0,0.0,0.0,0.0,0.0,0.0,0.0,0.0,0.0,0.0,0.0,0.0,0.0,0.0,0.0,0.0,0.0,0.0,0.0,0.0,0.0,0.0,0.0,-4.9215,-5.0452,-5.2299,-5.4856,-5.5084,-5.5889,-5.7345,-5.6303,-5.5209,0.0,0.0,0.0,0.0,0.0,0.0,0.0,0.0,0.0,0.0,0.0,0.0,0.0,0.0,0.0,0.0,0.0,0.0,0.0,0.0,0.0,0.0,0.0,0.0,0.0,0.0,0.0,0.0,0.0,0.0,0.0,0.0,0.0,0.0,0.0,0.0,0.0,0.0,0.0,0.0,-5.7891,-5.8033,-5.9049,0.0,0.0,0.0,0.0,0.0,0.0,-5.6928,-5.6441,0.0,0.0,0.0,0.0,0.0,0.0,0.0,0.0,0.0,0.0,0.0,0.0,0.0,0.0,0.0,0.0,0.0,0.0,0.0,0.0,0.0,0.0,0.0,0.0,0.0,0.0,0.0,0.0,0.0,0.0,0.0,0.0,0.0,0.0,0.0,0.0,0.0,0.0,0.0,0.0,0.0,0.0,0.0,0.0,0.0,0.0,0.0,0.0,0.0,0.0,0.0,0.0,0.0,0.0,0.0,-4.9805,-5.2152,-5.4092,-5.5777,-5.6047,-5.6778,-5.7746,-5.619,-5.5077,0.0,0.0,0.0,0.0,0.0,0.0,0.0,0.0,0.0,0.0,0.0,0.0,0.0,0.0,0.0,0.0,0.0,0.0,0.0,0.0,0.0,0.0,0.0,0.0,0.0,0.0,0.0,0.0,0.0,0.0,0.0,0.0,0.0,0.0,0.0,0.0,0.0,0.0,0.0,0.0,0.0,-5.8807,-6.0168,-5.8749,0.0,0.0,0.0,0.0,-5.7559,-5.7486,0.0,0.0,0.0,0.0,0.0,0.0,0.0,0.0,0.0,0.0,0.0,0.0,0.0,0.0,0.0,0.0,0.0,0.0,0.0,0.0,0.0,0.0,0.0,0.0,0.0,0.0,0.0,0.0,0.0,0.0,0.0,0.0,0.0,0.0,0.0,0.0,0.0,0.0,0.0,0.0,0.0,0.0,0.0,0.0,0.0,0.0,0.0,0.0,0.0,0.0,0.0,0.0,0.0,0.0,0.0,0.0,-4.971,-5.2073,-5.4436,-5.6668,-5.708,-5.778,-5.8771,-5.6675,-5.5228,0.0,0.0,0.0,0.0,0.0,0.0,0.0,0.0,0.0,0.0,0.0,0.0,0.0,0.0,0.0,0.0,0.0,0.0,0.0,0.0,0.0,0.0,0.0,0.0,0.0,0.0,0.0,0.0,0.0,0.0,0.0,0.0,0.0,0.0,0.0,0.0,0.0,0.0,0.0,0.0,0.0,-5.9234,-6.0255,-5.8494,-5.737,0.0,0.0,-5.9889,-5.9651,-6.1395,0.0,0.0,0.0,0.0,0.0,0.0,0.0,0.0,0.0,0.0,0.0,0.0,0.0,0.0,0.0,0.0,0.0,0.0,0.0,0.0,0.0,0.0,0.0,0.0,0.0,0.0,0.0,0.0,0.0,0.0,0.0,0.0,0.0,0.0,0.0,0.0,0.0,0.0,0.0,0.0,0.0,0.0,0.0,0.0,0.0,0.0,0.0,0.0,0.0,0.0,0.0,0.0,0.0,0.0,0.0,-4.9732,-5.0679,-5.3967,-5.6437,-5.7741,-5.8065,-5.8492,-5.9012,-5.668,-5.5119,0.0,0.0,0.0,0.0,0.0,0.0,0.0,0.0,0.0,0.0,0.0,0.0,0.0,0.0,0.0,0.0,0.0,0.0,0.0,0.0,0.0,0.0,0.0,0.0,0.0,0.0,0.0,0.0,0.0,0.0,0.0,0.0,0.0,0.0,0.0,0.0,0.0,0.0,0.0,0.0,0.0,0.0,-6.0814,-5.9847,0.0,0.0,0.0,-6.039,-5.9329,0.0,0.0,0.0,0.0,0.0,0.0,0.0,0.0,0.0,0.0,0.0,0.0,0.0,0.0,0.0,0.0,0.0,0.0,0.0,0.0,0.0,0.0,0.0,0.0,0.0,0.0,0.0,0.0,0.0,0.0,0.0,0.0,0.0,0.0,0.0,0.0,0.0,0.0,0.0,0.0,0.0,0.0,0.0,0.0,0.0,0.0,0.0,0.0,0.0,0.0,0.0,0.0,0.0,0.0,0.0,0.0,0.0,-5.1582,-5.5603,-5.7881,-5.8385,-5.884,-5.9115,-5.9147,-5.7157,0.0,0.0,0.0,0.0,0.0,0.0,0.0,0.0,0.0,0.0,0.0,0.0,0.0,0.0,0.0,0.0,0.0,0.0,0.0,0.0,0.0,0.0,0.0,0.0,0.0,0.0,0.0,-5.6754,0.0,0.0,0.0,0.0,0.0,0.0,0.0,0.0,0.0,0.0,0.0,0.0,0.0,0.0,-6.1368,-6.1363,-6.1049,-6.1244,0.0,0.0,-6.1093,-6.0411,-6.2466,-6.2977,0.0,0.0,0.0,0.0,0.0,0.0,0.0,0.0,0.0,0.0,0.0,0.0,0.0,0.0,0.0,0.0,0.0,0.0,0.0,0.0,0.0,0.0,0.0,0.0,0.0,0.0,0.0,0.0,0.0,0.0,0.0,0.0,0.0,0.0,0.0,0.0,0.0,0.0,0.0,0.0,0.0,0.0,0.0,0.0,0.0,0.0,0.0,0.0,0.0,0.0,0.0,0.0,0.0,0.0,-5.1102,-5.2191,-5.5928,-5.7954,-5.8243,-5.9182,-5.9714,-5.9679,-5.8703,-5.741,0.0,0.0,0.0,0.0,0.0,0.0,0.0,0.0,0.0,0.0,0.0,0.0,0.0,0.0,0.0,0.0,0.0,0.0,0.0,0.0,0.0,0.0,0.0,0.0,0.0,0.0,0.0,0.0,0.0,0.0,0.0,0.0,0.0,0.0,0.0,0.0,0.0,0.0,0.0,0.0,0.0,-6.1224,-6.1694,-6.1344,-6.1997,0.0,-6.314,-6.263,-6.4857,-6.6063,-6.5829,-6.2865,0.0,0.0,0.0,0.0,0.0,0.0,0.0,0.0,0.0,0.0,0.0,0.0,0.0,0.0,0.0,0.0,0.0,0.0,0.0,0.0,0.0,0.0,0.0,0.0,0.0,0.0,0.0,0.0,0.0,0.0,0.0,0.0,0.0,0.0,0.0,0.0,0.0,0.0,0.0,0.0,0.0,0.0,0.0,0.0,0.0,0.0,0.0,0.0,0.0,0.0,0.0,0.0,0.0,-5.1769,-5.234,-5.5856,-5.8065,-5.8806,-5.9215,-5.9679,-6.0192,-5.9313,-5.7917,0.0,0.0,0.0,0.0,0.0,0.0,0.0,0.0,0.0,0.0,0.0,0.0,0.0,0.0,0.0,0.0,0.0,0.0,0.0,0.0,0.0,0.0,0.0,0.0,0.0,0.0,0.0,0.0,-5.991,-6.0147,-5.8943,0.0,0.0,0.0,0.0,0.0,0.0,0.0,0.0,0.0,0.0,-6.2598,-6.3716,-6.3654,0.0,0.0,-6.4827,-6.4229,-6.4192,-6.53,-6.5017,-6.1777,-6.0884,0.0,0.0,0.0,0.0,0.0,0.0,0.0,0.0,0.0,0.0,0.0,0.0,0.0,0.0,0.0,0.0,0.0,0.0,0.0,0.0,0.0,0.0,0.0,0.0,0.0,0.0,0.0,0.0,0.0,0.0,0.0,0.0,0.0,0.0,0.0,0.0,0.0,0.0,0.0,0.0,0.0,0.0,0.0,0.0,0.0,0.0,0.0,0.0,0.0,0.0,0.0,0.0,-5.2378,-5.2974,-5.6254,-5.8388,-5.938,-5.9709,-6.0093,-6.0711,-6.0239,-5.9132,0.0,0.0,0.0,0.0,0.0,0.0,0.0,0.0,0.0,0.0,0.0,0.0,0.0,0.0,0.0,0.0,0.0,0.0,0.0,0.0,0.0,0.0,0.0,0.0,0.0,0.0,0.0,0.0,-6.0877,-6.0966,-5.9537,0.0,0.0,0.0,0.0,0.0,0.0,0.0,0.0,0.0,0.0,-6.4019,-6.4538,-6.4517,-6.4559,-6.5001,-6.4524,-6.3873,-6.3198,-6.3812,-6.3516,-6.1076,0.0,0.0,0.0,0.0,0.0,0.0,0.0,0.0,0.0,0.0,0.0,0.0,0.0,0.0,0.0,0.0,0.0,0.0,0.0,0.0,0.0,0.0,0.0,0.0,0.0,0.0,0.0,-3.6358,0.0,0.0,-3.6358,0.0,0.0,0.0,0.0,0.0,0.0,0.0,0.0,0.0,0.0,0.0,0.0,0.0,0.0,0.0,0.0,0.0,0.0,0.0,0.0,0.0,0.0,-5.2627,-5.4274,-5.7123,-5.9045,-5.9972,-6.0843,-6.127,-6.1328,-6.1748,-6.1491,-6.0415,0.0,0.0,0.0,0.0,0.0,0.0,0.0,0.0,0.0,0.0,0.0,0.0,0.0,0.0,0.0,0.0,0.0,0.0,0.0,0.0,0.0,0.0,0.0,0.0,0.0,0.0,-5.9239,-6.0421,-6.1221,0.0,0.0,0.0,0.0,0.0,0.0,0.0,0.0,0.0,-6.0563,-6.3465,-6.5032,-6.3567,-6.3353,-6.3342,-6.3283,-6.1776,-6.108,-6.2522,-6.2132,-6.1601,0.0,0.0,0.0,0.0,0.0,0.0,0.0,0.0,0.0,0.0,0.0,0.0,0.0,0.0,0.0,0.0,0.0,0.0,0.0,0.0,0.0,0.0,0.0,0.0,0.0,0.0,0.0,-3.8089,-3.8089,0.0,0.0,0.0,0.0,0.0,0.0,0.0,0.0,0.0,0.0,0.0,-4.7092,-4.7722,0.0,0.0,0.0,0.0,0.0,0.0,0.0,0.0,0.0,0.0,0.0,0.0,-5.3781,-5.4598,-5.8207,-6.0574,-6.1468,-6.2307,-6.2892,-6.3336,-6.3857,-6.3676,-6.2673,0.0,0.0,0.0,0.0,0.0,0.0,0.0,0.0,0.0,0.0,0.0,0.0,0.0,0.0,0.0,0.0,0.0,0.0,0.0,0.0,0.0,0.0,0.0,0.0,0.0,-6.1218,0.0,0.0,0.0,0.0,0.0,0.0,0.0,0.0,0.0,0.0,-5.9899,-6.0896,-6.2109,-6.2272,-6.2546,-6.3205,-6.3316,-6.3685,0.0,0.0,0.0,0.0,0.0,0.0,0.0,0.0,0.0,0.0,0.0,0.0,0.0,0.0,-5.8737,-5.7569,-5.8114,-5.9037,-5.975,0.0,0.0,0.0,0.0,0.0,0.0,0.0,0.0,0.0,0.0,0.0,0.0,0.0,0.0,-4.0166,0.0,-4.0228,0.0,0.0,0.0,0.0,0.0,0.0,0.0,0.0,-4.6715,-4.8116,-4.9251,-5.021,-5.0929,0.0,-5.0884,-5.0228,0.0,0.0,0.0,0.0,0.0,0.0,0.0,0.0,-5.5006,-5.6012,-5.9622,-6.1997,-6.2869,-6.3595,-6.423,-6.4658,-6.5359,-6.5385,-6.4786,-6.3421,-6.2333,0.0,0.0,0.0,0.0,0.0,0.0,0.0,0.0,0.0,0.0,0.0,0.0,0.0,0.0,0.0,0.0,0.0,0.0,0.0,0.0,0.0,0.0,0.0,-6.2497,0.0,0.0,0.0,0.0,0.0,0.0,0.0,0.0,0.0,-6.0905,-6.151,-6.2372,-6.3351,-6.3009,-6.2595,-6.2382,0.0,0.0,0.0,0.0,0.0,0.0,0.0,-5.9956,-5.9045,-5.9132,-5.9656,-6.0463,-6.112,-6.1665,-6.2022,0.0,0.0,-6.0247,-6.0655,-6.1508,-6.2227,-6.1987,-6.1953,-6.2912,-6.3021,-6.2987,0.0,0.0,0.0,0.0,0.0,0.0,0.0,0.0,-4.2998,-4.2262,0.0,-4.2274,0.0,0.0,0.0,0.0,-4.3455,-4.4748,0.0,0.0,-5.0246,-5.1332,-5.058,-5.1654,-5.2637,-5.3376,-5.2183,-5.2441,-5.3933,-5.1997,0.0,0.0,0.0,0.0,0.0,0.0,-5.6293,-5.8543,-6.1432,-6.3315,-6.4238,-6.4894,-6.5316,-6.5367,-6.6292,-6.6804,-6.677,-6.5765,-6.5141,-6.5065,-6.2147,0.0,0.0,0.0,0.0,0.0,0.0,0.0,0.0,0.0,0.0,0.0,0.0,0.0,0.0,0.0,0.0,0.0,0.0,0.0,0.0,-6.3837,0.0,0.0,0.0,0.0,0.0,0.0,0.0,0.0,0.0,-6.2671,-6.1831,-6.3384,-6.4554,-6.4218,0.0,0.0,0.0,0.0,-6.1993,-5.8637,-5.804,-5.8066,-5.8044,-5.9432,-6.066,-6.0948,0.0,0.0,-6.3466,-6.3009,-6.2664,-6.2449,-6.4387,-6.5255,-6.3151,-6.266,-6.2793,-6.3371,-6.3652,-6.3549,-6.3618,-6.4518,-6.5083,-4.097,0.0,0.0,0.0,0.0,-4.2917,-4.4255,-4.6106,-4.5907,-4.5751,-4.5586,-4.5944,0.0,0.0,0.0,0.0,0.0,0.0,-4.9373,-5.0727,-5.3083,-5.4348,-5.4697,-5.5637,-5.5968,-5.5787,-5.5358,-5.5709,-5.6668,-5.6084,-5.451,-5.2165,0.0,0.0,0.0,0.0,-5.839,-6.0262,-6.3155,-6.4819,-6.5207,-6.6299,-6.7257,-6.7942,-6.8247,-6.8583,-6.898,-6.8821,-6.8221,-6.7133,-6.6441,0.0,0.0,0.0,0.0,0.0,0.0,0.0,0.0,0.0,0.0,0.0,0.0,0.0,0.0,0.0,0.0,0.0,0.0,0.0,-6.3153,-6.452,-6.4464,0.0,0.0,0.0,0.0,0.0,0.0,0.0,0.0,0.0,-6.3954,-6.3116,-6.2447,0.0,0.0,-6.0001,-5.8897,-6.0241,-6.1476,-6.1687,-6.1687,0.0,-6.3331,-6.3309,-6.3085,-6.2803,-6.4296,-6.53,-6.4585,-6.5607,-6.6497,-6.6385,-6.7014,-6.7394,-6.7359,-6.6876,-6.6488,-6.673,-6.7143,-6.7556,-6.7591,-6.8221,-6.8704,-4.3454,-4.3149,-4.3037,-4.3806,-4.5161,-4.5822,-4.7106,-4.8834,-4.8686,-4.8471,-4.8106,-4.8686,-4.7925,-4.607,-4.6871,0.0,0.0,0.0,-5.0638,-5.2398,-5.3726,-5.496,-5.5877,-5.6915,-5.7144,-5.6713,-5.668,-5.7077,-5.7773,-5.7563,-5.6667,-5.5106,0.0,-5.4529,-5.5471,-5.8048,-6.0142,-6.1794,-6.4423,-6.6003,-6.6369,-6.7583,-6.8595,-6.9382,-6.9419,-6.9582,-6.9891,-7.0141,-6.9878,-6.8908,-6.8575,-6.7494,0.0,0.0,0.0,0.0,0.0,0.0,0.0,0.0,0.0,0.0,0.0,-6.371,-6.2683,0.0,0.0,0.0,-6.4386,-6.4031,-6.4129,-6.4619,0.0,0.0,0.0,0.0,0.0,0.0,0.0,-6.251,-6.3867,-6.481,-6.4666,-6.3426,-6.2694,-6.3115,-6.2011,-6.0877,-6.0204,0.0,-6.2862,-6.3279,-6.3574,-6.4129,-6.5186,-6.5644,-6.5897,-6.6001,-6.6316,-6.6598,-6.6502,-6.7454,-6.8128,-6.8083,-6.8083,-6.8256,-6.8739,-6.8428,-6.8325,-6.8877,-6.8877,-6.8877,-6.9222,-6.9635,-6.9946,-4.603,-4.6213,-4.4232,-4.5428,-4.8464,-4.8627,-4.947,-5.0803,-5.1152,-5.0398,-4.9166,-5.0586,-5.008,-4.8101,-4.8384,0.0,-5.0203,-4.978,-5.0798,-5.2789,-5.3303,-5.4157,-5.5246,-5.6277,-5.6746,-5.668,-5.668,-5.7155,-5.7864,-5.7431,-5.7562,-5.8212,-5.7564,-5.7251,-5.7423,-5.955,-6.1474,-6.3083,-6.5272,-6.6801,-6.7684,-6.8642,-6.934,-6.9891,-6.9891,-6.9929,-6.9967,-7.0175,-7.0337,-7.0324,-6.9283,-6.8645,-6.8545,0.0,0.0,0.0,0.0,0.0,0.0,0.0,0.0,0.0,0.0,0.0,0.0,0.0,0.0,-6.605,-6.6003,0.0,-6.6165,-6.4594,0.0,0.0,0.0,-6.3924,-6.5253,-6.5528,-6.5528,-6.5383,0.0,0.0,-6.4519,-6.4196,-6.4619,-6.6343,-6.6063,-6.5112,-6.3537,-6.4779,-6.5456,-6.3944,-6.4462,-6.5016,-6.5582,-6.7086,-6.8586,-6.9281,-6.8786,-6.802,-6.8197,-6.8431,-6.8423,-6.8221,-6.8221,-6.8359,-6.8394,-6.8497,-6.8773,-7.0291,-6.9325,-6.8463,-6.9118,-6.9394,-6.9532,-4.7414,-4.8246,-4.7234,-4.7701,-4.898,-5.0353,-5.0673,-5.0347,-5.0982,-5.0909,-5.0395,-5.096,-5.0962,-5.0685,-5.1512,-5.2048,-5.2316,-5.3745,-5.484,-5.5746,-5.6573,-5.7119,-5.7113,-5.743,-5.7243,-5.6713,-5.668,-5.7353,-5.8631,-5.8518,-5.8871,-5.9543,-5.9434,-5.9229,-5.8934,-6.0053,-6.1687,-6.3841,-6.4913,-6.6551,-6.8697,-6.8959,-6.934,-6.9891,-6.9891,-7.0003,-7.0209,-7.0494,-7.0783,-7.099,-7.0911,-7.027,-6.9045,-6.6966,0.0,0.0,0.0,0.0,0.0,0.0,0.0,0.0,0.0,-6.3545,-6.2084,0.0,-6.413,0.0,-6.6298,-6.7499,-6.7072,-6.6845,0.0,0.0,-6.5197,-6.5044,-6.5375,-6.6522,-6.6726,-6.5204,-6.5839,-6.6329,-6.6003,-6.565,-6.6054,-6.7662,-6.5615,-6.3759,-6.3427,-6.5334,-6.6679,-6.6494,-6.7951,-6.9335,-6.9322,-6.9522,-6.9842,-7.0207,-6.9317,-6.8572,-6.8593,-6.8916,-6.9095,-6.9049,-6.9497,-7.0015,-7.0498,-7.0256,-7.0429,-7.1636,-7.0463,-6.9049,-6.9256,-6.9739,-7.0093,-4.7516,-4.8626,-4.8843,-4.8976,-4.9086,-5.0477,-5.0713,-5.0227,-5.0881,-5.1033,-5.1001,-5.1308,-5.1686,-5.2258,-5.2792,-5.3398,-5.4122,-5.4668,-5.5569,-5.6701,-5.6634,-5.6809,-5.7309,-5.7309,-5.731,-5.7181,-5.7181,-5.7796,-5.8897,-5.9215,-5.9596,-6.003,-6.0441,-6.0534,-6.0415,-6.0552,-6.1371,-6.2876,-6.4881,-6.688,-6.9015,-6.934,-6.9281,-6.883,-6.8937,-6.8731,-6.8158,-6.8525,-6.8776,-6.891,-6.9204,-6.8917,-6.7985,-6.6334,-6.4973,0.0,0.0,0.0,0.0,0.0,0.0,0.0,0.0,0.0,0.0,0.0,-6.4893,-6.4658,-6.6756,-6.7703,-6.6684,-6.6671,-6.6736,-6.6653,-6.6574,-6.6789,-6.7553,-6.8335,-6.8392,-6.7306,-6.7579,-6.7776,-6.7642,-6.7272,-6.7518,-6.8877,-6.7406,-6.616,-6.6271,-6.7691,-6.8816,-6.889,-7.0313,-7.1626,-7.1923,-7.1048,-7.0433,-7.0668,-7.0026,-6.9304,-6.9262,-6.9654,-6.9935,-6.9808,-7.0118,-7.0498,-7.0912,-7.0705,-7.0739,-7.1187,-7.067,-6.998,-7.0187,-7.0325,-7.0368,-4.7374,-4.8246,-4.9287,-4.9398,-4.8949,-4.9587,-4.9916,-5.0153,-5.0549,-5.0829,-5.1049,-5.1527,-5.22,-5.2935,-5.3128,-5.4101,-5.5472,-5.4297,-5.4825,-5.6499,-5.5397,-5.5474,-5.668,-5.6834,-5.7181,-5.7814,-5.7887,-5.8353,-5.9045,-5.9679,-6.003,-6.0086,-6.0867,-6.1372,-6.1492,-6.1081,-6.1147,-6.1776,-6.4999,-6.7451,-6.8843,-6.9169,-6.8601,-6.7303,-6.7393,-6.6858,-6.5552,-6.589,-6.6126,-6.6167,-6.6373,-6.6586,-6.678,-6.5244,-6.4442,0.0,-6.3142,0.0,0.0,0.0,0.0,0.0,0.0,0.0,0.0,-6.6148,-6.6063,-6.6295,-6.7264,-6.7454,-6.6408,-6.6136,-6.6636,-6.805,-6.8203,-6.8814,-7.0124,-7.0147,-6.9966,-6.9891,-6.9378,-6.9027,-6.9012,-6.8846,-6.8951,-6.9694,-6.988,-6.9756,-7.0029,-7.0512,-7.0958,-7.1069,-7.1775,-7.2466,-7.263,-7.1562,-7.0709,-7.1051,-7.0558,-7.0155,-7.0027,-7.0417,-7.0776,-7.0614,-7.067,-7.0774,-7.0705,-7.0739,-7.0705,-7.0912,-7.0808,-7.0843,-7.105,-7.0739,-7.0347,-4.8653,-4.8834,-4.8565,-4.8489,-4.8578,-4.8692,-4.8849,-4.8878,-4.9896,-5.0241,-5.0133,-5.2082,-5.2748,-5.2497,-5.3958,-5.4862,-5.5134,-5.5293,-5.5668,-5.6205,-5.6072,-5.629,-5.6757,-5.7331,-5.7668,-5.7814,-5.8424,-5.9113,-5.9809,-5.9937,-6.0035,-6.013,-6.1064,-6.1459,-6.1345,0.0,0.0,0.0,-6.5632,-6.7085,-6.7694,-6.6622,-6.5917,-6.5765,-6.5826,0.0,-6.5974,-6.6046,-6.6206,-6.6406,-6.6454,0.0,0.0,0.0,0.0,0.0,0.0,0.0,0.0,0.0,0.0,0.0,-6.5973,-6.5819,-6.6109,-6.5769,-6.6134,-6.7628,-6.788,-6.8349,-6.9413,-6.9496,-6.9578,-6.9884,-6.9922,-6.9976,-7.0073,-7.0039,-6.9778,-6.9251,-6.9078,-6.9199,-6.9506,-6.9521,-6.9806,-7.0586,-7.1292,-7.1701,-7.1701,-7.1812,-7.1961,-7.1998,-7.2592,-7.265,-7.1684,-7.1386,-7.0893,-7.0376,-7.0097,-7.0132,-7.0486,-7.1018,-7.1339,-7.1291,-7.1808,-7.2222,-7.2222,-7.2222,-7.2153,-7.2222,-7.2222,-7.1912,-7.0843,-7.0498,-7.0119,-4.8041,-4.8555,-4.8348,-4.8409,0.0,-4.8781,-4.8909,-4.8938,-4.9868,-5.0452,-5.0943,-5.2144,-5.2816,-5.3158,-5.4078,-5.508,-5.591,-5.5848,-5.6123,-5.6737,-5.6923,-5.703,-5.7256,-5.7997,-5.8564,-5.8909,-5.9247,-5.9809,-6.0477,-6.0574,-6.0757,-6.1176,-6.2032,-6.284,-6.3544,-6.5127,-6.5732,-6.5373,-6.6519,-6.7619,-6.8601,-6.8015,-6.7337,-6.6651,-6.683,0.0,0.0,0.0,0.0,0.0,0.0,0.0,0.0,-6.7091,0.0,-6.7858,-6.7187,-6.7117,-6.7883,-6.7992,-6.8339,-6.9187,-6.8829,-6.8127,-6.7077,-6.7505,-6.8265,-6.9153,-6.9214,-6.9464,-7.0304,-7.0419,-7.0419,-7.0419,-7.0419,-7.0319,-7.0039,-6.9853,-6.9693,-6.9603,-6.9444,-6.9554,-7.0215,-7.0289,-7.066,-7.1403,-7.1886,-7.2332,-7.2704,-7.2778,-7.2778,-7.2778,-7.2429,-7.238,-7.223,-7.138,-7.1123,-7.104,-7.107,-7.1062,-7.1169,-7.1732,-7.2084,-7.2119,-7.2429,-7.2671,-7.2671,-7.2671,-7.2671,-7.2671,-7.2671,-7.2498,-7.1636,-7.1498,-7.1232,-4.726,-4.8207,-4.838,-4.8581,-4.8681,-4.9108,-4.9519,-5.0046,0.0,0.0,0.0,-5.2567,-5.3284,-5.4198,-5.4337,-5.5281,-5.6743,-5.6173,-5.6414,-5.7338,-5.7448,-5.7668,-5.7814,-5.8703,-5.938,-6.0001,-6.0164,-6.0477,-6.1093,-6.1354,-6.1771,-6.2475,-6.3493,-6.4819,-6.6492,-6.8278,-6.8579,-6.7344,-6.7392,-6.8144,-6.9509,-6.9518,-6.8863,-6.7658,-6.7981,-6.758,-6.6397,-6.6422,-6.6508,-6.6508,-6.6508,-6.664,-6.6942,-6.7079,-6.7277,-6.7529,-6.7637,-6.8312,-6.9662,-6.9752,-7.0307,-7.1677,-7.1317,-7.031,-6.8495,-6.9616,-7.0419,-7.0419,-7.0419,-7.0419,-7.0419,-7.0419,-7.0419,-7.0419,-7.0386,-7.0289,-7.0156,-6.9848,-6.9821,-7.0218,-7.0076,-7.0252,-7.0995,-7.1143,-7.1441,-7.2184,-7.2444,-7.2592,-7.3224,-7.3335,-7.3298,-7.3246,-7.2463,-7.2012,-7.2605,-7.1852,-7.1152,-7.1889,-7.2092,-7.2105,-7.2104,-7.2389,-7.2636,-7.2602,-7.2671,-7.2671,-7.2671,-7.2671,-7.2671,-7.2671,-7.2671,-7.2671,-7.2671,-7.2552,-7.1969,-4.8106,-4.8409,-4.8481,-4.8781,-4.9207,-4.9305,-5.0573,-5.2591,-5.2048,-5.1608,-5.1413,-5.4204,-5.526,-5.5011,-5.5814,-5.6381,-5.6776,-5.6253,-5.6231,-5.6612,-5.7364,-5.7814,-5.7887,-5.918,-5.9873,-6.0001,-6.0635,-6.0974,-6.1224,-6.2284,-6.2872,-6.3237,-6.516,-6.7024,-6.8563,-6.9303,-6.9585,-6.9436,-6.8184,-6.7711,-6.8158,-6.6902,-6.6372,-6.6513,-6.6671,-6.6591,-6.6477,-6.6532,-6.6508,-6.6508,-6.6508,-6.7189,-6.8678,-6.8847,-6.9523,-7.1015,-7.1156,-7.1282,-7.1507,-7.1487,-7.1381,-7.1242,-7.1141,-7.0811,-7.0139,-7.0266,-7.0419,-7.0419,-7.0419,-7.0419,-7.0419,-7.0419,-7.0457,-7.0424,-7.0217,-7.0194,-7.0567,-7.031,-7.033,-7.0772,-7.0785,-7.1069,-7.1812,-7.1998,-7.2295,-7.3001,-7.3075,-7.3224,-7.341,-7.3372,-7.3372,-7.332,-7.2613,-7.2109,-7.2243,-7.1616,-7.136,-7.1573,-7.2035,-7.2302,-7.2493,-7.2651,-7.2671,-7.2671,-7.2671,-7.2671,-7.2671,-7.2671,-7.2671,-7.2671,-7.2671,-7.2671,-7.2671,-7.2038,-7.1086,-4.8409,-4.8481,-4.881,-4.9108,-4.9334,-5.0408,-5.1816,-5.3371,-5.3653,-5.3959,-5.4451,-5.5144,-5.5629,-5.5858,-5.6007,-5.6384,-5.6876,-5.6857,-5.7181,-5.7668,-5.8564,-5.8977,-5.9113,-6.01,-6.0848,-6.1202,-6.1152,-6.1664,-6.2767,-6.3016,-6.3712,-6.4875,-6.6827,-6.8323,-6.9382,-6.9699,-6.9929,-7.0106,-6.9417,-6.906,-6.9183,-6.8833,-6.876,-6.8973,-6.909,-6.9218,-6.9267,-6.9267,-6.9267,-6.9267,-6.9278,-6.9694,-7.0502,-7.0626,-7.1015,-7.1791,-7.1891,-7.1906,-7.1877,-7.1827,-7.1587,-7.1141,-7.1098,-7.0888,-7.0413,-7.0419,-7.0419,-7.0419,-7.0419,-7.0419,-7.0419,-7.0839,-7.1107,-7.1107,-7.121,-7.137,-7.1354,-7.1087,-7.106,-7.1541,-7.1589,-7.1923,-7.2741,-7.2815,-7.2927,-7.3335,-7.3372,-7.3521,-7.3967,-7.4041,-7.3898,-7.3481,-7.2834,-7.2608,-7.2789,-7.2367,-7.2107,-7.2359,-7.2533,-7.2624,-7.272,-7.2671,-7.2671,-7.2671,-7.2671,-7.2671,-7.2671,-7.2671,-7.2671,-7.2671,-7.2671,-7.2671,-7.2586,-7.1532,-7.0196,-4.8666,-4.8808,-4.9308,-4.9791,-5.033,-5.2287,-5.353,-5.4231,-5.5058,-5.6193,-5.709,-5.5788,-5.5549,-5.6302,-5.6238,-5.6579,-5.7105,-5.7689,-5.8239,-5.8806,-5.9613,-6.0001,-6.01,-6.0935,-6.1724,-6.2403,-6.2009,-6.2789,-6.4274,-6.4166,-6.505,-6.6938,-6.8306,-6.9219,-6.9816,-6.9966,-7.0106,-7.04,-7.0455,-7.0524,-7.0524,-7.099,-7.1236,-7.1299,-7.1452,-7.1598,-7.1598,-7.1598,-7.1575,-7.1622,-7.1692,-7.1721,-7.1737,-7.1825,-7.1949,-7.208,-7.2151,-7.2248,-7.2373,-7.2362,-7.2171,-7.1721,-7.1678,-7.1505,-7.1051,-7.0992,-7.0877,-7.0724,-7.0763,-7.0801,-7.1107,-7.1603,-7.1952,-7.1884,-7.2202,-7.2278,-7.2133,-7.1862,-7.1883,-7.236,-7.2444,-7.2704,-7.3224,-7.3372,-7.3372,-7.3372,-7.3521,-7.393,-7.445,-7.4657,-7.4386,-7.3882,-7.3161,-7.2875,-7.3511,-7.2941,-7.2669,-7.3113,-7.3135,-7.297,-7.2755,-7.2671,-7.2671,-7.2671,-7.2671,-7.2671,-7.2671,-7.2671,-7.2671,-7.2671,-7.2671,-7.2552,-7.1796,-7.069,-6.9346,-4.9051,-4.9766,-5.0169,-5.1257,-5.3002,-5.4822,-5.5758,-5.5873,-5.6231,-5.7119,-5.8087,-5.6279,-5.5604,-5.6042,-5.7094,-5.7553,-5.7621,-5.8783,-5.9215,-5.9046,-5.9679,-6.0001,-6.0269,-6.1564,-6.2521,-6.3088,-6.3651,-6.4312,-6.5301,-6.6236,-6.7589,-6.9106,-6.9542,-6.9816,-7.0205,-7.0238,-7.0432,-7.0728,-7.099,-7.1108,-7.1108,-7.1192,-7.1319,-7.1525,-7.1581,-7.1598,-7.1598,-7.1598,-7.1637,-7.1677,-7.1739,-7.1792,-7.1912,-7.1871,-7.2197,-7.3016,-7.3018,-7.3297,-7.4038,-7.4155,-7.3868,-7.3524,-7.3358,-7.3138,-7.2734,-7.2711,-7.2406,-7.1833,-7.1603,-7.1871,-7.2635,-7.2826,-7.2723,-7.2432,-7.2548,-7.2503,-7.2665,-7.2632,-7.278,-7.3238,-7.3187,-7.3298,-7.3372,-7.3447,-7.3447,-7.3521,-7.4115,-7.4561,-7.4714,-7.4829,-7.4835,-7.4579,-7.3838,-7.3186,-7.3216,-7.2668,-7.2568,-7.2783,-7.3088,-7.3005,-7.2838,-7.2671,-7.2671,-7.2671,-7.2671,-7.2671,-7.2671,-7.2671,-7.2671,-7.2671,-7.2501,-7.209,-7.0473,-6.9346,-6.8436,-5.0198,-5.1648,-5.1876,-5.3375,-5.5504,-5.5983,-5.6447,-5.697,-5.7086,-5.7255,-5.7372,-5.738,-5.769,-5.8247,-5.864,-5.8908,-5.9179,-6.0116,-6.059,-6.0768,-6.1184,-6.1768,-6.2618,-6.3177,-6.3997,-6.4911,-6.4875,-6.5632,-6.7037,-6.8008,-6.8908,-6.9582,-6.9891,-7.0106,-7.0304,-7.0494,-7.0755,-7.1014,-7.1131,-7.1278,-7.1397,-7.1454,-7.149,-7.1598,-7.1598,-7.1598,-7.1653,-7.2118,-7.2432,-7.249,-7.3016,-7.3387,-7.3437,-7.342,-7.3576,-7.3913,-7.3904,-7.3999,-7.4388,-7.4236,-7.4045,-7.3712,-7.3548,-7.3322,-7.3046,-7.2979,-7.2979,-7.3132,-7.275,-7.2635,-7.3017,-7.3437,-7.3598,-7.3493,-7.3535,-7.3624,-7.3703,-7.3362,-7.3242,-7.3387,-7.3372,-7.3372,-7.3484,-7.3818,-7.4078,-7.419,-7.4784,-7.5308,-7.542,-7.5478,-7.5369,-7.5001,-7.4333,-7.3825,-7.3498,-7.3168,-7.2939,-7.2901,-7.2922,-7.2838,-7.2755,-7.2671,-7.2671,-7.2671,-7.2671,-7.2671,-7.2671,-7.2671,-7.2671,-7.2586,-7.2038,-7.1266,-6.9346,-6.8699,-6.8136,-5.1659,-5.3421,-5.4243,-5.5533,-5.7164,-5.6867,-5.6979,-5.7288,-5.7288,-5.7228,-5.7249,-5.8327,-5.9585,-6.0763,-6.0545,-6.0545,-6.0842,-6.1722,-6.2174,-6.2408,-6.2677,-6.3343,-6.4251,-6.4729,-6.544,-6.6353,-6.622,-6.6963,-6.8605,-6.9256,-6.9661,-6.9853,-7.0209,-7.0432,-7.0546,-7.081,-7.1077,-7.1278,-7.1299,-7.1494,-7.1892,-7.1947,-7.1947,-7.1947,-7.1947,-7.2041,-7.2337,-7.2977,-7.3378,-7.3431,-7.4093,-7.449,-7.4483,-7.448,-7.4585,-7.484,-7.4995,-7.5129,-7.509,-7.488,-7.4615,-7.4409,-7.4179,-7.3906,-7.3767,-7.3667,-7.3934,-7.4393,-7.401,-7.3705,-7.3743,-7.4201,-7.4437,-7.4332,-7.444,-7.4493,-7.4139,-7.374,-7.349,-7.3424,-7.3372,-7.3484,-7.3744,-7.4227,-7.4598,-7.4933,-7.5639,-7.6051,-7.6029,-7.5983,-7.5778,-7.5192,-7.4677,-7.4068,-7.3657,-7.3345,-7.3252,-7.3005,-7.2838,-7.2922,-7.2755,-7.2671,-7.2671,-7.2671,-7.2671,-7.2671,-7.2671,-7.2671,-7.2382,-7.2124,-7.1355,-7.023,-6.8798,-6.8336,-6.7765,-5.3038,-5.5371,-5.7121,-5.7551,-5.7195,-5.7932,-5.7688,-5.6788,-5.6691,-5.7364,-5.8621,-5.8913,-6.056,-6.3328,-6.271,-6.2405,-6.2258,-6.3483,-6.3831,-6.35,-6.3964,-6.4251,-6.438,-6.5586,-6.6565,-6.7232,-6.78,-6.8493,-6.9374,-6.974,-7.0033,-7.0209,-7.0554,-7.0889,-7.1085,-7.1131,-7.1358,-7.1624,-7.1642,-7.2008,-7.2724,-7.2841,-7.2857,-7.2935,-7.2841,-7.3231,-7.3987,-7.4205,-7.4289,-7.4413,-7.449,-7.4513,-7.4531,-7.4489,-7.485,-7.5608,-7.6376,-7.6804,-7.6741,-7.6459,-7.6187,-7.6011,-7.5694,-7.5595,-7.5187,-7.5119,-7.5195,-7.5386,-7.5233,-7.5195,-7.5195,-7.5195,-7.5055,-7.4509,-7.4743,-7.4444,-7.3591,-7.374,-7.3691,-7.3476,-7.3447,-7.3744,-7.4413,-7.4561,-7.5081,-7.5713,-7.6493,-7.6736,-7.6166,-7.6017,-7.5715,-7.5083,-7.4446,-7.3817,-7.3415,-7.3334,-7.3135,-7.2922,-7.2922,-7.3088,-7.2838,-7.2671,-7.2671,-7.2671,-7.2671,-7.2671,-7.2671,-7.2382,-7.2004,-7.1266,-7.0136,-6.8895,-6.8004,-6.7459,-6.7078,-5.4819,-5.7183,-5.8064,-5.8285,-5.7997,-5.7474,-5.7525,-5.7953,-5.792,-5.888,-6.0337,-6.135,-6.2541,-6.3719,-6.4148,-6.4066,-6.366,-6.423,-6.4598,-6.4734,-6.499,-6.5752,-6.6957,-6.7455,-6.7911,-6.8481,-6.875,-6.9214,-6.9778,-7.0167,-7.0394,-7.0613,-7.0889,-7.1085,-7.1236,-7.1359,-7.178,-7.2358,-7.2452,-7.2841,-7.3673,-7.3766,-7.4055,-7.4561,-7.4094,-7.396,-7.4375,-7.4887,-7.5225,-7.5273,-7.5802,-7.6119,-7.617,-7.6088,-7.6175,-7.6493,-7.6689,-7.6747,-7.6715,-7.6355,-7.6135,-7.6029,-7.578,-7.5633,-7.5497,-7.5501,-7.5501,-7.5501,-7.5501,-7.5501,-7.5501,-7.5501,-7.532,-7.4861,-7.4657,-7.4363,-7.3848,-7.3641,-7.3527,-7.3499,-7.3781,-7.4301,-7.4747,-7.549,-7.627,-7.6604,-7.6901,-7.6801,-7.619,-7.5783,-7.5191,-7.4446,-7.3861,-7.3496,-7.3415,-7.3334,-7.317,-7.2922,-7.2838,-7.2838,-7.2755,-7.2671,-7.2671,-7.2671,-7.2671,-7.2586,-7.2586,-7.2038,-7.1566,-6.9916,-6.8699,-6.8236,-6.7356,-6.6974,-6.6796,-5.6864,-5.8191,-5.8549,-5.8518,-5.8162,-5.7558,-5.7773,-5.8847,-5.9085,-6.0112,-6.1586,-6.2729,-6.3583,-6.4253,-6.5046,-6.5326,-6.5109,-6.5295,-6.5466,-6.5902,-6.6243,-6.7132,-6.8271,-6.8586,-6.8855,-6.9203,-6.9336,-6.9663,-7.0167,-7.0507,-7.0771,-7.094,-7.1214,-7.1319,-7.1397,-7.178,-7.2336,-7.2841,-7.32,-7.3776,-7.4544,-7.47,-7.517,-7.5811,-7.5467,-7.5176,-7.5255,-7.5819,-7.6132,-7.6243,-7.675,-7.7059,-7.7043,-7.7053,-7.696,-7.6858,-7.6715,-7.6552,-7.6458,-7.6096,-7.5899,-7.587,-7.5666,-7.5501,-7.5501,-7.5501,-7.5501,-7.5501,-7.5501,-7.5501,-7.5501,-7.543,-7.5209,-7.4859,-7.445,-7.4093,-7.3752,-7.3527,-7.3573,-7.3855,-7.4524,-7.5007,-7.5453,-7.6419,-7.694,-7.7125,-7.7179,-7.6846,-7.5927,-7.5406,-7.4823,-7.3975,-7.3737,-7.3577,-7.3415,-7.3415,-7.3252,-7.3005,-7.2838,-7.2755,-7.2671,-7.2671,-7.2671,-7.2671,-7.2671,-7.2586,-7.221,-7.1688,-7.0415,-6.8667,-6.8136,-6.7765,-6.7181,-6.6796,-6.6617,-5.9143,-5.8561,-5.8615,-5.8259,-5.793,-5.8363,-5.8767,-5.9152,-5.9852,-6.1081,-6.2534,-6.2749,-6.3834,-6.5008,-6.5445,-6.5887,-6.6427,-6.6591,-6.6707,-6.6822,-6.7694,-6.8222,-6.849,-6.89,-6.916,-6.9294,-6.9625,-7.0061,-7.0507,-7.0838,-7.107,-7.1236,-7.1454,-7.1603,-7.1636,-7.2413,-7.2896,-7.3278,-7.3938,-7.4739,-7.5502,-7.5663,-7.6072,-7.6795,-7.6836,-7.6797,-7.6875,-7.6914,-7.6907,-7.699,-7.6989,-7.6985,-7.7022,-7.6987,-7.6858,-7.666,-7.657,-7.6458,-7.6204,-7.5964,-7.584,-7.581,-7.5628,-7.5501,-7.5501,-7.5501,-7.5501,-7.5501,-7.5465,-7.5465,-7.5392,-7.5133,-7.4781,-7.445,-7.4139,-7.38,-7.3601,-7.3499,-7.3707,-7.4524,-7.5304,-7.6121,-7.6753,-7.707,-7.7143,-7.7179,-7.6997,-7.6526,-7.5477,-7.5082,-7.4673,-7.4209,-7.3772,-7.3577,-7.3577,-7.3496,-7.3252,-7.3005,-7.2922,-7.2838,-7.2755,-7.2671,-7.2671,-7.2671,-7.2671,-7.2586,-7.1532,-7.0906,-7.017,-6.8798,-6.8169,-6.7491,-6.7109,-6.6828,-6.6818,-5.8551,-5.8,-5.8453,-5.8535,-5.8429,-5.872,-5.9667,-6.1211,-6.1615,-6.2643,-6.4008,-6.4251,-6.4767,-6.5374,-6.5887,-6.6319,-6.6736,-6.7486,-6.7856,-6.7908,-6.821,-6.8623,-6.89,-6.9116,-6.934,-6.9664,-7.026,-7.0651,-7.0863,-7.1236,-7.1455,-7.149,-7.1564,-7.1908,-7.2508,-7.2832,-7.3432,-7.4664,-7.5074,-7.5663,-7.6411,-7.6544,-7.6756,-7.6953,-7.7061,-7.7087,-7.7048,-7.7087,-7.7073,-7.7082,-7.702,-7.6985,-7.696,-7.683,-7.6715,-7.6591,-7.6289,-7.607,-7.6002,-7.578,-7.5628,-7.5633,-7.5532,-7.5535,-7.5501,-7.5501,-7.5501,-7.5465,-7.5283,-7.5171,-7.5056,-7.4573,-7.435,-7.4406,-7.4131,-7.4001,-7.4294,-7.471,-7.5118,-7.5416,-7.6159,-7.6753,-7.7033,-7.7162,-7.7201,-7.7023,-7.6461,-7.5618,-7.5155,-7.4673,-7.4252,-7.3817,-7.3692,-7.3612,-7.3496,-7.3415,-7.317,-7.3005,-7.2922,-7.2838,-7.2755,-7.2671,-7.2671,-7.2671,-7.2671,-7.2124,-7.1086,-7.023,-6.9604,-6.8732,-6.7899,-6.742,-6.7109,-6.6996,-6.6976,-5.8389,-5.8032,-5.8763,-5.9168,-5.9278,-5.9801,-6.1129,-6.2741,-6.3132,-6.3939,-6.4876,-6.5046,-6.5379,-6.5859,-6.6319,-6.6816,-6.7378,-6.8111,-6.849,-6.8633,-6.8679,-6.89,-6.9203,-6.9336,-6.9702,-7.0162,-7.0689,-7.1014,-7.1197,-7.1785,-7.2069,-7.2103,-7.2438,-7.2871,-7.3416,-7.3854,-7.4654,-7.556,-7.5975,-7.6427,-7.6824,-7.6992,-7.7064,-7.7022,-7.7078,-7.7101,-7.7095,-7.7089,-7.7089,-7.7075,-7.7051,-7.6955,-7.6858,-7.6715,-7.6516,-7.6311,-7.6083,-7.587,-7.5756,-7.5599,-7.5501,-7.5501,-7.5501,-7.5501,-7.5501,-7.5501,-7.5427,-7.5283,-7.5133,-7.5053,-7.5115,-7.4756,-7.4601,-7.5125,-7.4571,-7.4499,-7.4986,-7.575,-7.6196,-7.6419,-7.7013,-7.7422,-7.7534,-7.757,-7.7316,-7.6883,-7.6063,-7.5082,-7.4897,-7.4287,-7.3975,-7.3852,-7.3737,-7.3657,-7.3496,-7.3334,-7.3088,-7.3005,-7.2922,-7.2838,-7.2755,-7.2671,-7.2671,-7.2501,-7.2501,-7.1742,-7.0815,-7.017,-6.9508,-6.8567,-6.7625,-6.7317,-6.7141,-6.7282,-6.7293,-5.8637,-5.8755,-5.9597,-6.0089,-6.0311,-6.1661,-6.2737,-6.3612,-6.4288,-6.474,-6.5046,-6.5313,-6.576,-6.6344,-6.6758,-6.7432,-6.8247,-6.8442,-6.8763,-6.9072,-6.9203,-6.9289,-6.9332,-6.9701,-7.0205,-7.07,-7.094,-7.1269,-7.1688,-7.2401,-7.2957,-7.3045,-7.3704,-7.4322,-7.446,-7.5241,-7.5584,-7.5946,-7.6559,-7.6953,-7.7031,-7.7052,-7.7107,-7.7107,-7.7101,-7.7095,-7.7082,-7.7067,-7.7059,-7.7059,-7.6965,-7.6833,-7.6643,-7.6552,-7.6333,-7.6013,-7.5899,-7.5756,-7.5566,-7.5535,-7.5501,-7.5501,-7.5615,-7.5539,-7.5692,-7.5809,-7.574,-7.5513,-7.5279,-7.5305,-7.5569,-7.5351,-7.5533,-7.6082,-7.5543,-7.5283,-7.5787,-7.6604,-7.705,-7.7273,-7.783,-7.8276,-7.8165,-7.809,-7.7316,-7.6526,-7.5927,-7.5046,-7.4482,-7.4088,-7.401,-7.3931,-7.3817,-7.3657,-7.3415,-7.3252,-7.3088,-7.2922,-7.2922,-7.2838,-7.2671,-7.2586,-7.2671,-7.2501,-7.2038,-7.13,-7.0632,-6.9888,-6.9123,-6.8068,-6.7491,-6.7285,-6.7396,-6.7599,-6.7894,-5.8774,-5.8954,-6.0839,-6.168,-6.1838,-6.2837,-6.3653,-6.4393,-6.4775,-6.5014,-6.5313,-6.5824,-6.6283,-6.6736,-6.7594,-6.8148,-6.8442,-6.8809,-6.9027,-6.9246,-6.9501,-6.9622,-6.9778,-7.0271,-7.0671,-7.094,-7.1308,-7.1785,-7.2479,-7.288,-7.3294,-7.3912,-7.4272,-7.4714,-7.528,-7.561,-7.6052,-7.66,-7.6868,-7.7087,-7.7083,-7.7073,-7.7101,-7.7101,-7.7101,-7.7095,-7.7082,-7.6916,-7.6755,-7.6728,-7.6723,-7.657,-7.6394,-7.6273,-7.621,-7.6053,-7.5769,-7.5638,-7.5574,-7.5577,-7.5539,-7.5539,-7.6112,-7.6379,-7.6418,-7.6694,-7.6806,-7.668,-7.6381,-7.6056,-7.6129,-7.5907,-7.6111,-7.6691,-7.651,-7.6456,-7.679,-7.7422,-7.7979,-7.8016,-7.8165,-7.8276,-7.8071,-7.7473,-7.6656,-7.6027,-7.5299,-7.4598,-7.4132,-7.401,-7.401,-7.3852,-7.3737,-7.3496,-7.3334,-7.317,-7.297,-7.2838,-7.2838,-7.2922,-7.2586,-7.2331,-7.2416,-7.2501,-7.1566,-7.0757,-7.017,-6.9571,-6.8634,-6.7856,-6.79,-6.7947,-6.8033,-6.8203,-6.8762,-5.9956,-6.037,-6.2072,-6.2816,-6.2948,-6.3687,-6.4252,-6.4706,-6.4911,-6.5212,-6.5697,-6.6161,-6.678,-6.7486,-6.8111,-6.8538,-6.8763,-6.9072,-6.9289,-6.9542,-6.9997,-7.0205,-7.0337,-7.07,-7.094,-7.1224,-7.1765,-7.2326,-7.294,-7.3605,-7.4327,-7.4828,-7.5265,-7.574,-7.6196,-7.6289,-7.6514,-7.698,-7.7078,-7.7101,-7.7101,-7.7101,-7.7101,-7.7101,-7.7101,-7.7167,-7.7365,-7.7637,-7.7431,-7.6893,-7.6826,-7.6876,-7.6636,-7.6861,-7.6878,-7.6792,-7.6637,-7.657,-7.6532,-7.657,-7.6532,-7.6609,-7.7067,-7.7109,-7.7074,-7.7262,-7.7328,-7.6859,-7.6563,-7.6543,-7.6714,-7.6766,-7.7105,-7.7551,-7.7608,-7.757,-7.757,-7.7979,-7.8239,-7.8276,-7.8276,-7.8165,-7.79,-7.7009,-7.633,-7.5721,-7.5046,-7.4522,-7.4053,-7.4088,-7.401,-7.3931,-7.3772,-7.3657,-7.3415,-7.3252,-7.3005,-7.2838,-7.2755,-7.2838,-7.2586,-7.221,-7.2124,-7.2038,-7.112,-7.0296,-6.9765,-6.9353,-6.8788,-6.8396,-6.8604,-6.8575,-6.8659,-6.8901,-6.9459,-6.1689,-6.2445,-6.324,-6.3643,-6.3754,-6.4393,-6.4637,-6.4775,-6.5011,-6.5504,-6.6064,-6.6523,-6.7341,-6.8394,-6.849,-6.8763,-6.916,-6.9289,-6.9584,-6.9961,-7.0463,-7.0728,-7.081,-7.0928,-7.1163,-7.1472,-7.2346,-7.2828,-7.3379,-7.4717,-7.5541,-7.5842,-7.6512,-7.6875,-7.6873,-7.697,-7.7068,-7.7068,-7.7107,-7.7101,-7.714,-7.7257,-7.7414,-7.7414,-7.7582,-7.7716,-7.8104,-7.847,-7.8321,-7.6863,-7.7302,-7.7421,-7.7323,-7.7954,-7.8135,-7.79,-7.7791,-7.7793,-7.7908,-7.7755,-7.787,-7.7831,-7.7946,-7.7951,-7.7718,-7.7707,-7.7641,-7.7164,-7.6656,-7.6938,-7.725,-7.783,-7.8053,-7.8165,-7.8202,-7.8276,-7.8276,-7.8276,-7.8276,-7.8276,-7.8276,-7.7805,-7.7413,-7.7009,-7.6461,-7.5477,-7.4861,-7.4405,-7.4053,-7.401,-7.401,-7.401,-7.3931,-7.3772,-7.3577,-7.3334,-7.3088,-7.2922,-7.2755,-7.2755,-7.2586,-7.2331,-7.2038,-7.1512,-7.0356,-6.9831,-6.9646,-6.9121,-6.8763,-6.8796,-6.8786,-6.8933,-6.897,-6.9508,-7.011,-6.2552,-6.3314,-6.4076,-6.4428,-6.4463,-6.4637,-6.4775,-6.4979,-6.5597,-6.6064,-6.6546,-6.745,-6.806,-6.8442,-6.8809,-6.9116,-6.9289,-6.9582,-6.9999,-7.0554,-7.0671,-7.1004,-7.1186,-7.133,-7.1394,-7.1707,-7.2385,-7.3223,-7.4094,-7.5062,-7.5998,-7.6668,-7.6795,-7.7028,-7.7083,-7.7073,-7.7101,-7.7101,-7.7101,-7.7179,-7.7335,-7.7843,-7.8116,-7.8143,-7.8545,-7.8806,-7.8792,-7.8718,-7.8412,-7.8139,-7.8132,-7.8185,-7.7998,-7.8088,-7.8244,-7.8211,-7.8137,-7.8061,-7.8061,-7.8137,-7.8061,-7.8213,-7.8673,-7.8866,-7.8514,-7.8668,-7.8653,-7.8329,-7.8043,-7.7845,-7.796,-7.8128,-7.8276,-7.8276,-7.8276,-7.8276,-7.8276,-7.8276,-7.8313,-7.8165,-7.7805,-7.7353,-7.7133,-7.613,-7.5618,-7.5082,-7.4673,-7.4287,-7.4053,-7.401,-7.401,-7.401,-7.3852,-7.3657,-7.3577,-7.3334,-7.3088,-7.2922,-7.2755,-7.2501,-7.2416,-7.2034,-7.1626,-7.08,-6.9604,-6.9288,-6.9483,-6.8968,-6.8585,-6.8882,-6.9174,-6.9382,-6.9651,-7.0188,-7.041,-6.3728,-6.4076,-6.4533,-6.4706,-6.4775,-6.5145,-6.5308,-6.5533,-6.6271,-6.6858,-6.7305,-6.8111,-6.8538,-6.8772,-6.9072,-6.9289,-6.9584,-6.9995,-7.0233,-7.0371,-7.0684,-7.1163,-7.1489,-7.1843,-7.2095,-7.2249,-7.3084,-7.4003,-7.4906,-7.578,-7.6544,-7.6953,-7.7026,-7.7091,-7.7107,-7.7101,-7.7101,-7.7218,-7.7531,-7.7726,-7.7843,-7.8546,-7.8901,-7.8984,-7.9429,-7.9742,-7.9438,-7.9597,-7.9515,-7.9402,-7.9335,-7.9114,-7.8785,-7.8939,-7.913,-7.9169,-7.9169,-7.9169,-7.9207,-7.9169,-7.9207,-7.913,-7.9477,-7.9315,-7.9096,-7.9152,-7.8916,-7.8633,-7.8404,-7.8276,-7.8276,-7.8276,-7.8276,-7.8276,-7.8276,-7.8276,-7.8276,-7.8313,-7.8165,-7.7863,-7.7473,-7.682,-7.6197,-7.5406,-7.4935,-7.4633,-7.4482,-7.4088,-7.4088,-7.401,-7.401,-7.3931,-7.3657,-7.3496,-7.3496,-7.3252,-7.2922,-7.2838,-7.2755,-7.2416,-7.2038,-7.166,-7.1203,-7.0386,-6.968,-6.9479,-6.9426,-6.8988,-6.8945,-6.9409,-6.9808,-7.0078,-7.0252,-7.0473,-7.0599,-6.4706,-6.4706,-6.4706,-6.4775,-6.4944,-6.5597,-6.594,-6.6211,-6.6992,-6.7626,-6.8124,-6.8357,-6.8809,-6.9116,-6.9289,-6.9542,-6.9959,-7.0164,-7.0179,-7.026,-7.1163,-7.1623,-7.1939,-7.2541,-7.3159,-7.3307,-7.408,-7.4945,-7.5624,-7.6505,-7.6875,-7.7028,-7.7048,-7.7107,-7.7101,-7.7257,-7.7414,-7.7531,-7.8194,-7.8585,-7.8741,-7.9444,-7.983,-8.0039,-8.0193,-8.0358,-8.0176,-8.0346,-8.0586,-8.0505,-8.0506,-8.0124,-7.9856,-8.0047,-8.0506,-8.043,-8.0277,-8.0238,-8.02,-8.0315,-8.0315,-8.0468,-8.0197,-7.9746,-7.934,-7.8966,-7.8738,-7.8458,-7.8276,-7.8276,-7.8276,-7.8276,-7.8276,-7.8276,-7.8276,-7.8221,-7.8165,-7.8165,-7.7805,-7.7413,-7.682,-7.613,-7.5618,-7.4971,-7.4558,-7.4209,-7.4088,-7.401,-7.401,-7.401,-7.401,-7.3931,-7.3657,-7.3334,-7.317,-7.3088,-7.2838,-7.2724,-7.2689,-7.2398,-7.1906,-7.1564,-7.1275,-7.0855,-7.0273,-6.996,-6.972,-6.9681,-6.9804,-7.0171,-7.0347,-7.0521,-7.0599,-7.0757,-7.0789,-6.4706,-6.4706,-6.4706,-6.5011,-6.5568,-6.5851,-6.6368,-6.6952,-6.7679,-6.8074,-6.8405,-6.8855,-6.9072,-6.9289,-6.9582,-7.0033,-7.0264,-7.014,-7.0221,-7.0892,-7.1876,-7.2404,-7.2735,-7.347,-7.4234,-7.4989,-7.5346,-7.5545,-7.588,-7.6523,-7.6987,-7.7083,-7.7107,-7.7101,-7.7375,-7.7765,-7.8077,-7.8311,-7.9014,-7.9444,-7.9678,-8.0289,-8.0904,-8.1102,-8.1018,-8.0834,-8.0733,-8.0591,-8.0542,-8.0506,-8.0506,-8.043,-8.0277,-8.0391,-8.0506,-8.0506,-8.0506,-8.0506,-8.0506,-8.0506,-8.0354,-8.0157,-7.995,-7.9607,-7.9102,-7.8803,-7.8581,-7.8441,-7.8276,-7.8276,-7.8276,-7.8276,-7.8276,-7.8276,-7.8221,-7.8014,-7.7592,-7.7353,-7.7255,-7.6883,-7.613,-7.5406,-7.5009,-7.4633,-7.4364,-7.4088,-7.4088,-7.401,-7.401,-7.401,-7.401,-7.3817,-7.3577,-7.317,-7.2838,-7.2838,-7.2705,-7.2725,-7.269,-7.2505,-7.2076,-7.1804,-7.1325,-7.0963,-7.0659,-7.026,-7.0215,-7.0231,-7.0298,-7.0537,-7.0679,-7.0789,-7.0789,-7.0789,-7.0789,-6.4911,-6.5212,-6.5212,-6.5597,-6.6307,-6.6743,-6.7195,-6.7679,-6.8357,-6.8726,-6.8855,-6.9072,-6.9203,-6.9332,-6.9622,-6.998,-6.998,-6.9962,-7.0351,-7.1373,-7.2267,-7.3025,-7.3529,-7.4412,-7.5041,-7.5668,-7.6041,-7.6306,-7.6406,-7.679,-7.7087,-7.7073,-7.7101,-7.7296,-7.7726,-7.8155,-7.8663,-7.9092,-7.9873,-8.0381,-8.0413,-8.1126,-8.1597,-8.1427,-8.1296,-8.1041,-8.0805,-8.0646,-8.0506,-8.0506,-8.0506,-8.0506,-8.0506,-8.0506,-8.0506,-8.0506,-8.0506,-8.0506,-8.0468,-8.0392,-8.0157,-7.9992,-7.9652,-7.9246,-7.8891,-7.8633,-7.8458,-7.8386,-7.8276,-7.8276,-7.8276,-7.8276,-7.8276,-7.8221,-7.8014,-7.7592,-7.7133,-7.6563,-7.6264,-7.6197,-7.5618,-7.5009,-7.4522,-7.4287,-7.4088,-7.401,-7.401,-7.401,-7.401,-7.3931,-7.3931,-7.3657,-7.3496,-7.317,-7.2789,-7.2724,-7.2657,-7.2638,-7.2642,-7.2472,-7.2351,-7.1919,-7.1552,-7.1178,-7.0817,-7.0546,-7.0671,-7.079,-7.0791,-7.0774,-7.0726,-7.0789,-7.0789,-7.0789,-7.0757,-6.5212,-6.5661,-6.5851,-6.6307,-6.7028,-6.7626,-6.8023,-6.8405,-6.89,-6.916,-6.9203,-6.9203,-6.9246,-6.9382,-6.9587,-6.9795,-6.9823,-7.0181,-7.0965,-7.2091,-7.2985,-7.3743,-7.4438,-7.522,-7.5863,-7.6113,-7.6553,-7.6992,-7.6948,-7.7048,-7.7185,-7.7414,-7.7414,-7.7804,-7.8507,-7.9014,-7.9405,-7.9951,-8.0771,-8.1239,-8.136,-8.1622,-8.1714,-8.1259,-8.1098,-8.0869,-8.072,-8.0542,-8.0506,-8.0506,-8.0506,-8.0506,-8.0506,-8.0506,-8.0506,-8.0506,-8.0506,-8.0468,-8.0315,-8.0197,-7.995,-7.9652,-7.915,-7.8891,-7.8633,-7.8458,-7.8332,-7.8276,-7.8276,-7.8276,-7.8276,-7.8276,-7.8221,-7.7957,-7.7533,-7.7009,-7.6461,-7.5927,-7.5335,-7.5155,-7.4935,-7.4673,-7.4287,-7.4132,-7.401,-7.401,-7.401,-7.401,-7.401,-7.3931,-7.3852,-7.3577,-7.3334,-7.3005,-7.2774,-7.2725,-7.2638,-7.2594,-7.2607,-7.2462,-7.2315,-7.2112,-7.1868,-7.1512,-7.1219,-7.0972,-7.1123,-7.1092,-7.0981,-7.0838,-7.0869,-7.0662,-7.0441,-7.0536,-7.0662,-6.5633,-6.5725,-6.6247,-6.6952,-6.7573,-6.7871,-6.8308,-6.8855,-6.9116,-6.9203,-6.9246,-6.9246,-6.9419,-6.9664,-6.9604,-7.0182,-7.083,-7.1192,-7.2031,-7.345,-7.4343,-7.4868,-7.5348,-7.6222,-7.6487,-7.661,-7.6872,-7.7026,-7.7204,-7.7224,-7.7531,-7.7999,-7.8272,-7.8663,-7.9522,-8.0029,-8.0732,-8.0966,-8.1669,-8.1984,-8.1816,-8.1742,-8.1561,-8.1362,-8.1069,-8.0822,-8.0758,-8.0616,-8.0543,-8.0506,-8.0506,-8.0506,-8.0506,-8.0506,-8.0506,-8.0506,-8.0468,-8.0354,-8.0116,-7.995,-7.9652,-7.9198,-7.8803,-7.8671,-7.8458,-7.8386,-7.8276,-7.8276,-7.8276,-7.8276,-7.8276,-7.8276,-7.7957,-7.7533,-7.7133,-7.6396,-7.5757,-7.5335,-7.4748,-7.4482,-7.4482,-7.4364,-7.4088,-7.401,-7.401,-7.401,-7.401,-7.401,-7.3931,-7.3852,-7.3577,-7.3334,-7.3331,-7.315,-7.2897,-7.2809,-7.2688,-7.2655,-7.2519,-7.2448,-7.2411,-7.2326,-7.2234,-7.1864,-7.1605,-7.1246,-7.1328,-7.1203,-7.1092,-7.0774,-7.0504,-7.0188,-6.9872,-7.0094,-7.0283,-6.638,-6.6858,-6.7084,-6.7679,-6.8405,-6.8501,-6.8726,-6.9072,-6.916,-6.9332,-6.9501,-6.9542,-6.9853,-7.0222,-7.0277,-7.094,-7.1849,-7.2109,-7.308,-7.4459,-7.5217,-7.5659,-7.6169,-7.6604,-7.69,-7.7022,-7.7068,-7.7442,-7.7614,-7.7882,-7.8116,-7.8429,-7.8936,-7.9561,-8.0341,-8.0771,-8.1239,-8.1617,-8.1976,-8.2011,-8.182,-8.164,-8.1437,-8.1253,-8.0984,-8.086,-8.0758,-8.065,-8.0542,-8.0543,-8.0506,-8.0506,-8.0506,-8.0506,-8.0468,-8.0197,-8.0197,-8.0116,-7.9992,-7.9607,-7.915,-7.8854,-7.8633,-7.8404,-7.8332,-7.8276,-7.8276,-7.8276,-7.8276,-7.8276,-7.8221,-7.79,-7.7592,-7.7133,-7.6591,-7.5963,-7.5227,-7.4673,-7.4252,-7.4132,-7.401,-7.401,-7.401,-7.401,-7.401,-7.401,-7.401,-7.401,-7.3852,-7.3657,-7.3334,-7.3005,-7.3184,-7.3275,-7.3117,-7.3037,-7.2894,-7.2725,-7.2574,-7.2444,-7.2489,-7.2388,-7.223,-7.197,-7.1548,-7.1438,-7.1424,-7.1171,-7.0838,-7.0553,-7.0157,-6.9809,-6.9462,-6.9177,-6.943,-6.678,-6.7973,-6.7908,-6.8346,-6.8983,-6.8983,-6.9027,-6.9241,-6.9332,-6.9501,-6.9778,-6.9999,-7.0369,-7.0843,-7.1171,-7.1863,-7.2916,-7.3175,-7.4245,-7.5236,-7.5758,-7.6163,-7.6571,-7.688,-7.7097,-7.7305,-7.7485,-7.7966,-7.8591,-7.8975,-7.917,-7.9053,-7.9756,-8.0498,-8.1083,-8.1435,-8.1708,-8.2131,-8.2055,-8.1934,-8.1717,-8.1491,-8.1323,-8.1107,-8.0959,-8.0822,-8.0792,-8.0652,-8.058,-8.0543,-8.0506,-8.0506,-8.0506,-8.0392,-8.0275,-8.0034,-7.9827,-7.9652,-7.9471,-7.915,-7.8803,-7.8633,-7.8512,-7.8332,-7.8332,-7.8276,-7.8276,-7.8276,-7.8276,-7.8276,-7.8165,-7.7688,-7.7194,-7.6591,-7.5927,-7.5335,-7.4823,-7.4405,-7.4132,-7.4088,-7.401,-7.401,-7.401,-7.401,-7.401,-7.401,-7.401,-7.401,-7.3852,-7.3612,-7.3577,-7.3317,-7.3495,-7.3688,-7.3433,-7.3298,-7.3127,-7.2912,-7.2644,-7.2532,-7.2396,-7.2272,-7.2154,-7.1862,-7.1534,-7.1314,-7.1092,-7.0917,-7.0631,-7.0473,-7.0188,-6.9493,-6.9051,-6.8703,-6.864,-6.6642,-6.8791,-6.8554,-6.866,-6.9027,-6.8929,-6.902,-6.9289,-6.9582,-6.9778,-6.9999,-7.0432,-7.0766,-7.1106,-7.2018,-7.2909,-7.3844,-7.4685,-7.5506,-7.6167,-7.6638,-7.6651,-7.6886,-7.7083,-7.7422,-7.8006,-7.8259,-7.878,-7.9561,-8.0146,-8.0537,-8.0849,-8.0849,-8.1435,-8.1864,-8.202,-8.2014,-8.2226,-8.2062,-8.1851,-8.166,-8.1484,-8.1269,-8.1085,-8.0893,-8.0792,-8.0792,-8.0652,-8.0543,-8.0506,-8.0506,-8.0468,-8.0392,-8.0237,-8.0075,-7.974,-7.934,-7.9102,-7.8904,-7.884,-7.8633,-7.8441,-7.8332,-7.8276,-7.8276,-7.8276,-7.8276,-7.8276,-7.8276,-7.8276,-7.8071,-7.7592,-7.6846,-7.6264,-7.5548,-7.4861,-7.4482,-7.4287,-7.4088,-7.401,-7.401,-7.401,-7.401,-7.401,-7.401,-7.401,-7.401,-7.401,-7.3957,-7.3751,-7.3973,-7.3969,-7.4079,-7.4102,-7.3833,-7.3636,-7.3471,-7.2975,-7.2489,-7.2404,-7.2411,-7.2187,-7.1862,-7.1644,-7.1314,-7.1092,-7.0901,-7.0869,-7.0694,-7.0568,-7.0188,-6.943,-6.8608,-6.8071,-6.8089,-6.6685,-6.8091,-6.8474,-6.8838,-6.9116,-6.9109,-6.9289,-6.9542,-6.9739,-7.0033,-7.0432,-7.0902,-7.1424,-7.2066,-7.2886,-7.3867,-7.4763,-7.5619,-7.6264,-7.656,-7.6794,-7.6868,-7.7034,-7.7456,-7.8006,-7.8461,-7.8908,-7.9639,-8.0498,-8.0927,-8.1356,-8.1591,-8.1708,-8.1942,-8.2215,-8.2287,-8.2226,-8.2084,-8.1934,-8.1717,-8.1491,-8.1323,-8.1176,-8.1054,-8.0959,-8.086,-8.0792,-8.0652,-8.058,-8.0506,-8.0506,-8.0431,-8.0237,-8.0034,-7.974,-7.9425,-7.8904,-7.8738,-7.8565,-7.8512,-7.8441,-7.8386,-7.8276,-7.8276,-7.8276,-7.8276,-7.8276,-7.8276,-7.8276,-7.8276,-7.8165,-7.7255,-7.633,-7.5859,-7.5263,-7.4446,-7.4209,-7.4088,-7.401,-7.401,-7.401,-7.401,-7.401,-7.401,-7.401,-7.401,-7.401,-7.3966,-7.3947,-7.4066,-7.4321,-7.4629,-7.4722,-7.4385,-7.4052,-7.396,-7.3907,-7.3164,-7.2388,-7.2379,-7.2294,-7.1753,-7.1424,-7.1314,-7.1203,-7.0981,-7.0901,-7.0789,-7.0662,-7.0441,-6.9936,-6.9272,-6.845,-6.7597,-6.7477,-6.6499,-6.7651,-6.8203,-6.875,-6.9203,-6.9251,-6.9501,-6.9778,-7.0071,-7.04,-7.0992,-7.1456,-7.2181,-7.3032,-7.3906,-7.4741,-7.5559,-7.6224,-7.6588,-7.6767,-7.6838,-7.69,-7.7261,-7.7809,-7.8422,-7.8864,-7.9678,-8.0537,-8.1356,-8.1356,-8.1708,-8.2098,-8.2293,-8.2293,-8.2248,-8.2226,-8.2104,-8.1974,-8.1735,-8.1558,-8.1362,-8.1196,-8.1093,-8.1023,-8.0926,-8.0826,-8.0758,-8.0652,-8.058,-8.0543,-8.0468,-8.0354,-8.0075,-7.9822,-7.9471,-7.9004,-7.8686,-7.8565,-7.8386,-7.8276,-7.8276,-7.8276,-7.8276,-7.8276,-7.8276,-7.8276,-7.8276,-7.8276,-7.8276,-7.8221,-7.8014,-7.6946,-7.6063,-7.5582,-7.4787,-7.4053,-7.4088,-7.401,-7.401,-7.401,-7.401,-7.401,-7.401,-7.401,-7.4045,-7.4045,-7.401,-7.4106,-7.4412,-7.4566,-7.4809,-7.51,-7.5326,-7.4878,-7.4388,-7.4072,-7.3739,-7.2985,-7.2411,-7.2337,-7.2079,-7.1534,-7.1203,-7.1203,-7.1092,-7.0901,-7.0789,-7.0789,-7.0536,-7.022,-6.9746,-6.9304,-6.8261,-6.7502,-6.7036,-6.5986,-6.7539,-6.7747,-6.8366,-6.9058,-6.9463,-6.9701,-6.9927,-7.0494,-7.0928,-7.1302,-7.2065,-7.2955,-7.379,-7.4547,-7.5443,-7.6161,-7.6536,-7.6738,-7.6832,-7.6856,-7.6931,-7.7422,-7.8071,-7.9031,-7.9762,-8.0537,-8.1396,-8.2137,-8.2059,-8.2215,-8.2254,-8.2293,-8.2293,-8.2287,-8.2094,-8.1999,-8.1948,-8.16,-8.1461,-8.1323,-8.1137,-8.1023,-8.0959,-8.086,-8.072,-8.0685,-8.0542,-8.0543,-8.0506,-8.0431,-8.0237,-7.995,-7.9562,-7.9198,-7.884,-7.8512,-7.8332,-7.8276,-7.8276,-7.8276,-7.8276,-7.8276,-7.8276,-7.8276,-7.8276,-7.8276,-7.8276,-7.8221,-7.7863,-7.7255,-7.6526,-7.579,-7.5263,-7.4482,-7.401,-7.401,-7.401,-7.401,-7.401,-7.401,-7.401,-7.401,-7.401,-7.408,-7.408,-7.401,-7.4247,-7.4657,-7.5113,-7.5422,-7.5448,-7.5647,-7.5204,-7.4627,-7.4073,-7.3562,-7.2794,-7.2401,-7.2187,-7.197,-7.1644,-7.1314,-7.1203,-7.0981,-7.0789,-7.0789,-7.0789,-7.0568,-7.0378,-6.9936,-6.9335,-6.8261,-6.7395,-6.6852,-6.5396,-6.6089,-6.6958,-6.7537,-6.8033,-6.9208,-6.9852,-7.0238,-7.0821,-7.1186,-7.1424,-7.222,-7.3071,-7.3944,-7.4879,-7.5735,-7.6436,-7.6633,-7.6754,-7.6847,-7.6939,-7.7419,-7.7959,-7.8796,-7.9678,-8.0576,-8.1396,-8.1903,-8.2254,-8.2293,-8.2293,-8.2293,-8.2293,-8.2293,-8.2273,-8.2094,-8.1961,-8.1787,-8.1514,-8.135,-8.1196,-8.1085,-8.0991,-8.0991,-8.0788,-8.0685,-8.0685,-8.058,-8.0506,-8.0468,-8.0315,-8.0034,-7.9652,-7.9246,-7.8891,-7.8565,-7.8332,-7.8276,-7.8276,-7.8276,-7.8276,-7.8313,-7.8313,-7.8313,-7.8276,-7.8276,-7.8276,-7.8165,-7.79,-7.757,-7.7133,-7.5995,-7.5335,-7.5082,-7.4558,-7.4132,-7.401,-7.401,-7.401,-7.401,-7.401,-7.401,-7.401,-7.4221,-7.4326,-7.4597,-7.4703,-7.4612,-7.4869,-7.5715,-7.6277,-7.5966,-7.5823,-7.5425,-7.4899,-7.4038,-7.3285,-7.2688,-7.2294,-7.2079,-7.1862,-7.1534,-7.1314,-7.0981,-7.0901,-7.0789,-7.0789,-7.0789,-7.0789,-7.0568,-7.0157,-6.9778,-6.9051,-6.784,-6.6605,-6.5191,-6.5561,-6.6672,-6.7238,-6.7569,-6.8735,-6.961,-7.021,-7.0961,-7.1446,-7.191,-7.2684,-7.3557,-7.4431,-7.5288,-7.5894,-7.6614,-7.6704,-7.678,-7.6939,-7.7317,-7.7773,-7.8532,-7.9561,-8.0302,-8.1161,-8.1825,-8.2293,-8.2293,-8.2293,-8.2293,-8.2293,-8.2293,-8.2234,-8.2153,-8.1974,-8.1787,-8.1579,-8.1362,-8.1224,-8.1116,-8.1023,-8.0959,-8.0926,-8.0826,-8.0723,-8.0652,-8.0542,-8.043,-8.0276,-8.0075,-7.9696,-7.9293,-7.8954,-7.8633,-7.8441,-7.8276,-7.8276,-7.8276,-7.8276,-7.8425,-7.8759,-7.8499,-7.8462,-7.8499,-7.8462,-7.8368,-7.81,-7.7597,-7.7019,-7.6469,-7.5407,-7.5151,-7.4965,-7.4623,-7.4229,-7.415,-7.415,-7.415,-7.415,-7.415,-7.4115,-7.4185,-7.4396,-7.4642,-7.5018,-7.5474,-7.537,-7.5213,-7.5999,-7.6608,-7.6231,-7.573,-7.5056,-7.4439,-7.3665,-7.2972,-7.2476,-7.2187,-7.197,-7.1644,-7.1314,-7.1092,-7.0901,-7.0901,-7.0789,-7.0789,-7.0789,-7.0789,-7.0694,-7.0473,-7.0094,-6.9746,-6.8374,-6.6741,-6.5411,-6.588,-6.6859,-6.7372,-6.7668,-6.8196,-6.9026,-7.0109,-7.0943,-7.1756,-7.2607,-7.3419,-7.4215,-7.5171,-7.6126,-7.6536,-7.6669,-7.6752,-7.6946,-7.7224,-7.7767,-7.8274,-7.9113,-8.0146,-8.0849,-8.1317,-8.1825,-8.2293,-8.2293,-8.2293,-8.2293,-8.2287,-8.228,-8.2153,-8.1974,-8.1787,-8.16,-8.1437,-8.128,-8.1146,-8.1093,-8.1061,-8.0959,-8.0893,-8.0792,-8.0688,-8.0616,-8.0468,-8.0276,-8.0116,-7.9908,-7.9471,-7.9053,-7.884,-7.8528,-7.8441,-7.8313,-7.8462,-7.8499,-7.8536,-7.8945,-7.9354,-7.8945,-7.9019,-7.9074,-7.8944,-7.8618,-7.8223,-7.7678,-7.6529,-7.5585,-7.5294,-7.5064,-7.4794,-7.4554,-7.4396,-7.4361,-7.4361,-7.4396,-7.4396,-7.4466,-7.4501,-7.4642,-7.4817,-7.5309,-7.5673,-7.6152,-7.644,-7.6277,-7.6037,-7.6499,-7.6211,-7.5473,-7.4571,-7.3869,-7.3285,-7.2794,-7.2294,-7.2187,-7.197,-7.1534,-7.1203,-7.0981,-7.0901,-7.0901,-7.0789,-7.0789,-7.0789,-7.0789,-7.0662,-7.0473,-6.9979,-6.9489,-6.8302,-6.6786,-6.5312,-6.512,-6.6491,-6.6758,-6.6562,-6.7995,-6.9524,-7.0866,-7.1253,-7.1794,-7.2645,-7.3496,-7.447,-7.5249,-7.6165,-7.6591,-7.6747,-7.6909,-7.7387,-7.7797,-7.8242,-7.9131,-8.0011,-8.0771,-8.1356,-8.1786,-8.2176,-8.2293,-8.2293,-8.2293,-8.2293,-8.2287,-8.2162,-8.1987,-8.1804,-8.1579,-8.1484,-8.1337,-8.1205,-8.1124,-8.1061,-8.1023,-8.0926,-8.0893,-8.072,-8.0614,-8.0505,-8.0353,-8.0152,-7.9988,-7.9462,-7.8991,-7.8854,-7.8581,-7.8332,-7.8406,-7.8722,-7.9168,-7.9242,-7.9688,-8.0059,-8.0245,-8.0059,-8.0097,-8.0094,-7.9616,-7.902,-7.8473,-7.7783,-7.6769,-7.6043,-7.5738,-7.5571,-7.5442,-7.5239,-7.5204,-7.5204,-7.5204,-7.5204,-7.5204,-7.5239,-7.5239,-7.5344,-7.5625,-7.6035,-7.6397,-7.6755,-7.7074,-7.7007,-7.6691,-7.6256,-7.5918,-7.5127,-7.4172,-7.3698,-7.3077,-7.2582,-7.2187,-7.2079,-7.1862,-7.1424,-7.1092,-7.0981,-7.0869,-7.0789,-7.0789,-7.0789,-7.0789,-7.0757,-7.0536,-7.0346,-6.9722,-6.9049,-6.7588,-6.629,-6.618,-6.5589,-6.6912,-6.7474,-6.761,-6.8751,-7.0054,-7.1214,-7.1678,-7.2297,-7.3148,-7.406,-7.4917,-7.5777,-7.6399,-7.6731,-7.6819,-7.6903,-7.736,-7.8122,-7.8708,-7.9707,-8.0621,-8.1356,-8.1825,-8.2176,-8.2293,-8.2293,-8.2293,-8.2293,-8.2293,-8.2287,-8.2084,-8.1905,-8.1717,-8.1553,-8.1401,-8.128,-8.1176,-8.1124,-8.1061,-8.0991,-8.0959,-8.0855,-8.072,-8.054,-8.0392,-8.0228,-8.0282,-8.0129,-7.9528,-7.971,-7.9642,-7.9354,-7.9279,-7.9428,-7.9651,-7.9948,-8.0059,-8.032,-8.0765,-8.11,-8.1211,-8.1185,-8.0762,-8.0235,-7.9563,-7.8989,-7.7991,-7.7108,-7.6653,-7.6226,-7.6243,-7.6222,-7.6222,-7.6222,-7.6222,-7.6222,-7.6222,-7.6222,-7.6187,-7.6152,-7.6292,-7.6573,-7.6772,-7.6957,-7.7089,-7.7198,-7.6967,-7.6462,-7.5909,-7.5512,-7.4572,-7.3665,-7.3285,-7.29,-7.2476,-7.2187,-7.1862,-7.1644,-7.1314,-7.1092,-7.0869,-7.0901,-7.0789,-7.0789,-7.0789,-7.0757,-7.0694,-7.0473,-6.9965,-6.9069,-6.795,-6.6199,-6.4961,-6.7607,-6.6583,-6.7741,-6.8791,-6.9877,-6.9938,-7.0518,-7.1446,-7.2358,-7.3109,-7.3944,-7.4763,-7.5619,-7.6342,-7.6676,-7.6794,-7.6956,-7.7117,-7.7772,-7.8476,-7.9434,-8.0386,-8.1206,-8.1864,-8.2098,-8.2254,-8.2293,-8.2293,-8.2287,-8.2241,-8.2226,-8.2241,-8.1999,-8.1787,-8.162,-8.1437,-8.1242,-8.1176,-8.1085,-8.1093,-8.1093,-8.1061,-8.1061,-8.0855,-8.072,-8.0505,-8.0231,-8.0315,-8.0641,-8.038,-8.0352,-8.0617,-8.06,-8.0525,-8.0505,-8.0654,-8.0654,-8.0802,-8.0914,-8.1137,-8.1508,-8.1843,-8.2103,-8.1955,-8.1439,-8.0662,-7.9974,-7.9139,-7.8195,-7.7511,-7.6966,-7.6981,-7.7111,-7.71,-7.71,-7.71,-7.71,-7.71,-7.71,-7.71,-7.71,-7.7064,-7.71,-7.738,-7.7521,-7.7517,-7.7473,-7.7546,-7.6871,-7.6266,-7.5546,-7.4868,-7.397,-7.3181,-7.29,-7.2582,-7.2508,-7.2187,-7.1862,-7.1534,-7.1314,-7.0981,-7.0789,-7.0789,-7.0789,-7.0789,-7.0789,-7.0757,-7.0631,-7.0203,-6.9552,-6.8448,-6.6912,-6.5076,-6.3594,-6.8012,-6.6934,-6.7479,-6.858,-6.9899,-7.0015,-7.0905,-7.2336,-7.327,-7.3717,-7.4066,-7.4862,-7.5739,-7.6612,-7.6752,-7.6827,-7.7056,-7.7612,-7.8473,-7.936,-8.023,-8.0966,-8.1786,-8.2137,-8.2293,-8.2293,-8.2293,-8.2287,-8.2234,-8.2162,-8.2062,-8.2011,-8.1787,-8.1536,-8.1507,-8.1296,-8.1146,-8.1093,-8.1093,-8.1061,-8.0991,-8.1029,-8.1029,-8.0754,-8.0503,-8.02,-7.9784,-7.9301,-7.9616,-7.9717,-7.9651,-8.0022,-8.0617,-8.0691,-8.0728,-8.0802,-8.1397,-8.1583,-8.1731,-8.1954,-8.2288,-8.2549,-8.2653,-8.2462,-8.1948,-8.1063,-8.0152,-7.9243,-7.8448,-7.7787,-7.7498,-7.7779,-7.7907,-7.7907,-7.7907,-7.7907,-7.7907,-7.7907,-7.7907,-7.7907,-7.7942,-7.7942,-7.7942,-7.8047,-7.8258,-7.828,-7.8182,-7.7858,-7.6725,-7.5892,-7.4835,-7.4172,-7.3389,-7.2688,-7.2508,-7.2508,-7.2401,-7.2187,-7.183,-7.1534,-7.1203,-7.0981,-7.0789,-7.0789,-7.0789,-7.0852,-7.0852,-7.0789,-7.0599,-7.0091,-6.9089,-6.7866,-6.6088,-6.4277,-6.2545,-6.9117,-6.8193,-6.8497,-6.9125,-6.9938,-7.0402,-7.139,-7.265,-7.3622,-7.4245,-7.4673,-7.5449,-7.6225,-7.6715,-7.6804,-7.7184,-7.7485,-7.8046,-7.9125,-8.0152,-8.0771,-8.1435,-8.1981,-8.2293,-8.2293,-8.2293,-8.2287,-8.2241,-8.2162,-8.2073,-8.1974,-8.1836,-8.1536,-8.1362,-8.1337,-8.1196,-8.1093,-8.1093,-8.1093,-8.1023,-8.0959,-8.1029,-8.1029,-8.0754,-8.0354,-7.9961,-7.9509,-7.9028,-7.9166,-7.9707,-8.0036,-8.0592,-8.1244,-8.1673,-8.1843,-8.1991,-8.2251,-8.2511,-8.2549,-8.2623,-8.2771,-8.2675,-8.2264,-8.1644,-8.0922,-8.0116,-8.0079,-7.9215,-7.8771,-7.813,-7.813,-7.8223,-7.8293,-7.8293,-7.8293,-7.8293,-7.8293,-7.8293,-7.8293,-7.8293,-7.8293,-7.8293,-7.8293,-7.8293,-7.8385,-7.7961,-7.798,-7.7154,-7.6173,-7.5383,-7.434,-7.3562,-7.29,-7.2615,-7.2508,-7.2508,-7.2508,-7.2154,-7.1938,-7.1534,-7.1092,-7.0981,-7.0789,-7.0789,-7.0884,-7.101,-7.101,-7.1042,-7.0224,-6.96,-6.8528,-6.7311,-6.5498,-6.3742,-6.229,-7.0321,-6.9823,-6.9888,-7.0054,-7.0286,-7.112,-7.2031,-7.2925,-7.3798,-7.4732,-7.5564,-7.6319,-7.6692,-7.678,-7.6919,-7.7559,-7.8164,-7.8582,-7.965,-8.0576,-8.1122,-8.1708,-8.2059,-8.2293,-8.2293,-8.2293,-8.2293,-8.2162,-8.205,-8.1948,-8.182,-8.166,-8.1491,-8.1375,-8.1296,-8.1196,-8.1093,-8.1093,-8.1093,-8.1061,-8.1029,-8.0991,-8.0888,-8.0646,-8.0201,-7.9589,-7.9301,-7.9029,-7.894,-7.9623,-8.0244,-8.0992,-8.1593,-8.206,-8.266,-8.2771,-8.2883,-8.3032,-8.2994,-8.266,-8.2304,-8.183,-8.1192,-8.0582,-8.0006,-7.9681,-7.9661,-7.9329,-7.8788,-7.8657,-7.8539,-7.8539,-7.8574,-7.8574,-7.8574,-7.8574,-7.8574,-7.8574,-7.8574,-7.8574,-7.8574,-7.8574,-7.8574,-7.8574,-7.8237,-7.7807,-7.7065,-7.602,-7.5224,-7.4736,-7.3937,-7.3285,-7.2688,-7.2508,-7.2508,-7.2508,-7.2508,-7.2294,-7.2079,-7.1534,-7.1044,-7.1122,-7.1042,-7.0852,-7.0947,-7.1389,-7.1484,-7.1516,-7.0516,-6.9488,-6.8019,-6.6852,-6.5136,-6.3407,-6.2342,-7.0838,-7.0915,-7.0286,-7.0402,-7.112,-7.2014,-7.2925,-7.3798,-7.4693,-7.5638,-7.6334,-7.6586,-7.678,-7.6816,-7.6931,-7.7539,-7.8514,-7.9035,-7.9918,-8.0888,-8.1591,-8.2059,-8.2254,-8.2293,-8.2293,-8.2287,-8.228,-8.2162,-8.1948,-8.1804,-8.166,-8.1422,-8.128,-8.1176,-8.1146,-8.1093,-8.1093,-8.1093,-8.1093,-8.1061,-8.1029,-8.0926,-8.0573,-8.0163,-7.9589,-7.9037,-7.8544,-7.7974,-7.8256,-7.8933,-7.9829,-8.0725,-8.1326,-8.1756,-8.2282,-8.2787,-8.2994,-8.3106,-8.2957,-8.2616,-8.2163,-8.1317,-8.0744,-8.0285,-7.9793,-7.9303,-7.9195,-7.8882,-7.8574,-7.8574,-7.8574,-7.8574,-7.8574,-7.8574,-7.8574,-7.8574,-7.8574,-7.8574,-7.8574,-7.8574,-7.8574,-7.849,-7.8441,-7.8237,-7.7945,-7.7421,-7.685,-7.5798,-7.4539,-7.4038,-7.3459,-7.3077,-7.2508,-7.2508,-7.2508,-7.2508,-7.2508,-7.2401,-7.2251,-7.1726,-7.1473,-7.1534,-7.1389,-7.12,-7.161,-7.2148,-7.2179,-7.1863,-7.116,-7.0086,-6.8152,-6.6488,-6.4706,-6.322,-6.221]}]]